ftp/pub/palmer/observations_modified/2019/October/original_files/AR191025_BASE.txt
Download
Sample DateTime Unit Id WS Avg 2min WD Avg 2min WGS 10min WGD 10min Air Temp Rel Humidity Dew Point Pyranometer Quantum Air Pressure Snow Level Rainfall PW Current Visibility CBase 1 CBase 2 CBase 3 Vert Vis
2019/10/25 00:00:01 BASE 23.99 22 27.47 24 3.4 87 1.3 2 0 988.9 NA 0.0000 9999 13550 0 0 0
2019/10/25 00:01:00 BASE 25.53 25 28.55 25 3.3 87 1.3 2 0 988.9 NA 0.0000 9999 13480 0 0 0
2019/10/25 00:02:00 BASE 24.83 24 28.55 25 3.3 87 1.3 1 0 988.9 NA 0.0000 9999 13450 0 0 0
2019/10/25 00:03:00 BASE 24.41 24 28.55 25 3.2 88 1.4 1 0 988.9 NA 0.0000 9999 6270 13550 0 0
2019/10/25 00:04:00 BASE 23.77 27 28.55 25 3.2 88 1.4 1 0 988.9 NA 0.0000 9999 6230 13520 0 0
2019/10/25 00:05:00 BASE 22.88 27 28.55 25 3.2 88 1.5 1 0 988.9 NA 0.0000 9999 13520 0 0 0
2019/10/25 00:06:00 BASE 23.22 26 28.55 25 3.2 89 1.5 1 0 989.0 NA 0.0000 9999 6100 13580 0 0
2019/10/25 00:07:00 BASE 23.54 26 28.55 25 3.2 89 1.5 1 0 988.9 NA 0.0000 9999 4590 5380 0 0
2019/10/25 00:08:00 BASE 24.45 26 28.55 25 3.2 89 1.6 1 0 988.9 NA 0.0000 9999 4720 5250 0 0
2019/10/25 00:09:00 BASE 24.20 23 28.55 25 3.2 89 1.6 1 0 988.9 NA 0.0000 9999 5150 0 0 0
2019/10/25 00:10:00 BASE 22.81 22 28.55 25 3.2 89 1.5 1 0 989.0 NA 0.0000 9999 5120 0 0 0
2019/10/25 00:11:00 BASE 22.36 24 27.93 36 3.1 89 1.5 1 0 989.0 NA 0.0000 9999 5020 0 0 0
2019/10/25 00:12:00 BASE 23.36 24 27.93 36 3.1 89 1.5 1 0 989.0 NA 0.0000 9999 13350 0 0 0
2019/10/25 00:13:00 BASE 24.26 24 28.65 20 3.1 89 1.5 0 0 989.0 NA 0.0000 9999 13450 0 0 0
2019/10/25 00:14:01 BASE 26.10 23 29.99 20 3.0 90 1.5 0 0 988.8 NA 0.0000 UP 9999 0 0 0 3540
2019/10/25 00:15:01 BASE 27.11 22 29.99 20 3.0 90 1.6 0 0 988.9 NA 0.0000 UP 9999 0 0 0 5480
2019/10/25 00:16:00 BASE 26.94 23 30.09 20 3.0 91 1.6 0 0 988.8 NA 0.0000 UP 9999 0 0 0 5610
2019/10/25 00:17:00 BASE 27.51 21 30.09 20 3.0 91 1.7 0 0 988.8 NA 0.0000 UP 9999 13480 0 0 0
2019/10/25 00:18:00 BASE 27.45 21 30.09 20 3.0 92 1.8 0 0 988.8 NA 0.0000 UP 9999 3710 0 0 0
2019/10/25 00:19:00 BASE 26.40 23 30.09 20 3.0 92 1.8 0 0 988.8 NA 0.0000 UP 9999 13520 0 0 0
2019/10/25 00:20:00 BASE 25.36 24 30.09 20 3.0 92 1.8 0 0 988.9 NA 0.0000 UP 9999 13520 0 0 0
2019/10/25 00:21:00 BASE 25.26 24 30.09 20 3.0 92 1.9 0 0 988.8 NA 0.0000 UP 9999 13780 0 0 0
2019/10/25 00:22:01 BASE 24.11 24 30.09 20 3.0 92 1.9 0 0 988.9 NA 0.0000 UP 9999 6170 13750 0 0
2019/10/25 00:23:00 BASE 23.20 25 30.09 20 3.0 93 1.9 0 0 988.9 NA 0.0000 UP 9999 6270 13750 0 0
2019/10/25 00:24:00 BASE 24.13 27 30.09 20 3.0 93 2.0 0 0 988.8 NA 0.0000 UP 9999 5480 13620 0 0
2019/10/25 00:25:00 BASE 24.75 28 30.09 20 3.0 93 2.0 0 0 988.8 NA 0.0000 UP 9999 5640 14010 0 0
2019/10/25 00:26:01 BASE 24.00 27 29.89 21 3.0 93 2.0 0 0 988.9 NA 0.0000 UP 9999 5910 13940 0 0
2019/10/25 00:27:00 BASE 24.93 29 31.33 29 3.1 93 2.0 0 0 988.8 NA 0.0000 UP 9999 5120 5810 0 0
2019/10/25 00:28:00 BASE 26.63 28 31.33 29 3.1 93 2.0 0 0 988.7 NA 0.0000 UP 9999 4950 0 0 0
2019/10/25 00:29:00 BASE 26.42 27 31.33 29 3.2 92 2.0 0 0 988.8 NA 0.0000 UP 9999 5020 0 0 0
2019/10/25 00:30:01 BASE 24.69 28 31.33 29 3.2 92 2.0 0 0 988.8 NA 0.0000 UP 9999 5740 0 0 0
2019/10/25 00:31:00 BASE 24.19 28 31.33 29 3.2 92 2.0 0 0 988.8 NA 0.0000 UP 9999 5220 14080 0 0
2019/10/25 00:32:00 BASE 25.08 30 31.33 29 3.2 91 1.9 0 0 988.8 NA 0.0000 9999 4430 5220 0 0
2019/10/25 00:33:00 BASE 25.65 30 31.33 29 3.2 91 1.9 0 0 988.7 NA 0.0000 9999 5410 0 0 0
2019/10/25 00:34:00 BASE 26.57 27 31.79 28 3.2 91 1.9 0 0 988.7 NA 0.0000 9999 5320 0 0 0
2019/10/25 00:35:00 BASE 26.90 25 31.79 28 3.2 91 1.9 0 0 988.8 NA 0.0000 UP 9999 5480 0 0 0
2019/10/25 00:36:00 BASE 26.56 24 31.79 28 3.2 91 1.9 0 0 988.8 NA 0.0000 UP 9999 0 0 0 4630
2019/10/25 00:37:00 BASE 26.17 27 31.79 28 3.2 91 1.9 0 0 988.9 NA 0.0000 UP 6000 330 0 0 0
2019/10/25 00:38:01 BASE 24.47 27 31.79 28 3.1 91 1.8 0 0 988.9 NA 0.0000 UP BR 4100 360 0 0 0
2019/10/25 00:39:00 BASE 24.11 27 31.79 28 3.1 91 1.8 0 0 988.9 NA 0.0000 -SN BR 6000 0 0 0 3150
2019/10/25 00:40:01 BASE 24.06 26 31.79 28 3.1 91 1.8 0 0 988.9 NA 0.0000 -SN BR 9999 14270 0 0 0
2019/10/25 00:41:00 BASE 24.60 24 31.79 28 3.0 92 1.8 0 0 988.8 NA 0.0000 -SN BR 9999 0 0 0 2850
2019/10/25 00:42:00 BASE 26.48 24 31.79 28 3.0 92 1.8 0 0 988.7 NA 0.0000 -SN BR 9999 0 0 0 5320
2019/10/25 00:43:00 BASE 26.74 25 31.79 28 3.0 92 1.8 0 0 988.8 NA 0.0000 -SN BR 5000 0 0 0 4660
2019/10/25 00:44:00 BASE 25.19 28 30.87 24 3.0 92 1.8 0 0 988.9 NA 0.0000 -SN BR 4600 0 0 0 4070
2019/10/25 00:45:00 BASE 23.66 28 30.87 24 3.0 92 1.9 0 0 988.9 NA 0.0000 -SN BR 9999 0 0 0 4300
2019/10/25 00:46:00 BASE 24.78 24 30.87 24 3.0 92 1.9 0 0 988.7 NA 0.0000 -SN BR 9999 6530 0 0 0
2019/10/25 00:47:00 BASE 26.74 21 30.87 24 3.0 93 1.9 0 0 988.6 NA 0.0000 -SN BR 9999 6430 0 0 0
2019/10/25 00:48:01 BASE 27.68 23 31.18 24 3.0 93 1.9 0 0 988.5 NA 0.0000 -SN BR 9000 6100 0 0 0
2019/10/25 00:49:00 BASE 27.66 24 31.18 24 3.0 93 2.0 0 0 988.5 NA 0.0000 -SN BR 5000 6170 11780 0 0
2019/10/25 00:50:01 BASE 27.85 25 31.18 24 3.0 93 1.9 0 0 988.6 NA 0.0000 -SN BR 5000 360 0 0 0
2019/10/25 00:51:00 BASE 28.26 26 31.18 24 3.0 93 1.9 0 0 988.5 NA 0.0000 -SN BR 6000 6270 0 0 0
2019/10/25 00:52:01 BASE 28.68 23 32.46 26 2.9 93 1.9 0 0 988.5 NA 0.0000 -SN BR 9999 6400 11450 0 0
2019/10/25 00:53:00 BASE 27.37 23 32.46 26 2.9 93 1.9 0 0 988.6 NA 0.0000 -SN BR 9999 6560 11190 0 0
2019/10/25 00:54:00 BASE 26.92 24 32.46 26 2.9 94 2.0 0 0 988.5 NA 0.0000 -SN BR 9999 11220 0 0 0
2019/10/25 00:55:01 BASE 27.78 24 32.46 26 2.9 94 2.0 0 0 988.5 NA 0.0000 -SN BR 9999 11090 0 0 0
2019/10/25 00:56:01 BASE 28.34 25 32.46 26 2.9 94 2.0 0 0 988.4 NA 0.2540 -SN BR 9999 11160 0 0 0
2019/10/25 00:57:00 BASE 29.18 25 32.67 20 2.9 94 2.0 0 0 988.4 NA 0.0000 -SN BR 9999 5910 0 0 0
2019/10/25 00:58:01 BASE 28.42 27 32.67 20 2.9 94 2.1 0 0 988.5 NA 0.0000 -SN BR 9999 5810 0 0 0
2019/10/25 00:59:00 BASE 26.65 27 32.67 20 3.0 94 2.1 0 0 988.5 NA 0.0000 -SN 9999 6300 0 0 0
2019/10/25 01:00:01 BASE 24.96 27 32.67 20 3.0 94 2.1 0 0 988.6 NA 0.0000 -SN 9999 6270 0 0 0
2019/10/25 01:01:00 BASE 26.07 29 32.67 20 3.0 94 2.1 0 0 988.4 NA 0.0000 9999 0 0 0 0
2019/10/25 01:02:00 BASE 27.11 27 32.67 20 3.0 93 2.0 0 0 988.5 NA 0.0000 9999 11090 0 0 0
2019/10/25 01:03:00 BASE 25.63 26 32.67 20 3.0 93 2.0 0 0 988.5 NA 0.0000 9999 11160 0 0 0
2019/10/25 01:04:00 BASE 25.75 28 32.67 20 3.0 92 1.9 0 0 988.4 NA 0.0000 9999 0 0 0 0
2019/10/25 01:05:00 BASE 26.80 29 32.67 20 3.0 92 1.9 0 0 988.3 NA 0.0000 9999 0 0 0 0
2019/10/25 01:06:00 BASE 27.72 28 32.67 20 3.0 92 1.8 0 0 988.3 NA 0.0000 9999 1970 0 0 0
2019/10/25 01:07:00 BASE 27.70 26 31.90 28 3.0 92 1.8 0 0 988.3 NA 0.0000 9999 3280 0 0 0
2019/10/25 01:08:00 BASE 26.97 25 31.90 28 2.9 92 1.8 0 0 988.4 NA 0.0000 9999 4950 0 0 0
2019/10/25 01:09:00 BASE 25.37 26 31.90 28 2.9 92 1.8 0 0 988.5 NA 0.0000 9999 0 0 0 6630
2019/10/25 01:10:01 BASE 24.65 25 31.90 28 2.9 92 1.8 0 0 988.5 NA 0.0000 9999 0 0 0 2100
2019/10/25 01:11:00 BASE 25.89 20 31.90 28 2.9 92 1.8 0 0 988.5 NA 0.0000 9999 0 0 0 6660
2019/10/25 01:12:01 BASE 26.86 17 31.90 28 2.9 92 1.7 0 0 988.5 NA 0.0000 -SN 9999 0 0 0 5680
2019/10/25 01:13:00 BASE 27.96 18 31.90 28 2.9 92 1.7 0 0 988.4 NA 0.0000 -SN 9000 590 0 0 0
2019/10/25 01:14:00 BASE 28.02 20 31.90 28 2.9 92 1.7 0 0 988.5 NA 0.0000 -SN 5000 330 0 0 0
2019/10/25 01:15:00 BASE 27.11 21 31.90 28 2.9 92 1.7 0 0 988.6 NA 0.0000 -SN 5000 0 0 0 3120
2019/10/25 01:16:00 BASE 26.64 22 30.51 18 2.9 92 1.7 0 0 988.6 NA 0.0000 -SN 9999 0 0 0 2430
2019/10/25 01:17:00 BASE 26.53 27 30.51 18 2.9 92 1.7 0 0 988.6 NA 0.0000 -SN BR 8000 0 0 0 590
2019/10/25 01:18:00 BASE 26.81 29 30.76 30 2.8 92 1.7 0 0 988.6 NA 0.0000 -SN BR 9999 0 0 0 560
2019/10/25 01:19:00 BASE 27.05 28 31.07 33 2.8 93 1.8 0 0 988.6 NA 0.0000 -SN BR 9999 0 0 0 920
2019/10/25 01:20:00 BASE 27.06 28 31.07 33 2.8 93 1.8 0 0 988.6 NA 0.0000 -SN BR 7000 6270 0 0 0
2019/10/25 01:21:00 BASE 26.78 29 31.07 33 2.8 94 1.9 0 0 988.6 NA 0.0000 -SN BR 3900 6630 0 0 0
2019/10/25 01:22:00 BASE 27.10 26 31.07 33 2.8 94 1.9 0 0 988.5 NA 0.0000 -SN BR 5000 6040 0 0 0
2019/10/25 01:23:00 BASE 27.59 24 31.18 25 2.8 94 2.0 0 0 988.5 NA 0.0000 -SN BR 5000 460 0 0 0
2019/10/25 01:24:00 BASE 27.51 24 31.18 25 2.8 95 2.0 0 0 988.5 NA 0.0000 -SN BR 7000 0 0 0 3710
2019/10/25 01:25:00 BASE 26.78 23 31.18 25 2.8 95 2.0 0 0 988.6 NA 0.0000 -SN BR 9999 0 0 0 3770
2019/10/25 01:26:00 BASE 28.04 25 33.13 28 2.8 95 2.0 0 0 988.4 NA 0.0000 -SN BR 6000 0 0 0 2590
2019/10/25 01:27:00 BASE 28.48 26 33.13 28 2.7 95 2.0 0 0 988.4 NA 0.0000 -SN BR 3400 330 0 0 0
2019/10/25 01:28:00 BASE 27.33 25 33.13 28 2.7 95 2.0 0 0 988.5 NA 0.0000 -SN BR 4300 0 0 0 2850
2019/10/25 01:29:00 BASE 28.32 25 33.13 28 2.7 95 2.0 0 0 988.5 NA 0.2540 -SN BR 9000 0 0 0 7420
2019/10/25 01:30:00 BASE 28.11 25 33.13 28 2.6 96 2.0 0 0 988.5 NA 0.0000 -SN BR 4800 300 0 0 0
2019/10/25 01:31:00 BASE 26.85 26 33.13 28 2.6 96 2.0 0 0 988.5 NA 0.0000 -SN BR 2500 260 0 0 0
2019/10/25 01:32:00 BASE 26.32 27 33.13 28 2.6 96 2.1 0 0 988.4 NA 0.0000 -SN BR 2600 300 0 0 0
2019/10/25 01:33:00 BASE 25.57 27 33.13 28 2.6 96 2.1 0 0 988.6 NA 0.0000 -SN BR 4000 690 0 0 0
2019/10/25 01:34:00 BASE 25.13 24 33.13 28 2.6 97 2.1 0 0 988.6 NA 0.0000 -SN BR 5000 0 0 0 8790
2019/10/25 01:35:00 BASE 25.04 23 33.13 28 2.6 97 2.2 0 0 988.5 NA 0.0000 -SN BR 4300 0 0 0 7090
2019/10/25 01:36:00 BASE 25.03 25 31.95 26 2.6 98 2.3 0 0 988.5 NA 0.2540 -SN BR 7000 0 0 0 4400
2019/10/25 01:37:00 BASE 24.34 26 31.95 26 2.6 98 2.3 0 0 988.6 NA 0.0000 -SN BR 8000 0 0 0 5150
2019/10/25 01:38:00 BASE 23.93 24 31.95 26 2.7 98 2.4 0 0 988.6 NA 0.0000 -SN BR 9999 0 0 0 1050
2019/10/25 01:39:00 BASE 24.52 25 31.07 20 2.7 98 2.4 0 0 988.6 NA 0.0000 -SN BR 9000 0 0 0 1640
2019/10/25 01:40:00 BASE 24.43 25 31.07 20 2.7 98 2.4 0 0 988.6 NA 0.0000 -SN BR 9999 0 0 0 1180
2019/10/25 01:41:00 BASE 24.86 25 31.07 20 2.7 98 2.4 0 0 988.6 NA 0.0000 -SN BR 9999 0 0 0 490
2019/10/25 01:42:00 BASE 24.47 28 29.94 31 2.7 98 2.4 0 0 988.6 NA 0.0000 -SN BR 9999 0 0 0 1020
2019/10/25 01:43:00 BASE 24.36 28 29.94 31 2.7 98 2.4 0 0 988.6 NA 0.0000 -SN BR 9999 0 0 0 5580
2019/10/25 01:44:00 BASE 23.95 29 29.94 31 2.7 98 2.4 0 0 988.7 NA 0.0000 -SN BR 9999 0 0 0 6560
2019/10/25 01:45:00 BASE 23.36 31 29.94 31 2.7 98 2.4 0 0 988.6 NA 0.0000 -SN 9999 5250 0 0 0
2019/10/25 01:46:00 BASE 23.78 28 29.63 29 2.8 98 2.4 0 0 988.6 NA 0.0000 -SN 9999 0 0 0 6200
2019/10/25 01:47:00 BASE 25.51 27 30.04 32 2.8 97 2.4 0 0 988.5 NA 0.0000 -SN 5000 0 0 0 3770
2019/10/25 01:48:00 BASE 26.58 27 30.04 32 2.7 97 2.3 0 0 988.5 NA 0.0000 -SN BR 3800 750 0 0 0
2019/10/25 01:49:00 BASE 24.44 26 30.04 32 2.7 97 2.3 0 0 988.7 NA 0.0000 -SN BR 3800 0 0 0 3310
2019/10/25 01:50:00 BASE 22.59 27 30.04 32 2.7 97 2.3 0 0 988.8 NA 0.0000 -SN BR 3600 330 0 0 0
2019/10/25 01:51:00 BASE 21.16 27 30.04 32 2.6 97 2.2 0 0 988.8 NA 0.0000 -SN BR 3900 360 0 0 0
2019/10/25 01:52:00 BASE 20.44 27 30.04 32 2.6 98 2.2 0 0 988.8 NA 0.0000 -SN BR 9999 950 0 0 0
2019/10/25 01:53:00 BASE 20.57 28 30.04 32 2.5 98 2.3 0 0 988.8 NA 0.0000 -SN BR 9999 0 0 0 7020
2019/10/25 01:54:00 BASE 20.72 28 30.04 32 2.5 98 2.3 0 0 988.8 NA 0.0000 -SN BR 9999 0 0 0 4630
2019/10/25 01:55:00 BASE 21.70 28 30.04 32 2.6 99 2.4 0 0 988.8 NA 0.0000 -SN BR 9999 0 0 0 4890
2019/10/25 01:56:01 BASE 23.04 29 30.04 32 2.6 99 2.4 0 0 988.8 NA 0.0000 -SN BR 7000 360 0 0 0
2019/10/25 01:57:00 BASE 23.78 30 27.32 27 2.6 99 2.5 0 0 988.8 NA 0.0000 -SN BR 3800 390 0 0 0
2019/10/25 01:58:00 BASE 23.79 31 27.01 20 2.6 99 2.5 0 0 988.8 NA 0.2540 -SN BR 3500 360 0 0 0
2019/10/25 01:59:00 BASE 22.49 29 27.01 20 2.6 99 2.4 0 0 988.9 NA 0.0000 -SN BR 2900 360 0 0 0
2019/10/25 02:00:00 BASE 21.11 30 27.01 20 2.6 99 2.4 0 0 988.9 NA 0.0000 -SN BR 6000 330 0 0 0
2019/10/25 02:01:00 BASE 21.61 31 27.01 20 2.5 99 2.4 0 0 988.8 NA 0.0000 -SN BR 4800 360 0 0 0
2019/10/25 02:02:00 BASE 21.45 29 27.01 20 2.5 99 2.4 0 0 988.9 NA 0.0000 -SN BR 3400 360 0 0 0
2019/10/25 02:03:00 BASE 20.41 29 27.01 20 2.5 100 2.4 0 0 988.8 NA 0.0000 -SN BR 3400 360 0 0 0
2019/10/25 02:04:00 BASE 18.62 27 27.01 20 2.5 100 2.5 0 0 988.8 NA 0.0000 -SN BR 3900 620 0 0 0
2019/10/25 02:05:00 BASE 18.64 28 27.01 20 2.5 100 2.5 0 0 988.7 NA 0.0000 -SN BR 9999 0 0 0 3670
2019/10/25 02:06:00 BASE 20.47 27 26.29 34 2.5 100 2.5 0 0 988.6 NA 0.0000 -SN BR 9999 0 0 0 5840
2019/10/25 02:07:00 BASE 20.60 23 26.29 34 2.5 100 2.5 0 0 988.7 NA 0.0000 -SN BR 9999 0 0 0 2620
2019/10/25 02:08:00 BASE 21.52 22 24.69 29 2.5 100 2.5 0 0 988.5 NA 0.0000 -SN BR 9999 0 0 0 2820
2019/10/25 02:09:00 BASE 22.17 22 24.69 29 2.5 100 2.5 0 0 988.5 NA 0.0000 -SN BR 9999 0 0 0 7680
2019/10/25 02:10:00 BASE 22.81 22 28.14 14 2.6 100 2.6 0 0 988.4 NA 0.0000 -SN BR 9999 0 0 0 3640
2019/10/25 02:11:00 BASE 23.23 23 28.14 14 2.6 100 2.6 0 0 988.4 NA 0.0000 -SN BR 9999 0 0 0 6590
2019/10/25 02:12:00 BASE 23.70 25 28.14 14 2.6 100 2.6 0 0 988.4 NA 0.0000 -SN BR 9999 0 0 0 5450
2019/10/25 02:13:00 BASE 24.36 27 28.14 14 2.6 100 2.6 0 0 988.4 NA 0.0000 -SN 9999 0 0 0 5540
2019/10/25 02:14:00 BASE 24.31 27 28.14 14 2.6 100 2.6 0 0 988.4 NA 0.0000 -SN 9999 0 0 0 5090
2019/10/25 02:15:00 BASE 24.51 27 28.14 14 2.6 100 2.5 0 0 988.4 NA 0.0000 -SN 9000 0 0 0 4560
2019/10/25 02:16:00 BASE 24.55 26 28.14 14 2.6 100 2.5 0 0 988.5 NA 0.0000 -SN 8000 0 0 0 3050
2019/10/25 02:17:00 BASE 24.78 23 28.14 14 2.6 99 2.5 0 0 988.6 NA 0.0000 -SN 7000 0 0 0 2950
2019/10/25 02:18:00 BASE 24.27 22 28.14 14 2.6 99 2.5 0 0 988.7 NA 0.0000 -SN BR 6000 660 0 0 0
2019/10/25 02:19:00 BASE 23.38 22 28.14 14 2.6 99 2.4 0 0 988.7 NA 0.2540 -SN BR 3900 330 0 0 0
2019/10/25 02:20:00 BASE 22.73 20 27.32 32 2.5 99 2.4 0 0 988.7 NA 0.0000 -SN BR 3200 330 0 0 0
2019/10/25 02:21:00 BASE 22.21 20 27.32 32 2.5 99 2.4 0 0 988.8 NA 0.0000 -SN BR 6000 750 0 0 0
2019/10/25 02:22:00 BASE 22.15 19 27.01 23 2.5 99 2.4 0 0 988.8 NA 0.0000 -SN BR 7000 660 0 0 0
2019/10/25 02:23:00 BASE 22.82 16 27.01 23 2.4 99 2.4 0 0 988.7 NA 0.0000 -SN BR 5000 390 0 0 0
2019/10/25 02:24:00 BASE 22.58 13 27.01 23 2.4 100 2.4 0 0 988.8 NA 0.0000 -SN BR 4200 300 0 0 0
2019/10/25 02:25:00 BASE 22.45 12 27.01 23 2.4 100 2.4 0 0 988.7 NA 0.0000 -SN BR 3600 300 0 0 0
2019/10/25 02:26:00 BASE 22.61 11 27.01 23 2.3 100 2.3 0 0 988.7 NA 0.2540 -SN BR 3300 0 0 0 1350
2019/10/25 02:27:00 BASE 22.35 12 26.91 22 2.3 100 2.3 0 0 988.7 NA 0.0000 -SN BR 3500 260 0 0 0
2019/10/25 02:28:00 BASE 22.88 15 25.21 12 2.2 100 2.2 0 0 988.6 NA 0.0000 -SN BR 3300 330 0 0 0
2019/10/25 02:29:00 BASE 22.22 17 25.21 12 2.1 100 2.1 0 0 988.6 NA 0.2540 -SN BR 3000 300 0 0 0
2019/10/25 02:30:00 BASE 21.44 17 25.21 12 2.0 100 2.0 0 0 988.6 NA 0.0000 -SN BR 3100 0 0 0 1440
2019/10/25 02:31:00 BASE 22.46 16 25.21 12 2.0 100 2.0 0 0 988.5 NA 0.0000 -SN BR 3100 360 0 0 0
2019/10/25 02:32:00 BASE 22.66 16 25.21 12 2.0 100 2.0 0 0 988.5 NA 0.0000 -SN BR 3500 390 0 0 0
2019/10/25 02:33:00 BASE 21.52 18 25.21 12 2.0 100 2.0 0 0 988.5 NA 0.0000 -SN BR 4100 390 0 0 0
2019/10/25 02:34:00 BASE 21.54 20 25.21 12 2.0 100 2.0 0 0 988.5 NA 0.2540 -SN BR 6000 390 0 0 0
2019/10/25 02:35:00 BASE 21.25 20 24.74 19 2.0 100 2.0 0 0 988.5 NA 0.0000 -SN BR 4800 390 0 0 0
2019/10/25 02:36:00 BASE 19.75 21 24.74 19 2.0 100 2.0 0 0 988.5 NA 0.0000 -SN BR 5000 360 0 0 0
2019/10/25 02:37:00 BASE 19.90 23 24.74 19 2.0 100 2.0 0 0 988.4 NA 0.0000 -SN BR 6000 0 0 0 4270
2019/10/25 02:38:00 BASE 21.80 22 24.74 19 2.0 100 2.0 0 0 988.3 NA 0.0000 -SN BR 9999 0 0 0 5540
2019/10/25 02:39:00 BASE 22.72 22 25.21 31 2.1 100 2.1 0 0 988.3 NA 0.0000 -SN BR 9999 720 0 0 0
2019/10/25 02:40:00 BASE 23.24 25 27.27 33 2.1 100 2.1 0 0 988.2 NA 0.0000 -SN BR 9999 0 0 0 1080
2019/10/25 02:41:00 BASE 23.68 26 27.27 33 2.1 100 2.1 0 0 988.3 NA 0.0000 -SN BR 9999 0 0 0 1120
2019/10/25 02:42:00 BASE 23.12 24 27.27 33 2.2 100 2.2 0 0 988.3 NA 0.0000 -SN BR 9999 0 0 0 5050
2019/10/25 02:43:00 BASE 21.83 23 27.27 33 2.2 100 2.2 0 0 988.4 NA 0.0000 -SN BR 9999 690 0 0 0
2019/10/25 02:44:00 BASE 21.07 24 27.27 33 2.2 100 2.2 0 0 988.3 NA 0.0000 -SN BR 9999 690 0 0 0
2019/10/25 02:45:00 BASE 22.43 22 27.27 33 2.2 100 2.2 0 0 988.2 NA 0.0000 -SN BR 6000 0 0 0 6890
2019/10/25 02:46:00 BASE 23.56 21 27.27 33 2.2 100 2.2 0 0 988.2 NA 0.0000 -SN 9999 0 0 0 4000
2019/10/25 02:47:00 BASE 22.85 20 27.27 33 2.2 100 2.2 0 0 988.3 NA 0.0000 -SN 9999 0 0 0 3610
2019/10/25 02:48:00 BASE 22.64 21 27.27 33 2.2 100 2.2 0 0 988.3 NA 0.0000 -SN 9999 0 0 0 6630
2019/10/25 02:49:00 BASE 22.96 22 27.27 33 2.2 100 2.2 0 0 988.3 NA 0.0000 -SN 9999 0 0 0 4400
2019/10/25 02:50:01 BASE 21.91 22 26.91 30 2.2 100 2.2 0 0 988.3 NA 0.0000 -SN 9999 2030 0 0 0
2019/10/25 02:51:00 BASE 20.48 22 26.85 24 2.2 100 2.2 0 0 988.4 NA 0.0000 -SN 9999 590 0 0 0
2019/10/25 02:52:00 BASE 21.09 21 26.85 24 2.2 100 2.2 0 0 988.4 NA 0.0000 -SN 9000 560 0 0 0
2019/10/25 02:53:00 BASE 22.35 20 26.85 24 2.2 100 2.2 0 0 988.4 NA 0.0000 -SN 5000 520 0 0 0
2019/10/25 02:54:00 BASE 21.76 20 26.85 24 2.2 100 2.2 0 0 988.5 NA 0.0000 -SN BR 7000 560 0 0 0
2019/10/25 02:55:00 BASE 20.99 21 26.08 16 2.1 100 2.1 0 0 988.5 NA 0.0000 -SN BR 6000 460 0 0 0
2019/10/25 02:56:00 BASE 20.58 21 25.88 31 2.1 100 2.1 0 0 988.5 NA 0.0000 -SN BR 6000 460 0 0 0
2019/10/25 02:57:00 BASE 21.10 19 25.88 31 2.0 100 2.0 0 0 988.5 NA 0.0000 -SN BR 7000 520 0 0 0
2019/10/25 02:58:00 BASE 21.72 20 24.33 20 2.0 100 2.0 0 0 988.5 NA 0.0000 -SN BR 4500 430 0 0 0
2019/10/25 02:59:00 BASE 22.13 20 26.55 20 2.0 100 2.0 0 0 988.5 NA 0.0000 -SN BR 3600 360 0 0 0
2019/10/25 03:00:00 BASE 23.67 21 26.55 23 2.0 100 2.0 0 0 988.5 NA 0.0000 -SN BR 3000 330 0 0 0
2019/10/25 03:01:00 BASE 24.68 23 28.35 25 1.9 100 1.9 0 0 988.5 NA 0.2540 -SN BR 2400 300 0 0 0
2019/10/25 03:02:00 BASE 24.16 24 28.35 25 1.9 100 1.9 0 0 988.6 NA 0.0000 -SN BR 3100 330 0 0 0
2019/10/25 03:03:00 BASE 24.58 22 28.50 20 1.8 100 1.8 0 0 988.6 NA 0.0000 -SN BR 4100 360 0 0 0
2019/10/25 03:04:01 BASE 25.52 21 28.50 20 1.8 100 1.8 0 0 988.6 NA 0.0000 -SN BR 3300 260 0 0 0
2019/10/25 03:05:01 BASE 24.71 19 28.50 20 1.7 100 1.7 0 0 988.6 NA 0.0000 -SN BR 2600 230 0 0 0
2019/10/25 03:06:01 BASE 23.46 15 28.50 20 1.7 100 1.7 0 0 988.7 NA 0.2540 -SN BR 2900 260 0 0 0
2019/10/25 03:07:00 BASE 22.46 15 28.50 20 1.6 100 1.6 0 0 988.7 NA 0.0000 -SN BR 3200 0 0 0 1150
2019/10/25 03:08:00 BASE 24.63 18 28.65 23 1.5 100 1.5 0 0 988.5 NA 0.0000 -SN BR 2300 260 0 0 0
2019/10/25 03:09:00 BASE 26.79 18 28.65 23 1.5 100 1.5 0 0 988.5 NA 0.0000 -SN BR 1300 0 0 0 1120
2019/10/25 03:10:00 BASE 25.42 17 28.65 23 1.4 100 1.4 0 0 988.6 NA 0.0000 -SN BR 1400 0 0 0 1080
2019/10/25 03:11:00 BASE 25.03 17 29.37 14 1.4 100 1.4 0 0 988.6 NA 0.2540 -SN BR 1600 0 0 0 1120
2019/10/25 03:12:00 BASE 25.41 20 29.37 14 1.3 100 1.3 0 0 988.6 NA 0.0000 -SN BR 1200 0 0 0 1050
2019/10/25 03:13:00 BASE 25.03 22 29.37 14 1.3 100 1.3 0 0 988.6 NA 0.0000 -SN BR 1500 200 0 0 0
2019/10/25 03:14:01 BASE 25.45 22 29.37 14 1.3 100 1.2 0 0 988.5 NA 0.0000 -SN BR 1200 0 0 0 950
2019/10/25 03:15:00 BASE 25.60 20 29.37 14 1.2 100 1.2 0 0 988.5 NA 0.2540 -SN BR 1100 0 0 0 950
2019/10/25 03:16:00 BASE 24.68 18 29.37 14 1.2 100 1.2 0 0 988.5 NA 0.0000 -SN BR 1200 0 0 0 980
2019/10/25 03:17:00 BASE 24.67 20 29.37 14 1.1 100 1.1 0 0 988.5 NA 0.0000 -SN BR 1300 0 0 0 950
2019/10/25 03:18:00 BASE 24.72 23 29.37 14 1.1 100 1.1 0 0 988.5 NA 0.0000 -SN BR 1800 0 0 0 950
2019/10/25 03:19:00 BASE 23.81 22 29.37 14 1.1 100 1.1 0 0 988.6 NA 0.2540 -SN BR 1200 0 0 0 1050
2019/10/25 03:20:00 BASE 22.90 20 29.37 14 1.1 100 1.1 0 0 988.6 NA 0.0000 -SN BR 1300 0 0 0 1120
2019/10/25 03:21:00 BASE 23.43 21 28.04 28 1.1 100 1.1 0 0 988.5 NA 0.0000 -SN BR 1600 0 0 0 1050
2019/10/25 03:22:00 BASE 24.89 23 28.04 28 1.0 100 1.0 0 0 988.5 NA 0.0000 -SN BR 1300 0 0 0 1080
2019/10/25 03:23:01 BASE 25.62 25 28.91 23 1.0 100 1.0 0 0 988.4 NA 0.0000 -SN BR 1400 0 0 0 1410
2019/10/25 03:24:00 BASE 25.79 24 29.27 22 1.0 100 1.0 0 0 988.3 NA 0.2540 -SN BR 2000 0 0 0 1350
2019/10/25 03:25:00 BASE 24.91 24 29.27 22 1.0 100 1.0 0 0 988.4 NA 0.0000 -SN BR 1700 0 0 0 1350
2019/10/25 03:26:00 BASE 24.41 24 29.27 22 1.0 100 1.0 0 0 988.4 NA 0.0000 -SN BR 1200 0 0 0 1310
2019/10/25 03:27:00 BASE 25.67 24 29.27 22 1.0 100 1.0 0 0 988.3 NA 0.0000 -SN BR 1100 0 0 0 1080
2019/10/25 03:28:00 BASE 26.33 25 29.27 22 1.0 100 1.0 0 0 988.4 NA 0.0000 -SN BR 0800 0 0 0 1050
2019/10/25 03:29:00 BASE 26.10 25 29.27 22 1.0 100 1.0 0 0 988.4 NA 0.0000 -SN BR 0900 0 0 0 890
2019/10/25 03:30:00 BASE 25.73 28 29.27 22 0.9 100 0.9 0 0 988.4 NA 0.0000 -SN BR 0700 0 0 0 790
2019/10/25 03:31:00 BASE 24.11 28 29.27 22 0.9 100 0.9 0 0 988.5 NA 0.2540 +SN BR 0750 0 0 0 2230
2019/10/25 03:32:00 BASE 23.07 26 29.27 22 0.9 100 0.9 0 0 988.5 NA 0.0000 -SN BR 2000 260 0 0 0
2019/10/25 03:33:00 BASE 22.84 25 29.27 22 0.9 100 0.9 0 0 988.5 NA 0.0000 -SN BR 4000 260 0 0 0
2019/10/25 03:34:00 BASE 21.78 26 28.96 24 0.9 100 0.9 0 0 988.5 NA 0.0000 -SN BR 3500 200 0 0 0
2019/10/25 03:35:00 BASE 21.53 26 28.96 24 1.0 100 1.0 0 0 988.5 NA 0.0000 -SN BR 2400 0 0 0 1080
2019/10/25 03:36:00 BASE 22.37 28 28.96 24 1.0 100 1.0 0 0 988.4 NA 0.2540 -SN BR 2000 0 0 0 980
2019/10/25 03:37:00 BASE 23.39 27 28.96 24 1.0 100 1.0 0 0 988.4 NA 0.0000 -SN BR 1100 0 0 0 1020
2019/10/25 03:38:00 BASE 24.41 25 28.65 34 1.0 100 1.0 0 0 988.3 NA 0.0000 -SN BR 1100 0 0 0 1020
2019/10/25 03:39:00 BASE 24.44 24 28.60 25 1.0 100 1.0 0 0 988.3 NA 0.0000 -SN BR 1100 0 0 0 1020
2019/10/25 03:40:00 BASE 23.81 25 28.55 29 1.0 100 1.0 0 0 988.3 NA 0.0000 -SN BR 1400 0 0 0 950
2019/10/25 03:41:01 BASE 24.00 24 28.55 29 0.9 100 0.9 0 0 988.2 NA 0.0000 -SN BR 1200 0 0 0 920
2019/10/25 03:42:00 BASE 23.63 22 28.55 29 0.9 100 0.9 0 0 988.2 NA 0.0000 -SN BR 1200 0 0 0 1020
2019/10/25 03:43:00 BASE 22.68 24 28.55 29 0.9 100 0.9 0 0 988.2 NA 0.2540 -SN BR 1900 0 0 0 1380
2019/10/25 03:44:00 BASE 22.69 23 28.55 29 1.0 100 1.0 0 0 988.1 NA 0.0000 -SN BR 2100 0 0 0 1280
2019/10/25 03:45:00 BASE 21.42 24 28.55 29 1.0 100 1.0 0 0 988.2 NA 0.0000 -SN BR 2400 0 0 0 1380
2019/10/25 03:46:00 BASE 20.64 26 28.55 29 1.0 100 1.0 0 0 988.2 NA 0.0000 -SN BR 3100 0 0 0 1350
2019/10/25 03:47:00 BASE 21.17 24 26.75 16 1.0 100 1.0 0 0 988.1 NA 0.0000 -SN BR 2700 0 0 0 1670
2019/10/25 03:48:00 BASE 21.61 23 26.75 16 1.0 100 1.0 0 0 988.1 NA 0.0000 -SN BR 3800 260 0 0 0
2019/10/25 03:49:00 BASE 21.34 25 26.75 16 1.0 100 1.0 0 0 988.1 NA 0.2540 -SN BR 8000 0 0 0 2260
2019/10/25 03:50:00 BASE 20.66 26 26.75 16 1.1 100 1.1 0 0 988.1 NA 0.0000 -SN BR 5000 0 0 0 2530
2019/10/25 03:51:00 BASE 21.21 24 26.75 16 1.1 100 1.1 0 0 988.0 NA 0.0000 -SN BR 8000 0 0 0 6270
2019/10/25 03:52:00 BASE 21.81 23 25.77 25 1.1 100 1.1 0 0 988.0 NA 0.0000 -SN BR 9999 0 0 0 5180
2019/10/25 03:53:00 BASE 22.74 23 25.77 25 1.1 100 1.1 0 0 987.9 NA 0.0000 -SN BR 9999 0 0 0 3080
2019/10/25 03:54:00 BASE 23.11 23 26.13 22 1.2 100 1.2 0 0 987.9 NA 0.0000 -SN BR 9999 0 0 0 2890
2019/10/25 03:55:00 BASE 23.18 22 26.13 22 1.2 100 1.2 0 0 987.9 NA 0.0000 -SN BR 9999 0 0 0 3940
2019/10/25 03:56:00 BASE 23.01 21 26.13 22 1.2 100 1.2 0 0 988.0 NA 0.0000 -SN BR 9999 0 0 0 3280
2019/10/25 03:57:00 BASE 22.75 21 26.13 22 1.2 100 1.2 0 0 987.9 NA 0.0000 -SN BR 9999 0 0 0 3350
2019/10/25 03:58:00 BASE 23.20 23 26.13 22 1.2 100 1.2 0 0 987.9 NA 0.0000 -SN 9999 0 0 0 2790
2019/10/25 03:59:00 BASE 24.25 23 28.35 24 1.2 100 1.2 0 0 987.8 NA 0.0000 -SN 9999 0 0 0 3410
2019/10/25 04:00:00 BASE 26.57 25 33.85 29 1.2 100 1.2 0 0 987.7 NA 0.0000 -SN 5000 0 0 0 5180
2019/10/25 04:01:12 BASE 28.31 27 33.85 29 1.2 100 1.2 0 0 987.6 NA 0.0000 -SN BR 3200 0 0 0 3250
2019/10/25 04:02:00 BASE 27.47 28 33.85 29 1.2 100 1.2 0 0 987.7 NA 0.0000 -SN BR 2400 0 0 0 3120
2019/10/25 04:03:00 BASE 26.91 30 33.85 29 1.2 100 1.2 0 0 987.7 NA 0.0000 -SN BR 2700 0 0 0 2460
2019/10/25 04:04:00 BASE 27.51 26 33.85 29 1.1 100 1.1 0 0 987.7 NA 0.0000 -SN BR 2500 300 0 0 0
2019/10/25 04:05:00 BASE 27.04 23 33.85 29 1.1 100 1.1 0 0 987.7 NA 0.0000 -SN BR 3100 330 0 0 0
2019/10/25 04:06:00 BASE 25.41 25 33.85 29 1.1 100 1.1 0 0 987.9 NA 0.0000 -SN BR 6000 0 0 0 4950
2019/10/25 04:07:00 BASE 23.96 29 33.85 29 1.1 100 1.1 0 0 987.8 NA 0.0000 -SN BR 5000 0 0 0 4230
2019/10/25 04:08:00 BASE 23.98 30 33.85 29 1.1 100 1.1 0 0 987.9 NA 0.0000 -SN BR 5000 0 0 0 4630
2019/10/25 04:09:00 BASE 24.81 30 33.85 29 1.1 100 1.1 0 0 987.8 NA 0.0000 -SN BR 6000 0 0 0 4760
2019/10/25 04:10:00 BASE 24.48 28 31.43 26 1.1 100 1.1 0 0 987.9 NA 0.0000 -SN BR 7000 10110 0 0 0
2019/10/25 04:11:00 BASE 24.55 28 29.58 32 1.1 100 1.1 0 0 987.8 NA 0.0000 -SN BR 9999 0 0 0 3380
2019/10/25 04:12:00 BASE 24.31 28 29.37 34 1.1 100 1.1 0 0 987.9 NA 0.0000 -SN BR 8000 0 0 0 3510
2019/10/25 04:13:00 BASE 23.43 22 28.96 26 1.1 100 1.1 0 0 987.9 NA 0.0000 -SN BR 8000 0 0 0 3710
2019/10/25 04:14:00 BASE 22.55 24 28.76 25 1.1 100 1.1 0 0 988.0 NA 0.0000 -SN BR 9999 0 0 0 3510
2019/10/25 04:15:00 BASE 19.82 28 28.35 28 1.2 100 1.2 0 0 988.1 NA 0.0000 -SN BR 9999 0 0 0 1080
2019/10/25 04:16:00 BASE 19.19 27 28.35 28 1.2 100 1.2 0 0 988.0 NA 0.0000 -SN BR 9999 0 0 0 0
2019/10/25 04:17:00 BASE 21.58 28 28.35 28 1.2 100 1.2 0 0 987.9 NA 0.0000 -SN BR 9999 0 0 0 0
2019/10/25 04:18:00 BASE 23.62 29 28.35 28 1.2 100 1.2 0 0 987.9 NA 0.0000 -SN 9999 0 0 0 0
2019/10/25 04:19:00 BASE 23.62 26 28.35 28 1.2 100 1.2 0 0 987.9 NA 0.0000 -SN 9999 12210 0 0 0
2019/10/25 04:20:00 BASE 22.27 24 28.35 28 1.2 100 1.2 0 0 987.9 NA 0.0000 -SN 9999 0 0 0 0
2019/10/25 04:21:00 BASE 22.41 23 28.04 21 1.3 100 1.3 0 0 987.9 NA 0.0000 -SN 9999 0 0 0 0
2019/10/25 04:22:00 BASE 21.46 22 28.04 21 1.3 100 1.3 0 0 988.1 NA 0.0000 -SN 9999 0 0 0 0
2019/10/25 04:23:00 BASE 21.75 22 26.85 26 1.3 100 1.3 0 0 987.9 NA 0.0000 -SN 9999 0 0 0 0
2019/10/25 04:24:00 BASE 24.10 21 26.85 26 1.3 100 1.3 0 0 987.9 NA 0.0000 9999 0 0 0 0
2019/10/25 04:25:00 BASE 23.72 20 26.85 26 1.3 100 1.3 0 0 987.9 NA 0.0000 9999 4860 0 0 0
2019/10/25 04:26:00 BASE 23.04 21 26.85 26 1.3 100 1.3 0 0 987.8 NA 0.0000 9999 4430 0 0 0
2019/10/25 04:27:00 BASE 23.87 22 26.85 26 1.3 100 1.3 0 0 987.7 NA 0.0000 9999 4790 0 0 0
2019/10/25 04:28:00 BASE 25.18 23 28.40 24 1.3 100 1.3 0 0 987.6 NA 0.0000 9999 6860 0 0 0
2019/10/25 04:29:00 BASE 25.89 25 29.84 31 1.3 100 1.3 0 0 987.6 NA 0.0000 9999 6820 0 0 0
2019/10/25 04:30:00 BASE 25.22 24 29.84 31 1.3 100 1.3 0 0 987.6 NA 0.0000 9999 6590 0 0 0
2019/10/25 04:31:00 BASE 24.65 21 29.84 31 1.3 100 1.3 0 0 987.6 NA 0.0000 9999 6590 0 0 0
2019/10/25 04:32:00 BASE 24.43 21 29.84 31 1.3 100 1.3 0 0 987.6 NA 0.0000 9999 6860 0 0 0
2019/10/25 04:33:00 BASE 24.15 23 29.84 31 1.3 100 1.3 0 0 987.7 NA 0.0000 9999 6430 0 0 0
2019/10/25 04:34:00 BASE 24.11 25 29.84 31 1.2 100 1.2 0 0 987.7 NA 0.0000 9999 5970 0 0 0
2019/10/25 04:35:00 BASE 24.02 22 29.84 31 1.2 100 1.2 0 0 987.7 NA 0.0000 9999 6370 0 0 0
2019/10/25 04:36:00 BASE 24.42 19 31.23 22 1.2 100 1.2 0 0 987.7 NA 0.0000 9999 6630 0 0 0
2019/10/25 04:37:00 BASE 25.36 18 31.23 22 1.2 100 1.2 0 0 987.6 NA 0.0000 9999 0 0 0 0
2019/10/25 04:38:00 BASE 25.42 16 31.23 22 1.2 100 1.2 0 0 987.7 NA 0.0000 9999 0 0 0 0
2019/10/25 04:39:00 BASE 24.52 14 31.23 22 1.2 100 1.2 0 0 987.7 NA 0.0000 9999 0 0 0 0
2019/10/25 04:40:00 BASE 23.27 14 31.23 22 1.2 100 1.2 0 0 987.8 NA 0.0000 9999 0 0 0 0
2019/10/25 04:41:00 BASE 23.44 12 31.23 22 1.3 100 1.3 0 0 987.8 NA 0.0000 9999 0 0 0 0
2019/10/25 04:42:00 BASE 23.83 11 31.23 22 1.3 100 1.3 0 0 987.8 NA 0.0000 9999 0 0 0 0
2019/10/25 04:43:00 BASE 23.24 14 31.23 22 1.2 100 1.2 0 0 987.8 NA 0.0000 9999 0 0 0 0
2019/10/25 04:44:00 BASE 23.35 14 31.23 22 1.2 100 1.2 0 0 987.9 NA 0.0000 9999 13160 0 0 0
2019/10/25 04:45:00 BASE 22.87 10 31.23 22 1.2 100 1.2 0 0 987.9 NA 0.0000 9999 0 0 0 2200
2019/10/25 04:46:00 BASE 23.58 12 29.84 22 1.2 100 1.2 0 0 987.8 NA 0.0000 6000 300 1210 0 0
2019/10/25 04:47:00 BASE 24.58 14 26.65 21 1.2 100 1.2 0 0 987.8 NA 0.0000 -SN 3900 300 0 0 0
2019/10/25 04:48:00 BASE 23.48 15 26.65 21 1.2 100 1.2 0 0 987.8 NA 0.0000 -SN BR 3600 330 0 0 0
2019/10/25 04:49:00 BASE 23.25 16 27.27 19 1.1 100 1.1 0 0 987.7 NA 0.0000 -SN BR 7000 300 0 0 0
2019/10/25 04:50:00 BASE 24.36 17 27.27 19 1.1 100 1.1 0 0 987.8 NA 0.0000 -SN BR 3600 0 0 0 3150
2019/10/25 04:51:00 BASE 24.88 16 27.57 17 1.0 100 1.0 0 0 987.8 NA 0.0000 -SN BR 2600 200 0 0 0
2019/10/25 04:52:00 BASE 25.06 16 27.57 17 1.0 100 1.0 0 0 987.8 NA 0.0000 -SN BR 5000 300 0 0 0
2019/10/25 04:53:00 BASE 24.80 17 27.57 17 1.0 100 1.0 0 0 987.8 NA 0.0000 -SN BR 3500 300 2690 0 0
2019/10/25 04:54:00 BASE 24.44 14 27.57 17 1.0 100 1.0 0 0 987.9 NA 0.0000 -SN BR 9999 430 2690 0 0
2019/10/25 04:55:00 BASE 25.17 14 27.83 12 1.0 100 1.0 0 0 987.8 NA 0.0000 -SN BR 9999 1120 0 0 0
2019/10/25 04:56:00 BASE 24.83 18 27.83 12 1.0 100 1.0 0 0 988.0 NA 0.0000 -SN BR 9999 0 0 0 3250
2019/10/25 04:57:00 BASE 23.24 19 27.83 12 1.0 100 1.0 0 0 988.0 NA 0.0000 -SN BR 9999 920 0 0 0
2019/10/25 04:58:00 BASE 23.22 19 27.83 12 1.0 100 1.0 0 0 988.0 NA 0.0000 -SN BR 9999 790 0 0 0
2019/10/25 04:59:00 BASE 23.72 21 27.83 12 1.0 100 1.0 0 0 988.0 NA 0.0000 -SN BR 9999 950 0 0 0
2019/10/25 05:00:00 BASE 22.70 22 27.83 12 1.0 100 1.0 0 0 988.1 NA 0.0000 -SN BR 9999 0 0 0 3280
2019/10/25 05:01:01 BASE 22.37 22 27.83 12 1.1 100 1.1 0 0 988.0 NA 0.0000 -SN BR 9999 1120 0 0 0
2019/10/25 05:02:00 BASE 23.26 22 27.83 12 1.1 100 1.1 0 0 988.0 NA 0.0000 -SN 9999 460 0 0 0
2019/10/25 05:03:00 BASE 24.08 25 28.04 31 1.1 100 1.1 0 0 988.0 NA 0.0000 -SN 5000 330 0 0 0
2019/10/25 05:04:00 BASE 23.79 26 28.04 31 1.1 100 1.1 0 0 988.0 NA 0.0000 -SN 9000 330 0 0 0
2019/10/25 05:05:00 BASE 22.91 25 28.04 31 1.1 100 1.1 0 0 988.0 NA 0.0000 -SN 9999 260 0 0 0
2019/10/25 05:06:00 BASE 23.35 25 28.04 31 1.2 100 1.2 0 0 988.0 NA 0.0000 -SN 6000 230 0 0 0
2019/10/25 05:07:00 BASE 24.11 25 28.04 31 1.2 100 1.2 0 0 987.9 NA 0.0000 -SN BR 6000 230 0 0 0
2019/10/25 05:08:00 BASE 23.18 26 28.04 31 1.2 100 1.2 0 0 988.0 NA 0.2540 -SN BR 5000 230 0 0 0
2019/10/25 05:09:00 BASE 22.53 24 28.04 31 1.2 100 1.2 0 0 988.0 NA 0.0000 -SN BR 8000 330 0 0 0
2019/10/25 05:10:00 BASE 23.47 23 28.04 31 1.2 100 1.2 0 0 987.9 NA 0.0000 -SN BR 9999 360 0 0 0
2019/10/25 05:11:00 BASE 23.99 22 28.04 31 1.2 100 1.2 0 0 987.9 NA 0.0000 -SN BR 6000 360 0 0 0
2019/10/25 05:12:00 BASE 24.65 20 28.04 31 1.2 100 1.2 0 0 987.8 NA 0.0000 -SN BR 9999 1150 0 0 0
2019/10/25 05:13:00 BASE 25.11 20 27.47 23 1.2 100 1.2 0 0 987.7 NA 0.0000 -SN BR 9999 0 0 0 6560
2019/10/25 05:14:00 BASE 25.61 19 27.57 24 1.2 100 1.2 0 0 987.6 NA 0.0000 -SN BR 9999 2300 0 0 0
2019/10/25 05:15:00 BASE 26.99 17 29.94 14 1.2 100 1.2 0 0 987.6 NA 0.0000 -SN BR 9999 0 0 0 1020
2019/10/25 05:16:00 BASE 26.26 16 29.94 14 1.2 100 1.2 0 0 987.7 NA 0.0000 -SN BR 9999 0 0 0 4000
2019/10/25 05:17:00 BASE 25.83 17 30.61 16 1.1 100 1.1 0 0 987.6 NA 0.0000 -SN 9999 0 0 0 6430
2019/10/25 05:18:00 BASE 27.31 16 30.61 16 1.1 100 1.1 0 0 987.5 NA 0.0000 -SN 9000 260 0 0 0
2019/10/25 05:19:00 BASE 26.43 17 30.61 16 1.1 100 1.1 0 0 987.6 NA 0.0000 -SN 5000 260 0 0 0
2019/10/25 05:20:00 BASE 26.03 17 30.61 16 1.0 100 1.0 0 0 987.5 NA 0.0000 -SN BR 4000 0 0 0 4590
2019/10/25 05:21:00 BASE 27.04 17 30.61 16 1.0 100 1.0 0 0 987.5 NA 0.0000 -SN BR 3700 0 0 0 3670
2019/10/25 05:22:00 BASE 26.95 16 30.61 16 1.0 100 1.0 0 0 987.5 NA 0.0000 -SN BR 4200 330 0 0 0
2019/10/25 05:23:00 BASE 26.90 16 30.61 16 1.0 100 1.0 0 0 987.5 NA 0.0000 -SN BR 8000 0 0 0 2990
2019/10/25 05:24:00 BASE 27.10 19 30.61 16 1.0 100 1.0 0 0 987.6 NA 0.0000 -SN BR 9999 0 0 0 560
2019/10/25 05:25:00 BASE 26.64 20 30.61 16 1.0 100 1.0 0 0 987.6 NA 0.0000 -SN BR 9999 3510 0 0 0
2019/10/25 05:26:00 BASE 25.41 21 30.61 16 1.0 100 1.0 0 0 987.6 NA 0.0000 -SN BR 9999 0 0 0 0
2019/10/25 05:27:00 BASE 23.93 23 30.09 26 1.0 100 1.0 0 0 987.6 NA 0.0000 -SN BR 9999 0 0 0 0
2019/10/25 05:28:00 BASE 24.11 24 30.09 26 1.1 100 1.1 0 0 987.6 NA 0.0000 -SN BR 9999 0 0 0 0
2019/10/25 05:29:00 BASE 25.68 23 29.94 17 1.1 100 1.1 0 0 987.5 NA 0.0000 -SN BR 9999 0 0 0 0
2019/10/25 05:30:00 BASE 26.43 22 29.94 17 1.1 100 1.1 0 0 987.5 NA 0.0000 -SN BR 9999 0 0 0 0
2019/10/25 05:31:00 BASE 26.65 21 29.37 20 1.1 100 1.1 0 0 987.5 NA 0.0000 -SN 9999 0 0 0 0
2019/10/25 05:32:00 BASE 25.55 18 29.37 20 1.1 100 1.1 0 0 987.6 NA 0.0000 -SN 9999 0 0 0 0
2019/10/25 05:33:00 BASE 25.57 17 29.63 17 1.1 100 1.1 0 0 987.5 NA 0.0000 9999 0 0 0 660
2019/10/25 05:34:00 BASE 27.38 17 29.63 17 1.1 100 1.1 0 0 987.4 NA 0.0000 9999 0 0 0 1150
2019/10/25 05:35:00 BASE 26.69 18 29.63 17 1.1 100 1.1 0 0 987.5 NA 0.0000 9999 0 0 0 620
2019/10/25 05:36:00 BASE 26.18 19 30.61 17 1.1 100 1.1 0 0 987.4 NA 0.0000 9999 0 0 0 520
2019/10/25 05:37:00 BASE 27.58 18 30.61 17 1.0 100 1.0 0 0 987.4 NA 0.0000 9999 0 0 0 520
2019/10/25 05:38:00 BASE 28.03 17 30.61 17 1.0 100 1.0 0 0 987.3 NA 0.0000 9999 0 0 0 590
2019/10/25 05:39:00 BASE 28.60 18 31.95 17 0.9 100 0.9 0 0 987.2 NA 0.0000 9999 0 0 0 560
2019/10/25 05:40:00 BASE 30.82 21 33.54 16 0.9 100 0.9 0 0 987.0 NA 0.0000 9999 0 0 0 490
2019/10/25 05:41:00 BASE 31.44 20 33.54 16 0.9 100 0.9 0 0 987.1 NA 0.0000 9999 4270 0 0 0
2019/10/25 05:42:00 BASE 31.61 20 34.93 24 0.9 100 0.9 0 0 987.0 NA 0.0000 9999 0 0 0 0
2019/10/25 05:43:00 BASE 31.84 20 34.93 24 0.9 100 0.9 0 0 987.0 NA 0.0000 9999 5450 0 0 0
2019/10/25 05:44:00 BASE 31.23 19 34.93 24 0.9 100 0.9 0 0 987.0 NA 0.0000 9999 0 0 0 0
2019/10/25 05:45:00 BASE 30.32 19 34.93 24 0.9 100 0.9 0 0 987.2 NA 0.0000 9999 0 0 0 230
2019/10/25 05:46:00 BASE 28.78 17 34.93 24 0.9 100 0.9 0 0 987.3 NA 0.0000 9999 5810 0 0 0
2019/10/25 05:47:00 BASE 28.17 17 34.93 24 0.9 100 0.9 0 0 987.3 NA 0.0000 9999 6230 0 0 0
2019/10/25 05:48:00 BASE 27.52 17 34.93 24 0.8 100 0.8 0 0 987.3 NA 0.0000 9999 0 0 0 0
2019/10/25 05:49:00 BASE 26.54 19 34.93 24 0.8 100 0.8 0 0 987.4 NA 0.0000 9999 0 0 0 490
2019/10/25 05:50:00 BASE 27.02 20 34.93 24 0.8 100 0.8 0 0 987.3 NA 0.0000 9999 0 0 0 590
2019/10/25 05:51:00 BASE 28.23 21 34.93 24 0.8 100 0.8 0 0 987.2 NA 0.0000 9999 0 0 0 520
2019/10/25 05:52:00 BASE 28.79 21 33.39 16 0.8 100 0.8 0 0 987.2 NA 0.0000 9999 0 0 0 0
2019/10/25 05:53:00 BASE 29.21 21 33.39 16 0.8 100 0.8 0 0 987.2 NA 0.0000 9999 0 0 0 490
2019/10/25 05:54:00 BASE 28.94 21 32.00 20 0.8 100 0.8 0 0 987.1 NA 0.0000 9999 0 0 0 0
2019/10/25 05:55:00 BASE 28.41 23 32.00 20 0.8 100 0.8 0 0 987.1 NA 0.0000 9999 0 0 0 0
2019/10/25 05:56:00 BASE 27.54 24 32.00 20 0.8 100 0.8 0 0 987.2 NA 0.0000 9999 0 0 0 230
2019/10/25 05:57:00 BASE 27.57 24 32.36 26 0.8 100 0.8 0 0 987.2 NA 0.0000 9999 0 0 0 0
2019/10/25 05:58:00 BASE 28.90 24 32.36 26 0.8 100 0.8 0 0 987.1 NA 0.0000 9999 0 0 0 330
2019/10/25 05:59:00 BASE 28.76 23 32.36 26 0.8 100 0.8 0 0 987.1 NA 0.0000 9999 0 0 0 0
2019/10/25 06:00:00 BASE 28.12 22 32.36 26 0.8 100 0.8 0 0 987.1 NA 0.0000 9999 0 0 0 0
2019/10/25 06:01:00 BASE 27.76 22 32.36 26 0.8 100 0.8 0 0 987.1 NA 0.0000 9999 0 0 0 0
2019/10/25 06:02:00 BASE 28.03 24 32.36 26 0.8 100 0.8 0 0 987.1 NA 0.0000 9999 0 0 0 0
2019/10/25 06:03:00 BASE 27.32 25 32.36 26 0.8 100 0.8 0 0 987.1 NA 0.0000 9999 0 0 0 0
2019/10/25 06:04:00 BASE 26.14 26 32.36 26 0.8 100 0.8 0 0 987.1 NA 0.0000 9999 0 0 0 0
2019/10/25 06:05:00 BASE 26.29 28 32.36 26 0.8 100 0.8 0 0 987.1 NA 0.0000 9999 0 0 0 0
2019/10/25 06:06:00 BASE 26.33 29 32.36 26 0.8 100 0.8 0 0 987.1 NA 0.0000 9999 0 0 0 0
2019/10/25 06:07:00 BASE 25.68 27 32.26 30 0.8 100 0.8 0 0 987.2 NA 0.0000 9999 0 0 0 0
2019/10/25 06:08:00 BASE 26.48 24 31.64 26 0.8 100 0.8 0 0 987.1 NA 0.0000 9999 0 0 0 0
2019/10/25 06:09:00 BASE 27.39 22 31.64 26 0.8 100 0.8 0 0 987.2 NA 0.0000 9999 0 0 0 0
2019/10/25 06:10:00 BASE 26.99 22 31.64 26 0.8 100 0.8 0 0 987.2 NA 0.0000 9999 0 0 0 0
2019/10/25 06:11:00 BASE 27.67 25 31.64 26 0.8 100 0.8 0 0 987.2 NA 0.0000 9999 0 0 0 0
2019/10/25 06:12:00 BASE 29.47 24 33.90 25 0.8 100 0.8 0 0 987.1 NA 0.0000 9999 8330 0 0 0
2019/10/25 06:13:00 BASE 30.55 22 33.90 25 0.8 100 0.8 0 0 987.0 NA 0.0000 9999 8370 0 0 0
2019/10/25 06:14:00 BASE 30.79 23 33.90 25 0.9 100 0.9 0 0 987.0 NA 0.0000 9999 5150 0 0 0
2019/10/25 06:15:00 BASE 30.99 22 33.90 25 0.9 100 0.9 0 0 987.0 NA 0.0000 UP 9999 5150 0 0 0
2019/10/25 06:16:00 BASE 31.81 21 35.03 25 0.9 100 0.9 0 0 987.0 NA 0.0000 UP 9999 4360 0 0 0
2019/10/25 06:17:00 BASE 32.51 21 35.03 25 0.9 100 0.9 0 0 987.0 NA 0.0000 UP 9999 3670 0 0 0
2019/10/25 06:18:00 BASE 31.34 22 35.03 25 0.9 100 0.9 0 0 987.1 NA 0.0000 UP 9999 3510 0 0 0
2019/10/25 06:19:00 BASE 30.38 22 35.03 25 0.9 100 0.9 0 0 987.1 NA 0.0000 UP 9999 3710 0 0 0
2019/10/25 06:20:00 BASE 29.63 21 35.03 25 0.9 100 0.9 0 0 987.2 NA 0.0000 UP 9999 2890 0 0 0
2019/10/25 06:21:00 BASE 28.00 23 35.03 25 0.9 100 0.9 0 0 987.2 NA 0.0000 UP 9999 3380 0 0 0
2019/10/25 06:22:00 BASE 27.43 23 35.03 25 0.9 100 0.9 0 0 987.2 NA 0.0000 UP 9999 4040 0 0 0
2019/10/25 06:23:00 BASE 28.15 21 35.03 25 0.9 100 0.9 0 0 987.3 NA 0.0000 UP 9999 0 0 0 0
2019/10/25 06:24:00 BASE 28.05 21 35.03 25 0.9 100 0.9 0 0 987.3 NA 0.0000 UP 9999 0 0 0 0
2019/10/25 06:25:00 BASE 26.39 21 35.03 25 0.9 100 0.9 0 0 987.4 NA 0.0000 UP 9999 0 0 0 0
2019/10/25 06:26:00 BASE 25.63 22 34.42 25 0.9 100 0.9 0 0 987.3 NA 0.0000 UP 9999 3740 0 0 0
2019/10/25 06:27:00 BASE 26.09 21 32.31 16 0.9 100 0.9 0 0 987.4 NA 0.0000 UP 9999 1900 3870 0 0
2019/10/25 06:28:00 BASE 25.39 23 32.31 16 1.0 100 1.0 0 0 987.3 NA 0.0000 UP 9999 4170 0 0 0
2019/10/25 06:29:00 BASE 25.64 25 32.31 16 1.0 100 1.0 0 0 987.2 NA 0.0000 UP 9999 0 0 0 980
2019/10/25 06:30:00 BASE 27.01 24 30.35 26 1.0 100 1.0 0 0 987.2 NA 0.0000 UP 9999 3670 0 0 0
2019/10/25 06:31:00 BASE 27.27 24 30.92 25 1.0 100 1.0 0 0 987.1 NA 0.0000 UP 9999 0 0 0 2400
2019/10/25 06:32:00 BASE 27.22 24 30.92 25 1.0 100 1.0 0 0 987.2 NA 0.0000 UP 9999 0 0 0 0
2019/10/25 06:33:00 BASE 26.30 24 30.92 25 1.0 100 1.0 0 0 987.2 NA 0.0000 UP 9999 0 0 0 0
2019/10/25 06:34:00 BASE 26.19 25 30.92 25 1.0 100 1.0 0 0 987.1 NA 0.0000 UP 9999 0 0 0 0
2019/10/25 06:35:00 BASE 27.17 26 30.97 23 1.0 100 1.0 0 0 987.2 NA 0.0000 UP 9999 0 0 0 0
2019/10/25 06:36:00 BASE 28.16 27 31.84 34 1.0 100 1.0 0 0 987.1 NA 0.0000 UP 9999 0 0 0 0
2019/10/25 06:37:00 BASE 28.50 27 31.84 34 1.0 100 1.0 0 0 987.2 NA 0.0000 UP 9999 0 0 0 0
2019/10/25 06:38:00 BASE 28.14 24 31.84 34 1.0 100 1.0 0 0 987.2 NA 0.0000 UP 9999 0 0 0 3580
2019/10/25 06:39:01 BASE 28.20 23 31.84 34 1.0 100 1.0 0 0 987.2 NA 0.0000 UP 9999 390 0 0 0
2019/10/25 06:40:00 BASE 27.51 21 31.84 34 1.0 100 1.0 0 0 987.3 NA 0.0000 UP 9999 0 0 0 3770
2019/10/25 06:41:00 BASE 29.05 21 32.98 15 1.0 100 1.0 0 0 987.1 NA 0.0000 UP 9999 0 0 0 1180
2019/10/25 06:42:01 BASE 30.55 22 33.23 21 1.0 100 1.0 0 0 987.1 NA 0.0000 UP 9999 0 0 0 0
2019/10/25 06:43:00 BASE 29.39 23 33.23 21 1.0 100 1.0 0 0 987.1 NA 0.0000 UP 9999 0 0 0 0
2019/10/25 06:44:00 BASE 28.37 22 33.23 21 1.0 100 1.0 0 0 987.1 NA 0.0000 UP 9999 0 0 0 0
2019/10/25 06:45:00 BASE 27.51 23 33.23 21 1.0 100 1.0 0 0 987.2 NA 0.0000 UP 9999 0 0 0 0
2019/10/25 06:46:01 BASE 27.59 25 33.23 21 1.0 100 1.0 0 0 987.1 NA 0.0000 UP 9999 0 0 0 0
2019/10/25 06:47:00 BASE 27.14 27 33.23 21 1.0 100 1.0 0 0 987.2 NA 0.0000 UP 9999 0 0 0 0
2019/10/25 06:48:00 BASE 25.62 28 33.23 21 1.0 100 1.0 0 0 987.2 NA 0.0000 UP 9999 0 0 0 0
2019/10/25 06:49:01 BASE 26.56 24 33.23 21 1.0 100 1.0 0 0 987.1 NA 0.0000 UP 9999 0 0 0 0
2019/10/25 06:50:00 BASE 28.40 22 33.23 21 1.0 100 1.0 0 0 987.1 NA 0.0000 9999 0 0 0 0
2019/10/25 06:51:00 BASE 29.25 22 33.23 21 1.0 100 1.0 0 0 987.1 NA 0.0000 9999 0 0 0 0
2019/10/25 06:52:00 BASE 29.56 23 33.08 23 1.1 100 1.1 0 0 987.2 NA 0.0000 9999 0 0 0 1350
2019/10/25 06:53:00 BASE 27.91 22 33.08 23 1.1 100 1.1 0 0 987.3 NA 0.0000 9999 690 0 0 0
2019/10/25 06:54:01 BASE 26.16 22 32.56 23 1.1 100 1.1 0 0 987.4 NA 0.0000 9999 620 0 0 0
2019/10/25 06:55:00 BASE 26.80 21 32.56 23 1.1 100 1.1 0 0 987.3 NA 0.0000 9999 0 0 0 4530
2019/10/25 06:56:00 BASE 27.38 19 32.56 23 1.1 100 1.1 0 0 987.2 NA 0.0000 9999 0 0 0 3020
2019/10/25 06:57:00 BASE 26.98 22 32.56 23 1.1 100 1.1 0 0 987.2 NA 0.0000 9999 1120 4560 0 0
2019/10/25 06:58:00 BASE 27.80 23 32.56 23 1.1 100 1.1 0 0 987.2 NA 0.0000 9999 4430 0 0 0
2019/10/25 06:59:00 BASE 28.34 25 32.56 23 1.1 100 1.1 0 0 987.1 NA 0.0000 9999 0 0 0 0
2019/10/25 07:00:00 BASE 27.62 26 32.56 23 1.1 100 1.1 0 0 987.1 NA 0.0000 9999 0 0 0 0
2019/10/25 07:01:00 BASE 26.48 27 32.15 29 1.1 100 1.1 0 0 987.2 NA 0.0000 9999 0 0 0 0
2019/10/25 07:02:00 BASE 25.87 27 32.15 29 1.1 100 1.1 0 0 987.1 NA 0.0000 9999 0 0 0 0
2019/10/25 07:03:00 BASE 27.19 25 32.15 29 1.1 100 1.1 0 0 987.0 NA 0.0000 9999 0 0 0 0
2019/10/25 07:04:00 BASE 28.32 27 33.49 26 1.0 100 1.0 0 0 987.0 NA 0.0000 9999 0 0 0 0
2019/10/25 07:05:00 BASE 27.85 27 33.49 26 1.0 100 1.0 0 0 987.0 NA 0.0000 9999 0 0 0 0
2019/10/25 07:06:00 BASE 27.02 27 33.49 26 1.0 100 1.0 0 0 987.1 NA 0.0000 9999 0 0 0 490
2019/10/25 07:07:01 BASE 26.82 28 33.49 26 1.0 100 1.0 0 0 987.1 NA 0.0000 9999 0 0 0 0
2019/10/25 07:08:01 BASE 27.27 27 33.49 26 1.0 100 1.0 0 0 987.0 NA 0.0000 9999 0 0 0 0
2019/10/25 07:09:01 BASE 27.88 26 33.49 26 1.0 100 1.0 0 0 987.0 NA 0.0000 9999 0 0 0 0
2019/10/25 07:10:00 BASE 30.42 23 34.42 22 1.1 100 1.1 0 0 986.8 NA 0.0000 9999 0 0 0 0
2019/10/25 07:11:00 BASE 31.88 24 34.42 22 1.1 100 1.1 0 0 986.9 NA 0.0000 9999 0 0 0 1080
2019/10/25 07:12:00 BASE 29.68 26 34.42 22 1.1 100 1.1 0 0 987.0 NA 0.0000 UP 9999 0 0 0 0
2019/10/25 07:13:00 BASE 28.29 24 34.42 22 1.0 100 1.0 0 0 987.0 NA 0.0000 UP 9999 0 0 0 0
2019/10/25 07:14:00 BASE 28.29 24 34.42 22 1.0 100 1.0 0 0 986.9 NA 0.0000 UP 9999 0 0 0 0
2019/10/25 07:15:00 BASE 28.19 24 34.42 22 1.0 100 1.0 0 0 987.0 NA 0.0000 UP 9999 0 0 0 0
2019/10/25 07:16:00 BASE 27.66 25 34.42 22 1.0 100 1.0 0 0 987.1 NA 0.0000 UP 9999 0 0 0 0
2019/10/25 07:17:00 BASE 27.34 24 34.42 22 1.0 100 1.0 0 0 987.1 NA 0.0000 UP 9999 0 0 0 0
2019/10/25 07:18:00 BASE 27.48 22 34.42 22 1.0 100 1.0 0 0 987.0 NA 0.0000 UP 9999 0 0 0 0
2019/10/25 07:19:00 BASE 28.15 24 34.42 22 1.0 100 1.0 0 0 987.0 NA 0.0000 UP 9999 0 0 0 0
2019/10/25 07:20:00 BASE 29.12 25 33.59 33 1.0 100 1.0 0 0 986.9 NA 0.0000 UP 9999 0 0 0 0
2019/10/25 07:21:00 BASE 28.60 23 32.20 20 1.0 100 1.0 0 0 987.1 NA 0.0000 UP 9999 0 0 0 330
2019/10/25 07:22:00 BASE 27.81 23 32.20 20 1.0 100 1.0 0 0 987.0 NA 0.0000 9999 0 0 0 0
2019/10/25 07:23:00 BASE 28.38 24 32.77 25 0.9 100 0.9 0 0 986.9 NA 0.0000 9999 0 0 0 0
2019/10/25 07:24:00 BASE 28.18 24 32.77 25 0.9 100 0.9 0 0 986.9 NA 0.0000 9999 0 0 0 260
2019/10/25 07:25:00 BASE 28.88 26 34.00 30 0.9 100 0.9 0 0 986.9 NA 0.0000 9999 0 0 0 0
2019/10/25 07:26:00 BASE 30.56 24 34.52 25 0.8 100 0.8 0 0 986.9 NA 0.0000 9999 0 0 0 1350
2019/10/25 07:27:00 BASE 30.90 21 34.52 25 0.8 100 0.8 0 0 986.9 NA 0.0000 9999 660 0 0 0
2019/10/25 07:28:00 BASE 31.16 21 34.52 25 0.8 100 0.8 0 0 986.9 NA 0.0000 9999 850 0 0 0
2019/10/25 07:29:00 BASE 32.40 21 34.83 19 0.8 100 0.8 0 0 986.7 NA 0.0000 9999 0 0 0 820
2019/10/25 07:30:00 BASE 32.76 22 34.83 19 0.8 100 0.8 0 0 986.8 NA 0.0000 9999 0 0 0 560
2019/10/25 07:31:00 BASE 31.62 23 34.83 19 0.8 100 0.8 0 0 986.7 NA 0.0000 9999 0 0 0 590
2019/10/25 07:32:00 BASE 31.13 22 34.83 19 0.8 100 0.8 0 0 986.7 NA 0.0000 9999 0 0 0 300
2019/10/25 07:33:00 BASE 30.90 20 34.83 19 0.7 100 0.7 0 0 986.8 NA 0.0000 9999 0 0 0 360
2019/10/25 07:34:00 BASE 31.16 18 34.83 19 0.7 100 0.7 0 0 986.7 NA 0.0000 9999 0 0 0 560
2019/10/25 07:35:00 BASE 32.39 19 34.83 19 0.7 100 0.7 0 0 986.6 NA 0.0000 9999 0 0 0 660
2019/10/25 07:36:00 BASE 32.04 19 34.83 19 0.7 100 0.7 0 0 986.7 NA 0.0000 9999 0 0 0 720
2019/10/25 07:37:00 BASE 31.08 19 34.83 19 0.7 100 0.7 0 0 986.7 NA 0.0000 9999 0 0 0 560
2019/10/25 07:38:00 BASE 31.33 21 35.50 25 0.8 100 0.8 0 0 986.8 NA 0.0000 9999 0 0 0 690
2019/10/25 07:39:00 BASE 31.19 22 35.50 25 0.8 100 0.8 0 0 986.8 NA 0.0000 9999 0 0 0 520
2019/10/25 07:40:00 BASE 31.40 21 35.50 25 0.8 100 0.8 0 0 986.7 NA 0.0000 9999 0 0 0 520
2019/10/25 07:41:00 BASE 31.73 21 35.50 25 0.8 100 0.8 0 0 986.7 NA 0.0000 9999 0 0 0 590
2019/10/25 07:42:00 BASE 32.02 21 35.60 23 0.8 100 0.8 0 0 986.7 NA 0.0000 9999 0 0 0 560
2019/10/25 07:43:00 BASE 31.37 21 36.01 25 0.9 100 0.9 1 0 986.7 NA 0.0000 9999 0 0 0 590
2019/10/25 07:44:00 BASE 31.92 22 36.01 25 0.9 100 0.9 1 0 986.5 NA 0.0000 9999 0 0 0 460
2019/10/25 07:45:00 BASE 32.82 21 36.01 25 0.9 100 0.9 1 0 986.6 NA 0.0000 9999 0 0 0 260
2019/10/25 07:46:01 BASE 32.52 20 36.01 25 0.9 100 0.9 1 0 986.5 NA 0.0000 9999 0 0 0 0
2019/10/25 07:47:01 BASE 32.12 21 36.01 25 0.9 100 0.9 1 0 986.6 NA 0.0000 9999 0 0 0 0
2019/10/25 07:48:01 BASE 31.87 20 36.73 19 0.9 100 0.9 1 0 986.5 NA 0.0000 9999 0 0 0 360
2019/10/25 07:49:01 BASE 33.34 20 36.73 19 0.9 100 0.9 1 0 986.4 NA 0.0000 9999 0 0 0 0
2019/10/25 07:50:01 BASE 33.20 20 36.73 19 0.9 100 0.9 1 0 986.5 NA 0.0000 9999 0 0 0 0
2019/10/25 07:51:01 BASE 32.45 21 36.73 19 0.9 100 0.9 1 0 986.5 NA 0.0000 9999 0 0 0 460
2019/10/25 07:52:01 BASE 31.93 22 36.73 19 0.9 100 0.9 1 0 986.6 NA 0.0000 9999 0 0 0 520
2019/10/25 07:53:01 BASE 32.57 21 36.73 19 0.9 100 0.9 2 0 986.4 NA 0.0000 9999 0 0 0 490
2019/10/25 07:54:01 BASE 34.11 19 36.73 19 0.9 100 0.9 2 0 986.4 NA 0.0000 9999 0 0 0 0
2019/10/25 07:55:01 BASE 34.45 20 37.30 19 0.9 100 0.9 3 0 986.3 NA 0.0000 9999 0 0 0 0
2019/10/25 07:56:01 BASE 34.15 20 37.30 19 0.9 100 0.9 3 0 986.3 NA 0.0000 9999 0 0 0 0
2019/10/25 07:57:01 BASE 34.20 19 37.30 19 0.9 100 0.9 3 0 986.3 NA 0.0000 9999 0 0 0 0
2019/10/25 07:58:00 BASE 33.99 21 37.30 19 0.9 100 0.9 4 0 986.3 NA 0.0000 9999 0 0 0 0
2019/10/25 07:59:00 BASE 33.53 21 37.30 19 0.9 100 0.9 4 0 986.4 NA 0.0000 9999 0 0 0 0
2019/10/25 08:00:00 BASE 32.69 20 37.30 19 0.9 100 0.9 4 0 986.5 NA 0.0000 9999 0 0 0 0
2019/10/25 08:01:01 BASE 32.13 20 37.30 19 0.9 100 0.9 4 0 986.4 NA 0.0000 9999 0 0 0 0
2019/10/25 08:02:01 BASE 32.81 20 37.30 19 0.9 100 0.9 4 0 986.4 NA 0.0000 9999 0 0 0 0
2019/10/25 08:03:00 BASE 33.75 20 37.61 21 0.9 100 0.9 5 0 986.3 NA 0.0000 9999 0 0 0 0
2019/10/25 08:04:00 BASE 33.71 21 37.61 21 0.9 100 0.9 6 0 986.3 NA 0.0000 9999 0 0 0 0
2019/10/25 08:05:00 BASE 32.71 20 37.61 21 0.9 100 0.9 7 0 986.4 NA 0.0000 9999 0 0 0 0
2019/10/25 08:06:00 BASE 31.99 19 37.61 21 0.9 100 0.9 9 0 986.4 NA 0.0000 9999 0 0 0 0
2019/10/25 08:07:00 BASE 31.21 20 37.61 21 1.0 100 1.0 11 0 986.5 NA 0.0000 9999 0 0 0 0
2019/10/25 08:08:00 BASE 29.52 17 37.61 21 1.0 100 1.0 12 0 986.6 NA 0.0000 9999 0 0 0 390
2019/10/25 08:09:00 BASE 29.65 14 37.61 21 1.0 100 1.0 13 0 986.4 NA 0.0000 9999 0 0 0 0
2019/10/25 08:10:00 BASE 31.83 14 37.61 21 1.0 100 1.0 13 0 986.2 NA 0.0000 9999 0 0 0 0
2019/10/25 08:11:00 BASE 32.52 14 37.61 21 1.0 100 1.0 13 0 986.2 NA 0.0000 9999 0 0 0 0
2019/10/25 08:12:00 BASE 33.35 17 37.61 21 1.0 100 1.0 13 0 986.1 NA 0.0000 9999 0 0 0 430
2019/10/25 08:13:00 BASE 33.94 19 36.94 17 1.0 100 1.0 12 0 986.1 NA 0.0000 9999 0 0 0 300
2019/10/25 08:14:00 BASE 34.46 18 36.94 19 0.9 100 0.9 11 0 986.0 NA 0.0000 9999 0 0 0 0
2019/10/25 08:15:00 BASE 33.69 16 36.94 19 0.9 100 0.9 10 0 986.2 NA 0.0000 9999 0 0 0 560
2019/10/25 08:16:01 BASE 31.67 16 36.94 19 0.8 100 0.8 10 0 986.2 NA 0.0000 9999 0 0 0 620
2019/10/25 08:17:01 BASE 32.99 19 39.25 28 0.8 100 0.8 9 0 986.0 NA 0.0000 9999 0 0 0 0
2019/10/25 08:18:01 BASE 34.54 21 39.25 28 0.8 100 0.8 8 0 985.9 NA 0.0000 9999 0 0 0 0
2019/10/25 08:19:00 BASE 34.41 20 39.25 28 0.8 100 0.8 7 0 985.9 NA 0.0000 9999 0 0 0 0
2019/10/25 08:20:00 BASE 34.34 21 39.25 28 0.8 100 0.8 7 0 986.0 NA 0.0000 9999 0 0 0 230
2019/10/25 08:21:00 BASE 34.62 21 39.25 28 0.8 100 0.8 7 0 985.9 NA 0.0000 9999 0 0 0 360
2019/10/25 08:22:00 BASE 34.89 20 39.25 28 0.8 100 0.8 7 0 986.0 NA 0.0000 9999 0 0 0 0
2019/10/25 08:23:00 BASE 34.04 22 39.25 28 0.8 100 0.8 7 0 986.0 NA 0.0000 9999 0 0 0 0
2019/10/25 08:24:00 BASE 33.50 23 39.25 28 0.8 100 0.8 8 0 986.0 NA 0.0000 9999 0 0 0 0
2019/10/25 08:25:00 BASE 32.57 21 39.25 28 0.8 100 0.8 8 0 986.1 NA 0.0000 9999 0 0 0 0
2019/10/25 08:26:00 BASE 32.12 22 39.25 28 0.8 100 0.8 8 0 986.1 NA 0.0000 9999 0 0 0 0
2019/10/25 08:27:00 BASE 32.83 23 37.81 20 0.8 100 0.8 9 0 986.0 NA 0.0000 9999 0 0 0 0
2019/10/25 08:28:00 BASE 33.62 23 38.94 25 0.8 100 0.8 9 0 986.0 NA 0.0000 9999 0 0 0 0
2019/10/25 08:29:00 BASE 33.36 23 38.94 25 0.8 100 0.8 9 0 986.1 NA 0.0000 9999 0 0 0 0
2019/10/25 08:30:00 BASE 32.89 24 38.94 25 0.8 100 0.8 10 0 986.0 NA 0.0000 9999 0 0 0 0
2019/10/25 08:31:00 BASE 33.46 23 38.94 25 0.8 100 0.8 10 0 986.0 NA 0.0000 9999 0 0 0 0
2019/10/25 08:32:00 BASE 35.27 23 40.64 32 0.8 100 0.8 11 0 985.8 NA 0.0000 9999 0 0 0 0
2019/10/25 08:33:00 BASE 35.79 24 40.64 32 0.8 100 0.8 12 0 985.9 NA 0.0000 9999 0 0 0 0
2019/10/25 08:34:00 BASE 35.09 22 40.64 32 0.9 100 0.9 12 0 985.9 NA 0.0000 9999 0 0 0 0
2019/10/25 08:35:00 BASE 34.68 22 40.64 32 0.9 100 0.9 13 0 986.0 NA 0.0000 9999 0 0 0 0
2019/10/25 08:36:00 BASE 33.36 22 40.64 32 0.9 100 0.9 14 0 986.0 NA 0.0000 9999 0 0 0 0
2019/10/25 08:37:00 BASE 32.97 24 40.64 32 1.0 100 1.0 15 0 986.0 NA 0.0000 9999 0 0 0 0
2019/10/25 08:38:01 BASE 33.82 24 40.64 32 1.0 100 1.0 15 0 985.9 NA 0.0000 9999 0 0 0 0
2019/10/25 08:39:00 BASE 34.62 22 40.64 32 1.0 100 1.0 16 0 985.8 NA 0.0000 9999 0 0 0 0
2019/10/25 08:40:00 BASE 34.66 23 40.64 32 1.0 100 1.0 17 0 985.8 NA 0.0000 9999 0 0 0 0
2019/10/25 08:41:00 BASE 34.08 24 40.64 32 1.0 100 1.0 17 0 985.9 NA 0.0000 9999 0 0 0 0
2019/10/25 08:42:00 BASE 33.67 24 39.97 26 1.0 100 1.0 18 0 985.9 NA 0.0000 9999 0 0 0 0
2019/10/25 08:43:00 BASE 33.61 22 39.97 26 1.0 100 1.0 19 0 985.9 NA 0.0000 9999 0 0 0 0
2019/10/25 08:44:00 BASE 31.78 23 38.53 23 1.1 100 1.1 20 0 986.1 NA 0.0000 9999 0 0 0 0
2019/10/25 08:45:00 BASE 29.79 24 38.53 23 1.1 100 1.1 21 0 986.1 NA 0.0000 9999 0 0 0 0
2019/10/25 08:46:00 BASE 30.19 24 38.53 23 1.1 100 1.1 22 0 986.1 NA 0.0000 9999 0 0 0 0
2019/10/25 08:47:00 BASE 30.50 24 37.50 21 1.1 100 1.1 23 0 986.1 NA 0.0000 9999 0 0 0 0
2019/10/25 08:48:00 BASE 31.15 23 37.14 21 1.1 100 1.1 23 0 986.0 NA 0.0000 9999 0 0 0 0
2019/10/25 08:49:00 BASE 32.95 23 39.61 28 1.1 100 1.1 23 0 985.9 NA 0.0000 9999 0 0 0 0
2019/10/25 08:50:00 BASE 32.59 26 39.61 28 1.1 100 1.1 23 0 986.1 NA 0.0000 9999 0 0 0 0
2019/10/25 08:51:00 BASE 33.18 31 39.61 28 1.2 100 1.2 23 0 985.9 NA 0.0000 9999 0 0 0 0
2019/10/25 08:52:00 BASE 34.05 29 39.61 28 1.2 100 1.2 23 0 986.0 NA 0.0000 9999 0 0 0 0
2019/10/25 08:53:00 BASE 32.16 26 39.61 28 1.2 100 1.2 24 0 986.1 NA 0.0000 9999 0 0 0 0
2019/10/25 08:54:00 BASE 30.00 26 39.61 28 1.2 100 1.2 24 0 986.2 NA 0.0000 9999 0 0 0 0
2019/10/25 08:55:00 BASE 31.04 27 39.61 28 1.2 100 1.2 25 0 986.0 NA 0.0000 9999 0 0 0 0
2019/10/25 08:56:00 BASE 32.70 30 39.61 28 1.3 100 1.3 26 0 986.0 NA 0.0000 9999 0 0 0 0
2019/10/25 08:57:01 BASE 31.33 30 39.61 28 1.3 100 1.3 27 1 986.1 NA 0.0000 9999 0 0 0 0
2019/10/25 08:58:01 BASE 30.34 28 39.61 28 1.3 100 1.3 28 0 986.1 NA 0.0000 9999 0 0 0 0
2019/10/25 08:59:01 BASE 30.33 26 39.10 41 1.3 100 1.3 30 0 986.1 NA 0.0000 9999 0 0 0 0
2019/10/25 09:00:01 BASE 28.89 24 39.10 41 1.3 100 1.3 32 0 986.2 NA 0.0000 9999 0 0 0 0
2019/10/25 09:01:01 BASE 28.31 26 36.63 22 1.3 100 1.3 33 0 986.1 NA 0.0000 9999 0 0 0 0
2019/10/25 09:02:00 BASE 29.04 26 35.91 30 1.3 100 1.3 34 0 986.1 NA 0.0000 9999 0 0 0 0
2019/10/25 09:03:00 BASE 29.91 25 36.42 25 1.3 100 1.3 35 0 985.8 NA 0.0000 9999 0 0 0 0
2019/10/25 09:04:00 BASE 31.82 27 36.42 25 1.3 100 1.3 36 0 985.7 NA 0.0000 9999 0 0 0 0
2019/10/25 09:05:00 BASE 32.67 30 38.22 36 1.3 100 1.3 36 0 985.7 NA 0.0000 9999 0 0 0 0
2019/10/25 09:06:00 BASE 32.94 30 38.22 36 1.4 100 1.3 36 0 985.7 NA 0.0000 9999 0 0 0 0
2019/10/25 09:07:00 BASE 33.23 31 38.22 36 1.4 100 1.4 35 0 985.6 NA 0.0000 9999 0 0 0 0
2019/10/25 09:08:00 BASE 33.04 33 38.22 36 1.4 100 1.4 35 0 985.6 NA 0.0000 9999 0 0 0 0
2019/10/25 09:09:00 BASE 32.35 34 38.22 36 1.4 100 1.4 34 0 985.7 NA 0.0000 9999 0 0 0 0
2019/10/25 09:10:01 BASE 31.63 36 38.22 36 1.4 100 1.4 34 0 985.6 NA 0.0000 9999 0 0 0 0
2019/10/25 09:11:01 BASE 31.30 38 38.22 36 1.4 99 1.3 34 0 985.7 NA 0.0000 9999 0 0 0 0
2019/10/25 09:12:00 BASE 31.09 39 38.22 36 1.5 99 1.3 34 0 985.7 NA 0.0000 9999 0 0 0 0
2019/10/25 09:13:00 BASE 31.02 39 38.22 36 1.5 98 1.2 35 0 985.7 NA 0.0000 9999 0 0 0 0
2019/10/25 09:14:00 BASE 30.93 38 38.22 36 1.5 98 1.2 37 0 985.8 NA 0.0000 9999 7380 0 0 0
2019/10/25 09:15:00 BASE 30.46 36 36.94 33 1.5 97 1.1 39 0 985.8 NA 0.0000 9999 0 0 0 0
2019/10/25 09:16:00 BASE 30.32 37 36.94 33 1.6 97 1.1 42 0 985.8 NA 0.0000 9999 0 0 0 0
2019/10/25 09:17:00 BASE 30.16 39 35.60 33 1.6 96 1.1 45 0 985.9 NA 0.0000 9999 0 0 0 0
2019/10/25 09:18:00 BASE 30.07 39 35.14 38 1.6 96 1.0 48 0 985.8 NA 0.0000 9999 0 0 0 0
2019/10/25 09:19:00 BASE 29.54 39 35.14 38 1.6 96 1.0 51 0 985.9 NA 0.0000 9999 0 0 0 0
2019/10/25 09:20:00 BASE 27.62 40 35.14 38 1.7 95 1.0 54 0 985.9 NA 0.0000 9999 0 0 0 0
2019/10/25 09:21:00 BASE 26.99 40 35.14 38 1.7 95 0.9 57 0 985.9 NA 0.0000 9999 0 0 0 0
2019/10/25 09:22:00 BASE 27.45 39 34.57 40 1.7 94 0.9 60 0 985.9 NA 0.0000 9999 0 0 0 0
2019/10/25 09:23:00 BASE 27.64 38 34.57 40 1.8 94 0.9 62 0 985.9 NA 0.0000 9999 0 0 0 0
2019/10/25 09:24:00 BASE 28.00 38 34.11 37 1.8 93 0.8 61 0 985.9 NA 0.0000 9999 0 0 0 0
2019/10/25 09:25:00 BASE 27.35 38 33.13 38 1.8 93 0.8 78 0 985.9 NA 0.0000 9999 10430 0 0 0
2019/10/25 09:26:00 BASE 26.96 36 33.03 38 1.9 92 0.8 81 0 985.9 NA 0.0000 9999 8200 0 0 0
2019/10/25 09:27:00 BASE 27.89 35 32.98 37 1.9 92 0.7 68 0 985.8 NA 0.0000 9999 7780 0 0 0
2019/10/25 09:28:00 BASE 27.79 39 32.36 41 1.9 91 0.6 61 0 985.9 NA 0.0000 9999 7450 0 0 0
2019/10/25 09:29:00 BASE 26.80 41 32.31 35 1.9 91 0.6 68 0 985.9 NA 0.0000 9999 7810 0 0 0
2019/10/25 09:30:00 BASE 25.79 41 32.31 35 1.9 90 0.5 83 0 985.9 NA 0.0000 9999 8460 0 0 0
2019/10/25 09:31:00 BASE 25.86 41 32.31 35 1.9 90 0.4 86 0 985.8 NA 0.0000 9999 0 0 0 0
2019/10/25 09:32:00 BASE 26.36 39 32.31 35 1.9 90 0.4 102 0 985.8 NA 0.0000 9999 8270 0 0 0
2019/10/25 09:33:00 BASE 25.33 37 32.31 35 1.9 90 0.4 114 0 985.8 NA 0.0000 9999 0 0 0 0
2019/10/25 09:34:00 BASE 24.86 37 32.31 35 1.8 90 0.3 121 0 985.9 NA 0.0000 9999 9290 0 0 0
2019/10/25 09:35:00 BASE 25.35 37 32.31 35 1.9 90 0.3 115 0 985.8 NA 0.0000 9999 21850 0 0 0
2019/10/25 09:36:00 BASE 25.92 37 32.31 35 1.9 89 0.3 132 0 985.9 NA 0.0000 9999 13450 0 0 0
2019/10/25 09:37:00 BASE 26.08 38 30.51 36 1.9 89 0.3 173 0 985.9 NA 0.0000 9999 11020 0 0 0
2019/10/25 09:38:01 BASE 26.37 38 30.51 36 2.0 89 0.3 160 0 985.9 NA 0.0000 9999 7550 0 0 0
2019/10/25 09:39:01 BASE 26.81 37 30.76 37 2.1 88 0.3 146 0 986.0 NA 0.0000 9999 6460 0 0 0
2019/10/25 09:40:01 BASE 27.10 37 30.76 37 2.1 87 0.3 123 0 986.0 NA 0.0000 9999 6200 22970 0 0
2019/10/25 09:41:01 BASE 26.80 38 30.76 37 2.2 87 0.2 46 0 986.1 NA 0.0000 9999 6860 0 0 0
2019/10/25 09:42:01 BASE 25.48 37 30.76 37 2.2 86 0.1 28 0 986.2 NA 0.0000 9999 6500 0 0 0
2019/10/25 09:43:01 BASE 25.15 36 30.76 37 2.2 85 0.0 20 0 986.3 NA 0.0000 9999 4300 0 0 0
2019/10/25 09:44:00 BASE 25.76 35 30.76 37 2.2 85 -0.1 12 0 986.4 NA 0.0000 UP 8000 0 0 0 5580
2019/10/25 09:45:00 BASE 25.50 34 30.76 37 2.2 84 -0.2 7 0 986.5 NA 0.0000 UP 5000 330 0 0 0
2019/10/25 09:46:00 BASE 25.10 35 30.76 37 2.1 84 -0.2 5 0 986.7 NA 0.0000 UP 3000 0 0 0 3250
2019/10/25 09:47:00 BASE 24.92 34 30.76 37 2.1 84 -0.3 3 0 986.8 NA 0.0000 -SN 2900 230 0 0 0
2019/10/25 09:48:00 BASE 23.03 32 30.76 37 2.0 85 -0.3 3 0 987.0 NA 0.0000 -SN 1900 0 0 0 1440
2019/10/25 09:49:00 BASE 21.20 34 30.61 40 2.0 85 -0.2 3 0 987.1 NA 0.0000 -SN BR 1900 0 0 0 1440
2019/10/25 09:50:00 BASE 21.31 36 30.61 40 1.9 86 -0.1 2 0 987.2 NA 0.0000 -SN BR 1500 0 0 0 1770
2019/10/25 09:51:00 BASE 22.54 33 28.71 43 1.9 87 -0.1 2 0 987.1 NA 0.0000 -SN BR 0800 0 0 0 1120
2019/10/25 09:52:00 BASE 21.73 31 28.40 29 1.8 88 0.0 2 0 987.2 NA 0.0000 -SN BR 0500 0 0 0 920
2019/10/25 09:53:00 BASE 18.78 31 28.40 29 1.7 90 0.1 3 0 987.3 NA 0.0000 -SN BR 0450 0 0 0 980
2019/10/25 09:54:00 BASE 17.62 28 28.24 32 1.6 91 0.3 3 0 987.3 NA 0.0000 +SN BR 0500 0 0 0 980
2019/10/25 09:55:00 BASE 17.98 29 27.68 33 1.4 93 0.4 3 0 987.3 NA 0.0000 +SN BR 0900 0 0 0 1020
2019/10/25 09:56:00 BASE 19.34 37 27.68 33 1.4 95 0.6 4 0 987.3 NA 0.0000 SN FG 1000 0 0 0 1120
2019/10/25 09:57:00 BASE 20.17 44 27.16 25 1.3 96 0.8 5 0 987.3 NA 0.0000 SN FG 0650 0 0 0 820
2019/10/25 09:58:00 BASE 19.96 48 27.16 25 1.2 98 0.9 8 0 987.3 NA 0.0000 SN FG 0600 0 0 0 750
2019/10/25 09:59:00 BASE 19.65 51 27.16 25 1.2 99 1.0 9 0 987.3 NA 0.0000 +SN FG 0650 0 0 0 750
2019/10/25 10:00:00 BASE 19.65 50 27.16 25 1.1 99 1.0 11 0 987.3 NA 0.0000 +SN FG 0800 0 0 0 980
2019/10/25 10:01:00 BASE 18.95 53 23.77 44 1.0 100 1.0 13 0 987.3 NA 0.0000 +SN FG 1000 0 0 0 1020
2019/10/25 10:02:00 BASE 18.83 55 23.77 44 1.0 100 1.0 18 0 987.2 NA 0.0000 SN FG 1900 0 0 0 1150
2019/10/25 10:03:00 BASE 18.52 55 23.77 44 0.9 100 0.9 26 0 987.2 NA 0.0000 -SN FG 2100 0 0 0 980
2019/10/25 10:04:00 BASE 16.97 57 23.77 44 0.9 100 0.9 37 0 987.2 NA 0.0000 -SN BR 2700 2490 0 0 0
2019/10/25 10:05:00 BASE 17.48 55 23.77 44 0.9 100 0.9 43 0 987.2 NA 0.0000 -SN BR 9999 2330 0 0 0
2019/10/25 10:06:00 BASE 17.67 50 23.77 44 0.9 100 0.9 47 0 987.2 NA 0.0000 -SN BR 9999 2400 0 0 0
2019/10/25 10:07:00 BASE 16.97 49 23.77 44 0.9 100 0.9 55 0 987.2 NA 0.0000 -SN BR 9999 2360 0 0 0
2019/10/25 10:08:00 BASE 17.64 46 21.92 47 1.0 100 1.0 63 0 987.1 NA 0.0000 -SN BR 9999 2100 0 0 0
2019/10/25 10:09:00 BASE 18.07 37 21.92 47 1.1 100 1.1 65 0 987.0 NA 0.2540 -SN BR 9999 2070 0 0 0
2019/10/25 10:10:00 BASE 19.29 34 23.77 32 1.1 100 1.1 63 0 986.9 NA 0.0000 -SN BR 9999 6100 0 0 0
2019/10/25 10:11:00 BASE 20.65 35 23.77 32 1.2 100 1.2 63 0 986.9 NA 0.0000 -SN BR 9999 6040 0 0 0
2019/10/25 10:12:00 BASE 19.28 34 23.77 32 1.3 100 1.3 72 0 987.0 NA 0.0000 -SN BR 9999 6170 0 0 0
2019/10/25 10:13:00 BASE 18.49 33 23.77 32 1.4 100 1.4 91 0 987.0 NA 0.0000 -SN 9999 2260 0 0 0
2019/10/25 10:14:00 BASE 18.96 33 23.77 32 1.4 100 1.4 74 0 986.9 NA 0.2540 9999 1540 0 0 0
2019/10/25 10:15:00 BASE 19.94 31 24.38 27 1.5 100 1.5 73 0 986.9 NA 0.0000 9999 0 0 0 0
2019/10/25 10:16:00 BASE 20.85 31 24.38 27 1.5 100 1.5 79 0 986.9 NA 0.0000 9999 0 0 0 0
2019/10/25 10:17:00 BASE 21.14 29 26.24 23 1.5 100 1.5 110 0 986.9 NA 0.0000 9999 0 0 0 2330
2019/10/25 10:18:00 BASE 22.25 27 26.39 29 1.5 100 1.5 105 0 986.8 NA 0.0000 9999 1540 0 0 0
2019/10/25 10:19:00 BASE 23.63 26 28.09 19 1.5 100 1.5 102 0 986.7 NA 0.0000 9999 1570 0 0 0
2019/10/25 10:20:00 BASE 25.23 24 29.27 21 1.5 100 1.5 89 0 986.6 NA 0.0000 9999 1440 0 0 0
2019/10/25 10:21:00 BASE 24.44 24 29.27 21 1.5 100 1.5 85 0 986.8 NA 0.0000 9999 1610 0 0 0
2019/10/25 10:22:00 BASE 22.25 25 29.27 21 1.5 100 1.5 83 0 986.8 NA 0.0000 9999 1610 0 0 0
2019/10/25 10:23:00 BASE 23.30 24 29.27 21 1.4 100 1.4 79 0 986.6 NA 0.0000 9999 1970 6400 0 0
2019/10/25 10:24:00 BASE 25.08 22 29.27 21 1.4 100 1.4 76 0 986.6 NA 0.0000 9999 1480 6370 0 0
2019/10/25 10:25:00 BASE 24.97 22 29.27 21 1.4 100 1.4 70 0 986.6 NA 0.0000 9999 1570 0 0 0
2019/10/25 10:26:00 BASE 24.79 25 29.27 21 1.4 100 1.4 66 0 986.7 NA 0.0000 9999 1440 0 0 0
2019/10/25 10:27:00 BASE 24.76 25 29.27 21 1.4 100 1.4 71 0 986.6 NA 0.0000 9999 1280 0 0 0
2019/10/25 10:28:00 BASE 24.36 24 29.27 21 1.4 100 1.4 79 0 986.6 NA 0.0000 9999 1970 0 0 0
2019/10/25 10:29:00 BASE 24.27 24 29.27 21 1.3 100 1.3 83 0 986.6 NA 0.0000 9999 2130 0 0 0
2019/10/25 10:30:00 BASE 24.99 22 28.96 19 1.3 100 1.3 86 0 986.5 NA 0.0000 9999 0 0 0 2430
2019/10/25 10:31:00 BASE 27.08 21 30.46 16 1.3 100 1.3 91 0 986.4 NA 0.0000 9999 6040 0 0 0
2019/10/25 10:32:00 BASE 27.20 22 30.46 16 1.2 100 1.2 97 0 986.4 NA 0.0000 9999 5020 5740 0 0
2019/10/25 10:33:00 BASE 24.98 24 30.46 16 1.2 100 1.2 101 0 986.5 NA 0.0000 9999 6070 0 0 0
2019/10/25 10:34:00 BASE 25.16 24 30.46 16 1.2 100 1.2 99 0 986.3 NA 0.0000 9999 5380 0 0 0
2019/10/25 10:35:00 BASE 26.79 23 30.46 16 1.2 100 1.2 96 0 986.3 NA 0.0000 9999 0 0 0 1310
2019/10/25 10:36:00 BASE 26.60 24 30.46 16 1.2 100 1.2 97 0 986.2 NA 0.0000 9999 0 0 0 5810
2019/10/25 10:37:00 BASE 27.32 23 33.23 20 1.2 100 1.2 97 0 986.2 NA 0.0000 UP 8000 0 0 0 5640
2019/10/25 10:38:00 BASE 28.07 22 33.23 20 1.2 100 1.2 97 0 986.2 NA 0.0000 UP 9000 0 0 0 5020
2019/10/25 10:39:00 BASE 27.21 24 33.23 20 1.1 100 1.1 95 0 986.3 NA 0.0000 UP 9999 0 0 0 4460
2019/10/25 10:40:00 BASE 26.54 26 33.23 20 1.1 100 1.1 94 0 986.2 NA 0.0000 UP 9999 0 0 0 4950
2019/10/25 10:41:00 BASE 25.92 25 33.23 20 1.1 100 1.1 87 0 986.2 NA 0.0000 UP 9999 0 0 0 1480
2019/10/25 10:42:00 BASE 26.75 24 33.23 20 1.1 100 1.1 77 0 986.1 NA 0.0000 UP 9999 0 0 0 3350
2019/10/25 10:43:00 BASE 26.95 24 33.23 20 1.1 100 1.1 64 0 986.1 NA 0.0000 UP 8000 0 0 0 2890
2019/10/25 10:44:00 BASE 25.70 27 33.23 20 1.0 100 1.0 53 0 986.2 NA 0.0000 UP BR 2900 260 0 0 0
2019/10/25 10:45:00 BASE 24.98 28 33.23 20 1.0 100 1.0 63 0 986.2 NA 0.0000 UP BR 1700 0 0 0 1970
2019/10/25 10:46:00 BASE 24.41 29 33.23 20 1.0 100 1.0 70 0 986.2 NA 0.0000 -SN BR 1600 0 0 0 2260
2019/10/25 10:47:00 BASE 23.63 31 31.84 31 1.0 100 1.0 69 0 986.2 NA 0.0000 -SN BR 1700 0 0 0 2330
2019/10/25 10:48:00 BASE 23.00 30 31.84 31 1.0 100 1.0 66 0 986.2 NA 0.0000 -SN BR 2100 0 0 0 2950
2019/10/25 10:49:00 BASE 23.93 28 31.84 31 1.0 100 1.0 50 0 986.1 NA 0.0000 -SN BR 2100 0 0 0 2590
2019/10/25 10:50:00 BASE 24.39 28 30.20 22 1.0 100 1.0 48 0 986.1 NA 0.0000 -SN BR 1900 0 0 0 2070
2019/10/25 10:51:00 BASE 24.10 30 30.20 22 1.0 100 1.0 54 0 986.1 NA 0.0000 -SN BR 1500 0 0 0 1840
2019/10/25 10:52:00 BASE 24.85 29 30.20 22 1.0 100 1.0 49 0 986.0 NA 0.2540 -SN BR 1500 0 0 0 2430
2019/10/25 10:53:00 BASE 24.38 28 28.50 35 1.0 100 1.0 41 0 986.1 NA 0.0000 -SN BR 2300 0 0 0 1900
2019/10/25 10:54:00 BASE 24.30 28 28.40 32 1.0 100 1.0 40 0 986.0 NA 0.0000 -SN BR 2200 0 0 0 1800
2019/10/25 10:55:00 BASE 24.34 28 28.40 32 1.0 100 1.0 43 0 986.0 NA 0.0000 -SN BR 2000 0 0 0 1940
2019/10/25 10:56:01 BASE 24.05 26 29.22 21 1.0 100 1.0 43 0 985.9 NA 0.0000 -SN BR 2200 0 0 0 2490
2019/10/25 10:57:00 BASE 24.67 27 29.22 21 1.0 100 1.0 37 0 986.0 NA 0.0000 -SN BR 2000 0 0 0 2400
2019/10/25 10:58:00 BASE 24.80 26 29.22 21 1.0 100 1.0 38 0 985.9 NA 0.0000 -SN BR 2100 200 0 0 0
2019/10/25 10:59:00 BASE 26.01 24 32.87 23 1.0 100 1.0 33 0 985.7 NA 0.0000 -SN BR 1900 0 0 0 1770
2019/10/25 11:00:00 BASE 27.24 23 32.87 23 1.0 100 1.0 31 0 985.7 NA 0.0000 -SN BR 1000 0 0 0 1020
2019/10/25 11:01:00 BASE 28.13 22 32.87 23 1.0 100 1.0 39 0 985.6 NA 0.0000 -SN BR 0750 0 0 0 750
2019/10/25 11:02:00 BASE 28.93 21 32.87 23 1.0 100 1.0 38 0 985.7 NA 0.0000 -SN BR 1600 0 0 0 1480
2019/10/25 11:03:00 BASE 28.13 22 32.87 23 1.0 100 1.0 40 0 985.7 NA 0.0000 -SN BR 0750 0 0 0 1210
2019/10/25 11:04:00 BASE 28.44 21 32.87 23 1.0 100 1.0 39 0 985.6 NA 0.0000 -SN BR 0450 0 0 0 1180
2019/10/25 11:05:00 BASE 28.81 20 32.87 23 1.0 100 1.0 42 0 985.6 NA 0.0000 +SN BR 0450 0 0 0 890
2019/10/25 11:06:00 BASE 27.34 20 32.87 23 1.0 100 1.0 39 0 985.7 NA 0.0000 SN FG 0450 0 0 0 790
2019/10/25 11:07:00 BASE 26.20 19 32.87 23 1.0 100 1.0 42 0 985.7 NA 0.0000 SN FG 0550 0 0 0 850
2019/10/25 11:08:00 BASE 26.56 19 32.87 23 0.9 100 0.9 48 0 985.6 NA 0.0000 +SN FG 0550 0 0 0 980
2019/10/25 11:09:00 BASE 28.33 20 32.72 16 0.9 100 0.9 56 0 985.4 NA 0.0000 +SN FG 0550 0 0 0 1150
2019/10/25 11:10:00 BASE 29.02 20 32.72 16 0.9 100 0.9 66 0 985.4 NA 0.2540 +SN FG 0500 0 0 0 1210
2019/10/25 11:11:00 BASE 28.76 20 32.72 16 0.9 100 0.9 69 0 985.4 NA 0.0000 +SN FG 0550 0 0 0 1310
2019/10/25 11:12:00 BASE 29.29 20 33.23 16 0.9 100 0.9 71 0 985.3 NA 0.0000 +SN FG 0500 0 0 0 1350
2019/10/25 11:13:00 BASE 29.32 20 33.23 16 0.9 100 0.9 77 0 985.3 NA 0.0000 +SN FG 0500 0 0 0 1440
2019/10/25 11:14:00 BASE 28.61 23 33.23 16 0.9 100 0.9 84 0 985.3 NA 0.0000 +SN FG 0650 0 0 0 1670
2019/10/25 11:15:00 BASE 28.53 23 33.23 16 0.9 100 0.9 89 0 985.3 NA 0.0000 +SN FG 0550 0 0 0 2100
2019/10/25 11:16:00 BASE 28.62 22 33.23 16 1.0 100 1.0 93 0 985.2 NA 0.0000 +SN FG 0650 0 0 0 1900
2019/10/25 11:17:00 BASE 29.27 21 33.23 16 1.0 100 1.0 90 0 985.1 NA 0.0000 +SN FG 0750 0 0 0 2360
2019/10/25 11:18:00 BASE 29.92 22 33.23 16 1.0 100 1.0 82 0 985.2 NA 0.0000 +SN FG 1100 0 0 0 2400
2019/10/25 11:19:00 BASE 30.75 22 33.85 14 1.0 100 1.0 74 0 985.0 NA 0.0000 SN FG 1300 0 0 0 1870
2019/10/25 11:20:00 BASE 32.69 21 36.01 28 1.0 100 1.0 74 0 984.8 NA 0.0000 SN FG 1000 0 0 0 2030
2019/10/25 11:21:00 BASE 32.91 20 36.01 28 1.0 100 1.0 71 0 985.0 NA 0.0000 SN FG 0650 0 0 0 2230
2019/10/25 11:22:00 BASE 31.60 20 36.01 28 1.0 100 1.0 67 0 985.0 NA 0.0000 SN FG 0800 0 0 0 2000
2019/10/25 11:23:00 BASE 31.23 21 36.01 28 1.0 100 1.0 61 0 985.0 NA 0.0000 SN FG 1200 0 0 0 1670
2019/10/25 11:24:00 BASE 30.91 22 36.01 28 1.0 100 1.0 65 0 985.1 NA 0.0000 SN FG 1100 0 0 0 1710
2019/10/25 11:25:00 BASE 31.40 22 36.01 28 1.0 100 1.0 70 0 984.8 NA 0.0000 SN BR 1100 0 0 0 2170
2019/10/25 11:26:00 BASE 33.58 22 36.83 19 1.0 100 1.0 72 0 984.7 NA 0.0000 SN BR 1300 0 0 0 2690
2019/10/25 11:27:00 BASE 34.99 22 36.83 19 1.0 100 1.0 69 0 984.6 NA 0.0000 SN BR 1100 0 0 0 2890
2019/10/25 11:28:00 BASE 35.43 22 37.45 17 1.0 100 1.0 65 0 984.6 NA 0.0000 SN BR 1400 300 0 0 0
2019/10/25 11:29:00 BASE 34.32 21 37.45 17 1.0 100 1.0 52 0 984.8 NA 0.0000 SN BR 1500 0 0 0 2560
2019/10/25 11:30:00 BASE 32.98 20 37.45 17 1.0 100 1.0 39 0 984.8 NA 0.0000 -SN BR 1200 0 0 0 2360
2019/10/25 11:31:00 BASE 33.13 21 37.45 17 0.9 100 0.9 31 0 984.8 NA 0.0000 -SN BR 0800 0 0 0 1640
2019/10/25 11:32:00 BASE 33.23 21 37.45 17 0.9 100 0.9 28 0 984.9 NA 0.0000 -SN BR 0700 0 0 0 1020
2019/10/25 11:33:00 BASE 32.56 20 37.45 17 0.9 100 0.9 26 0 984.8 NA 0.0000 -SN BR 0900 0 0 0 1120
2019/10/25 11:34:00 BASE 32.37 19 37.45 17 0.9 100 0.9 35 0 984.7 NA 0.0000 -SN BR 1600 0 0 0 1210
2019/10/25 11:35:00 BASE 31.41 20 37.45 17 0.8 100 0.8 80 0 985.0 NA 0.0000 -SN BR 1300 0 0 0 1050
2019/10/25 11:36:00 BASE 30.89 21 37.45 17 0.8 100 0.8 111 0 984.9 NA 0.0000 -SN BR 3200 0 0 0 2560
2019/10/25 11:37:00 BASE 31.97 22 37.45 17 0.8 100 0.8 91 0 984.7 NA 0.0000 -SN BR 3000 0 0 0 2590
2019/10/25 11:38:00 BASE 32.50 22 36.58 20 0.7 100 0.7 96 0 984.7 NA 0.0000 -SN BR 1000 0 0 0 1740
2019/10/25 11:39:00 BASE 32.36 24 39.56 23 0.7 100 0.7 120 0 984.7 NA 0.0000 -SN BR 0900 0 0 0 1800
2019/10/25 11:40:00 BASE 32.81 24 39.56 23 0.7 100 0.7 135 0 984.7 NA 0.0000 -SN BR 0800 0 0 0 1180
2019/10/25 11:41:00 BASE 34.22 23 39.56 23 0.7 100 0.7 148 0 984.4 NA 0.2540 -SN BR 1500 0 0 0 1050
2019/10/25 11:42:00 BASE 34.58 23 39.56 23 0.7 100 0.7 148 0 984.7 NA 0.0000 -SN BR 1000 0 0 0 2590
2019/10/25 11:43:00 BASE 34.08 23 39.56 23 0.8 100 0.8 153 0 984.6 NA 0.0000 -SN BR 1300 23030 0 0 0
2019/10/25 11:44:00 BASE 35.73 21 40.54 17 0.8 100 0.8 150 0 984.2 NA 0.0000 -SN BR 1000 0 0 0 2850
2019/10/25 11:45:00 BASE 36.99 21 40.54 17 0.9 100 0.9 147 0 984.3 NA 0.0000 -SN BR 3900 0 0 0 2890
2019/10/25 11:46:00 BASE 37.43 23 41.21 23 0.9 100 0.9 150 0 984.1 NA 0.0000 -SN BR 5000 0 0 0 2950
2019/10/25 11:47:00 BASE 38.56 21 41.21 23 0.9 100 0.9 156 0 984.0 NA 0.0000 -SN BR 4400 0 0 0 3540
2019/10/25 11:48:00 BASE 38.51 20 41.93 17 0.9 100 0.9 167 0 984.0 NA 0.0000 -SN BR 5000 22540 0 0 0
2019/10/25 11:49:00 BASE 39.01 19 42.65 22 0.8 100 0.8 164 0 983.8 NA 0.0000 -SN BR 7000 0 0 0 1770
2019/10/25 11:50:00 BASE 39.10 19 42.65 22 0.8 100 0.8 152 0 984.0 NA 0.0000 -SN BR 9000 0 0 0 1670
2019/10/25 11:51:00 BASE 39.31 18 42.65 22 0.8 100 0.8 133 0 983.9 NA 0.0000 -SN BR 9999 0 0 0 1710
2019/10/25 11:52:00 BASE 38.31 18 42.65 22 0.8 100 0.8 110 0 984.2 NA 0.2540 -SN BR 9999 260 19520 0 0
2019/10/25 11:53:00 BASE 36.46 17 42.65 22 0.8 100 0.8 94 0 984.1 NA 0.0000 -SN BR 7000 330 0 0 0
2019/10/25 11:54:00 BASE 37.55 18 42.80 18 0.8 100 0.8 97 0 984.1 NA 0.0000 -SN BR 4700 300 0 0 0
2019/10/25 11:55:00 BASE 36.91 18 42.80 18 0.8 100 0.8 110 0 984.2 NA 0.0000 -SN BR 6000 0 0 0 3180
2019/10/25 11:56:00 BASE 34.36 18 42.80 18 0.7 100 0.7 122 0 984.4 NA 0.0000 -SN BR 9999 330 23200 0 0
2019/10/25 11:57:00 BASE 35.02 19 42.80 18 0.7 100 0.7 134 0 984.3 NA 0.0000 -SN BR 7000 300 21260 0 0
2019/10/25 11:58:00 BASE 37.21 18 42.80 18 0.7 100 0.7 142 0 984.0 NA 0.0000 -SN BR 3600 260 0 0 0
2019/10/25 11:59:00 BASE 36.84 18 42.80 18 0.7 100 0.7 132 0 984.2 NA 0.0000 -SN BR 3400 330 0 0 0
2019/10/25 12:00:00 BASE 36.73 18 42.80 18 0.7 100 0.7 114 0 984.0 NA 0.0000 -SN BR 5000 260 0 0 0
2019/10/25 12:01:00 BASE 38.08 20 42.80 18 0.7 100 0.7 112 0 984.1 NA 0.0000 -SN BR 4200 260 0 0 0
2019/10/25 12:02:00 BASE 37.98 21 42.80 18 0.7 100 0.7 119 0 984.1 NA 0.0000 -SN BR 8000 300 0 0 0
2019/10/25 12:03:00 BASE 37.55 20 42.80 18 0.7 100 0.7 122 0 984.1 NA 0.0000 -SN BR 6000 260 0 0 0
2019/10/25 12:04:00 BASE 37.83 21 40.90 23 0.7 100 0.7 126 0 984.2 NA 0.0000 -SN BR 8000 300 0 0 0
2019/10/25 12:05:00 BASE 37.12 21 40.90 23 0.7 100 0.7 119 0 984.2 NA 0.0000 -SN BR 9999 330 0 0 0
2019/10/25 12:06:00 BASE 37.47 20 40.90 23 0.6 100 0.6 116 0 984.1 NA 0.0000 -SN BR 9999 330 0 0 0
2019/10/25 12:07:00 BASE 36.63 20 40.90 23 0.6 100 0.6 99 0 984.3 NA 0.0000 -SN BR 9999 330 0 0 0
2019/10/25 12:08:00 BASE 35.00 21 40.85 24 0.6 100 0.6 105 0 984.4 NA 0.0000 -SN BR 9999 360 0 0 0
2019/10/25 12:09:00 BASE 35.49 19 40.85 24 0.6 100 0.6 117 0 984.3 NA 0.0000 -SN BR 9999 330 0 0 0
2019/10/25 12:10:00 BASE 36.79 18 41.26 15 0.6 100 0.6 135 0 984.3 NA 0.0000 -SN BR 9999 330 0 0 0
2019/10/25 12:11:00 BASE 37.47 17 41.26 15 0.6 100 0.6 139 0 984.2 NA 0.0000 -SN 9999 300 0 0 0
2019/10/25 12:12:00 BASE 34.96 17 41.26 15 0.6 100 0.6 137 0 984.5 NA 0.0000 -SN 9999 330 0 0 0
2019/10/25 12:13:00 BASE 34.55 19 41.26 15 0.6 100 0.6 134 0 984.3 NA 0.0000 -SN 9999 300 0 0 0
2019/10/25 12:14:00 BASE 36.23 20 41.26 15 0.6 100 0.6 140 0 984.3 NA 0.0000 -SN 9999 260 0 0 0
2019/10/25 12:15:00 BASE 35.30 17 41.26 15 0.6 100 0.6 132 0 984.5 NA 0.0000 -SN 9999 300 0 0 0
2019/10/25 12:16:00 BASE 34.21 16 41.26 15 0.6 100 0.6 141 0 984.5 NA 0.0000 -SN 9000 330 0 0 0
2019/10/25 12:17:00 BASE 33.71 18 41.26 15 0.6 100 0.6 148 0 984.6 NA 0.0000 -SN BR 4100 330 0 0 0
2019/10/25 12:18:00 BASE 34.50 19 41.26 15 0.6 100 0.6 151 0 984.4 NA 0.0000 -SN BR 2300 260 0 0 0
2019/10/25 12:19:00 BASE 35.94 18 41.26 15 0.6 100 0.6 147 0 984.2 NA 0.0000 -SN BR 2000 0 0 0 1670
2019/10/25 12:20:00 BASE 34.16 14 39.87 22 0.6 100 0.6 161 0 984.5 NA 0.0000 -SN BR 1500 0 0 0 1900
2019/10/25 12:21:00 BASE 34.01 16 39.87 22 0.6 100 0.6 186 0 984.3 NA 0.0000 -SN BR 1800 0 0 0 2170
2019/10/25 12:22:00 BASE 35.52 18 39.87 22 0.5 100 0.5 201 0 984.4 NA 0.0000 -SN BR 2100 0 0 0 2690
2019/10/25 12:23:00 BASE 35.61 19 39.87 22 0.5 100 0.5 229 0 984.3 NA 0.0000 -SN BR 2100 230 0 0 0
2019/10/25 12:24:00 BASE 35.18 20 39.87 22 0.5 100 0.5 246 0 984.4 NA 0.0000 -SN BR 2500 360 0 0 0
2019/10/25 12:25:00 BASE 34.85 19 39.87 22 0.6 100 0.6 243 0 984.5 NA 0.0000 -SN BR 5000 330 0 0 0
2019/10/25 12:26:00 BASE 34.61 19 39.87 22 0.6 100 0.6 231 0 984.5 NA 0.2540 -SN BR 6000 390 0 0 0
2019/10/25 12:27:00 BASE 33.46 18 39.87 22 0.6 100 0.6 210 0 984.6 NA 0.0000 -SN BR 9999 390 0 0 0
2019/10/25 12:28:00 BASE 33.71 18 38.84 19 0.6 100 0.6 202 0 984.5 NA 0.0000 -SN BR 9999 330 0 0 0
2019/10/25 12:29:00 BASE 34.03 17 38.84 19 0.6 100 0.6 208 0 984.5 NA 0.0000 -SN BR 9000 260 24410 0 0
2019/10/25 12:30:00 BASE 34.22 16 38.84 19 0.6 100 0.6 188 0 984.5 NA 0.0000 -SN BR 9999 300 0 0 0
2019/10/25 12:31:00 BASE 33.99 16 38.84 19 0.6 100 0.6 174 0 984.6 NA 0.0000 -SN BR 9000 0 0 0 1280
2019/10/25 12:32:00 BASE 34.08 14 38.84 19 0.6 100 0.6 167 0 984.5 NA 0.0000 -SN BR 8000 0 0 0 1210
2019/10/25 12:33:00 BASE 32.52 11 38.84 19 0.5 100 0.5 168 0 984.9 NA 0.0000 -SN BR 9999 0 0 0 1080
2019/10/25 12:34:00 BASE 31.86 10 38.84 19 0.5 100 0.5 171 0 984.6 NA 0.0000 -SN BR 9999 0 0 0 1080
2019/10/25 12:35:00 BASE 33.50 11 38.84 19 0.5 100 0.5 169 0 984.7 NA 0.0000 -SN BR 6000 0 0 0 1120
2019/10/25 12:36:00 BASE 33.55 13 38.58 16 0.5 100 0.5 180 0 984.6 NA 0.0000 -SN BR 2200 0 0 0 1310
2019/10/25 12:37:00 BASE 33.13 11 38.58 16 0.5 100 0.5 184 0 984.7 NA 0.0000 -SN BR 1200 0 0 0 1670
2019/10/25 12:38:00 BASE 32.40 5 38.07 20 0.4 100 0.4 188 0 984.8 NA 0.0000 -SN BR 3300 0 0 0 1710
2019/10/25 12:39:00 BASE 30.65 3 38.07 20 0.4 100 0.4 195 0 985.1 NA 0.0000 -SN BR 7000 0 0 0 1710
2019/10/25 12:40:00 BASE 29.88 7 37.50 18 0.4 100 0.4 197 0 985.0 NA 0.2540 -SN BR 8000 0 0 0 2400
2019/10/25 12:41:00 BASE 31.39 8 37.50 18 0.4 100 0.4 190 0 984.9 NA 0.0000 -SN BR 4200 0 0 0 2620
2019/10/25 12:42:00 BASE 31.48 7 37.35 8 0.4 100 0.4 162 0 985.1 NA 0.0000 -SN BR 4900 0 0 0 1740
2019/10/25 12:43:00 BASE 31.37 9 37.35 8 0.4 100 0.4 154 0 985.0 NA 0.0000 -SN BR 4400 0 0 0 1570
2019/10/25 12:44:00 BASE 31.56 8 35.09 8 0.4 100 0.4 148 0 985.0 NA 0.0000 -SN BR 4100 0 0 0 1710
2019/10/25 12:45:00 BASE 32.46 6 36.94 9 0.4 100 0.4 142 0 984.8 NA 0.0000 -SN BR 5000 0 0 0 2300
2019/10/25 12:46:00 BASE 33.44 8 36.94 9 0.4 100 0.4 134 0 984.9 NA 0.0000 -SN BR 9999 0 0 0 1710
2019/10/25 12:47:00 BASE 32.76 6 36.94 9 0.5 100 0.5 144 0 985.0 NA 0.0000 -SN BR 9999 0 0 0 1640
2019/10/25 12:48:00 BASE 32.27 3 38.12 2 0.5 100 0.5 135 0 985.0 NA 0.0000 -SN BR 9999 260 0 0 0
2019/10/25 12:49:00 BASE 31.68 4 38.12 2 0.5 100 0.5 134 0 985.1 NA 0.0000 -SN BR 9999 0 0 0 2170
2019/10/25 12:50:00 BASE 32.29 8 38.12 2 0.6 100 0.6 128 0 984.8 NA 0.0000 -SN BR 9999 0 0 0 2030
2019/10/25 12:51:00 BASE 34.15 10 38.12 2 0.6 100 0.6 121 0 984.8 NA 0.2540 -SN BR 9999 360 0 0 0
2019/10/25 12:52:00 BASE 33.52 9 38.12 2 0.6 100 0.6 146 0 985.0 NA 0.0000 -SN BR 9999 230 0 0 0
2019/10/25 12:53:00 BASE 32.97 8 38.12 2 0.6 100 0.6 168 0 984.9 NA 0.0000 -SN BR 9999 300 0 0 0
2019/10/25 12:54:00 BASE 33.41 7 38.12 2 0.6 100 0.6 186 0 984.9 NA 0.0000 -SN 9999 360 0 0 0
2019/10/25 12:55:00 BASE 33.36 7 38.12 2 0.6 100 0.6 188 0 985.0 NA 0.0000 -SN 9999 360 0 0 0
2019/10/25 12:56:00 BASE 32.13 7 38.12 2 0.6 100 0.6 230 0 985.2 NA 0.0000 -SN 9999 950 0 0 0
2019/10/25 12:57:00 BASE 30.83 8 38.12 2 0.6 100 0.6 223 0 985.2 NA 0.0000 -SN 9999 890 0 0 0
2019/10/25 12:58:00 BASE 30.72 9 37.40 9 0.6 100 0.6 193 0 985.3 NA 0.0000 -SN 9999 1120 0 0 0
2019/10/25 12:59:00 BASE 31.73 6 37.40 9 0.6 100 0.6 154 0 985.1 NA 0.2540 -SN 9999 390 0 0 0
2019/10/25 13:00:00 BASE 32.76 7 37.40 9 0.7 100 0.7 151 0 985.0 NA 0.0000 -SN 8000 0 0 0 1610
2019/10/25 13:01:00 BASE 32.99 1 37.61 360 0.7 100 0.7 150 0 985.2 NA 0.0000 -SN 4200 300 0 0 0
2019/10/25 13:02:00 BASE 33.96 356 39.10 3 0.7 100 0.7 132 0 985.0 NA 0.0000 -SN 9999 360 0 0 0
2019/10/25 13:03:00 BASE 34.59 360 39.10 3 0.7 100 0.7 117 0 985.0 NA 0.0000 -SN 9999 390 0 0 0
2019/10/25 13:04:00 BASE 32.94 0 39.10 3 0.7 100 0.7 116 0 985.3 NA 0.0000 -SN 9999 390 0 0 0
2019/10/25 13:05:00 BASE 30.86 2 39.10 3 0.7 100 0.7 120 0 985.4 NA 0.0000 -SN 9999 390 0 0 0
2019/10/25 13:06:01 BASE 30.32 3 39.10 3 0.6 100 0.6 117 0 985.5 NA 0.0000 -SN 9999 360 0 0 0
2019/10/25 13:07:00 BASE 31.76 4 39.10 3 0.6 100 0.6 110 0 985.3 NA 0.0000 -SN 9999 330 0 0 0
2019/10/25 13:08:00 BASE 32.71 4 39.10 3 0.6 100 0.6 115 0 985.5 NA 0.0000 -SN 9999 360 0 0 0
2019/10/25 13:09:00 BASE 30.49 3 39.10 3 0.5 100 0.5 136 0 985.7 NA 0.0000 -SN 9999 330 0 0 0
2019/10/25 13:10:00 BASE 26.69 360 39.10 3 0.5 100 0.5 139 0 985.9 NA 0.0000 -SN 9999 300 0 0 0
2019/10/25 13:11:00 BASE 25.96 356 39.10 3 0.5 100 0.5 130 0 985.9 NA 0.0000 9999 330 0 0 0
2019/10/25 13:12:00 BASE 27.19 355 36.58 3 0.5 100 0.5 128 0 985.9 NA 0.0000 9999 330 0 0 0
2019/10/25 13:13:00 BASE 27.36 355 36.06 354 0.5 100 0.5 131 0 985.8 NA 0.0000 9999 330 0 0 0
2019/10/25 13:14:00 BASE 26.99 356 35.60 360 0.5 100 0.5 123 0 986.0 NA 0.0000 9999 360 22510 0 0
2019/10/25 13:15:00 BASE 26.74 356 35.60 360 0.5 100 0.5 139 0 986.0 NA 0.0000 9999 360 0 0 0
2019/10/25 13:16:00 BASE 27.40 356 35.60 360 0.5 100 0.5 142 0 985.9 NA 0.0000 9999 390 0 0 0
2019/10/25 13:17:00 BASE 26.86 352 35.34 2 0.5 100 0.5 153 0 986.1 NA 0.0000 9999 360 0 0 0
2019/10/25 13:18:00 BASE 25.07 353 32.87 174 0.5 100 0.5 150 0 986.2 NA 0.0000 9999 360 23000 0 0
2019/10/25 13:19:00 BASE 25.16 355 32.87 174 0.5 100 0.5 130 0 986.2 NA 0.0000 9999 390 0 0 0
2019/10/25 13:20:00 BASE 25.04 355 32.87 174 0.4 100 0.4 131 0 986.3 NA 0.0000 9999 390 0 0 0
2019/10/25 13:21:00 BASE 25.87 357 32.87 174 0.4 100 0.4 130 0 986.0 NA 0.0000 9999 390 0 0 0
2019/10/25 13:22:00 BASE 27.68 357 32.87 174 0.4 100 0.4 143 0 986.1 NA 0.0000 9999 390 0 0 0
2019/10/25 13:23:00 BASE 25.89 357 32.87 174 0.4 100 0.4 156 0 986.3 NA 0.0000 9999 390 0 0 0
2019/10/25 13:24:00 BASE 25.82 0 32.87 174 0.4 100 0.4 133 0 986.1 NA 0.0000 9999 390 0 0 0
2019/10/25 13:25:00 BASE 27.34 2 32.41 360 0.4 100 0.4 132 0 986.1 NA 0.0000 9999 750 0 0 0
2019/10/25 13:26:00 BASE 27.88 1 30.51 333 0.4 100 0.4 119 0 986.1 NA 0.0000 9999 360 0 0 0
2019/10/25 13:27:00 BASE 28.06 358 31.48 360 0.4 100 0.4 118 0 986.2 NA 0.0000 9999 360 0 0 0
2019/10/25 13:28:00 BASE 26.62 357 31.48 360 0.4 100 0.4 113 0 986.4 NA 0.0000 9999 360 0 0 0
2019/10/25 13:29:00 BASE 25.30 356 31.48 360 0.4 100 0.4 113 0 986.3 NA 0.0000 9999 390 0 0 0
2019/10/25 13:30:00 BASE 24.73 355 31.48 360 0.4 100 0.4 129 0 986.4 NA 0.0000 9999 360 0 0 0
2019/10/25 13:31:00 BASE 25.02 355 31.48 360 0.4 100 0.4 135 0 986.3 NA 0.0000 9999 390 0 0 0
2019/10/25 13:32:00 BASE 27.27 358 32.87 360 0.4 100 0.4 143 0 986.1 NA 0.0000 9999 390 22020 0 0
2019/10/25 13:33:00 BASE 27.92 358 32.87 360 0.4 100 0.4 160 0 986.3 NA 0.0000 9999 820 0 0 0
2019/10/25 13:34:00 BASE 27.91 0 32.87 360 0.4 100 0.4 167 0 986.2 NA 0.0000 9999 1210 0 0 0
2019/10/25 13:35:00 BASE 27.93 358 32.87 360 0.4 100 0.4 146 0 986.3 NA 0.0000 9999 1180 1670 0 0
2019/10/25 13:36:00 BASE 28.01 356 32.87 360 0.4 100 0.4 167 0 986.2 NA 0.0000 9999 660 0 0 0
2019/10/25 13:37:00 BASE 28.67 1 32.87 360 0.4 100 0.4 160 0 986.2 NA 0.0000 9999 950 0 0 0
2019/10/25 13:38:00 BASE 29.21 3 32.87 360 0.5 100 0.5 174 0 986.2 NA 0.0000 9999 620 0 0 0
2019/10/25 13:39:00 BASE 29.70 3 34.36 360 0.5 100 0.5 188 0 986.2 NA 0.0000 9999 430 0 0 0
2019/10/25 13:40:00 BASE 29.46 2 34.36 360 0.5 100 0.5 197 0 986.3 NA 0.2540 9999 360 0 0 0
2019/10/25 13:41:00 BASE 28.85 2 34.36 360 0.5 100 0.5 204 0 986.3 NA 0.0000 9999 430 0 0 0
2019/10/25 13:42:00 BASE 28.36 1 34.36 360 0.4 100 0.4 191 0 986.2 NA 0.0000 9999 820 1900 0 0
2019/10/25 13:43:00 BASE 27.93 358 34.36 360 0.4 100 0.4 177 0 986.4 NA 0.0000 9999 690 0 0 0
2019/10/25 13:44:00 BASE 27.03 357 34.36 360 0.4 100 0.4 159 0 986.6 NA 0.0000 9999 950 0 0 0
2019/10/25 13:45:00 BASE 25.80 1 34.36 360 0.4 100 0.4 143 0 986.7 NA 0.0000 9999 1020 0 0 0
2019/10/25 13:46:00 BASE 25.41 1 34.36 360 0.4 100 0.4 163 0 986.6 NA 0.0000 9999 750 0 0 0
2019/10/25 13:47:00 BASE 27.55 358 34.36 360 0.4 100 0.4 167 0 986.5 NA 0.0000 9999 390 0 0 0
2019/10/25 13:48:00 BASE 28.05 355 34.36 360 0.4 100 0.4 151 0 986.6 NA 0.0000 9999 0 0 0 4200
2019/10/25 13:49:00 BASE 26.27 354 32.20 2 0.4 100 0.4 140 0 986.8 NA 0.0000 9999 330 0 0 0
2019/10/25 13:50:00 BASE 25.24 357 32.20 2 0.5 100 0.5 126 0 986.9 NA 0.0000 9999 360 0 0 0
2019/10/25 13:51:00 BASE 26.10 356 31.84 348 0.5 100 0.5 143 0 986.7 NA 0.0000 9999 330 0 0 0
2019/10/25 13:52:00 BASE 26.55 356 31.84 348 0.5 100 0.5 155 0 986.8 NA 0.0000 9999 430 0 0 0
2019/10/25 13:53:00 BASE 25.79 359 31.84 348 0.5 100 0.5 150 0 986.9 NA 0.0000 9999 520 1870 0 0
2019/10/25 13:54:00 BASE 26.48 1 31.84 348 0.5 100 0.5 179 0 986.8 NA 0.0000 9999 620 0 0 0
2019/10/25 13:55:00 BASE 25.35 354 31.84 348 0.6 100 0.6 183 0 987.1 NA 0.0000 9999 820 4330 0 0
2019/10/25 13:56:00 BASE 23.80 352 31.84 348 0.6 100 0.6 164 0 987.1 NA 0.0000 9999 820 4360 0 0
2019/10/25 13:57:00 BASE 25.25 355 33.70 352 0.6 100 0.6 170 0 987.0 NA 0.0000 9999 1050 1770 0 0
2019/10/25 13:58:00 BASE 26.06 353 33.70 352 0.6 100 0.6 177 0 987.0 NA 0.0000 UP 9999 3610 0 0 0
2019/10/25 13:59:00 BASE 25.58 353 33.70 352 0.6 100 0.6 184 0 987.0 NA 0.0000 UP 9999 3710 0 0 0
2019/10/25 14:00:00 BASE 24.38 353 33.70 352 0.6 100 0.6 192 0 987.2 NA 0.0000 UP 9999 3710 0 0 0
2019/10/25 14:01:00 BASE 23.90 355 33.70 352 0.6 100 0.6 206 0 987.2 NA 0.0000 UP 9999 1940 3870 0 0
2019/10/25 14:02:00 BASE 24.45 356 33.70 352 0.6 100 0.6 212 0 987.2 NA 0.0000 UP 9999 1210 3740 0 0
2019/10/25 14:03:00 BASE 24.29 354 33.70 352 0.6 100 0.6 215 0 987.2 NA 0.0000 UP 9999 1150 3770 0 0
2019/10/25 14:04:00 BASE 24.55 353 33.70 352 0.6 100 0.6 231 0 987.2 NA 0.0000 UP 9999 890 0 0 0
2019/10/25 14:05:00 BASE 24.98 353 33.70 352 0.7 100 0.7 242 0 987.2 NA 0.0000 UP 9999 890 0 0 0
2019/10/25 14:06:00 BASE 24.21 355 33.70 352 0.7 100 0.7 230 0 987.4 NA 0.0000 UP 9999 3840 0 0 0
2019/10/25 14:07:00 BASE 23.15 354 28.91 339 0.7 100 0.7 229 0 987.4 NA 0.0000 UP 9999 790 2820 0 0
2019/10/25 14:08:00 BASE 22.97 352 28.91 339 0.7 100 0.7 244 0 987.5 NA 0.0000 UP 9999 790 2820 0 0
2019/10/25 14:09:00 BASE 23.24 353 28.60 360 0.7 100 0.7 252 0 987.4 NA 0.0000 UP 9999 980 3150 0 0
2019/10/25 14:10:00 BASE 22.36 353 28.60 360 0.7 100 0.7 239 0 987.6 NA 0.0000 UP 9999 820 4590 0 0
2019/10/25 14:11:00 BASE 22.67 357 28.60 360 0.7 100 0.7 237 0 987.5 NA 0.0000 UP 9999 720 0 0 0
2019/10/25 14:12:00 BASE 24.68 360 28.60 360 0.7 100 0.7 236 0 987.4 NA 0.0000 9999 720 0 0 0
2019/10/25 14:13:00 BASE 25.31 356 28.60 360 0.7 100 0.7 249 0 987.5 NA 0.0000 9999 820 0 0 0
2019/10/25 14:14:00 BASE 23.81 354 28.60 360 0.7 100 0.7 229 0 987.7 NA 0.0000 9999 720 0 0 0
2019/10/25 14:15:00 BASE 23.57 357 32.56 2 0.6 100 0.6 211 0 987.6 NA 0.0000 9999 920 3480 0 0
2019/10/25 14:16:00 BASE 25.27 356 32.56 2 0.6 100 0.6 201 0 987.5 NA 0.0000 4400 750 3220 0 0
2019/10/25 14:17:00 BASE 24.30 351 32.56 2 0.6 100 0.6 215 0 987.7 NA 0.0000 BR 1700 660 0 0 0
2019/10/25 14:18:00 BASE 23.36 349 32.56 2 0.6 100 0.6 213 0 987.6 NA 0.0000 BR 9999 720 0 0 0
2019/10/25 14:19:00 BASE 25.78 349 32.56 2 0.7 100 0.7 196 0 987.3 NA 0.0000 BR 9999 850 0 0 0
2019/10/25 14:20:00 BASE 26.42 350 32.56 2 0.7 100 0.7 187 0 987.7 NA 0.0000 BR 9999 750 24280 0 0
2019/10/25 14:21:00 BASE 25.97 353 32.56 2 0.7 100 0.7 193 0 987.5 NA 0.0000 BR 9999 750 3280 0 0
2019/10/25 14:22:00 BASE 25.17 354 32.56 2 0.7 100 0.7 187 0 987.8 NA 0.0000 BR 9999 1020 2530 0 0
2019/10/25 14:23:00 BASE 24.17 358 32.56 2 0.7 100 0.7 212 0 987.7 NA 0.0000 BR 9999 850 0 0 0
2019/10/25 14:24:00 BASE 24.49 355 32.56 2 0.7 100 0.7 212 0 987.7 NA 0.0000 BR 9999 980 0 0 0
2019/10/25 14:25:00 BASE 25.23 349 29.94 353 0.7 100 0.7 207 0 987.6 NA 0.0000 BR 9999 1710 3580 0 0
2019/10/25 14:26:00 BASE 25.42 351 29.94 353 0.8 100 0.8 211 0 987.8 NA 0.0000 BR 9999 1020 3450 0 0
2019/10/25 14:27:00 BASE 23.49 353 29.94 353 0.8 100 0.8 210 0 987.9 NA 0.0000 9999 790 3640 0 0
2019/10/25 14:28:00 BASE 24.57 354 29.94 353 0.8 100 0.8 202 0 987.7 NA 0.0000 9999 820 0 0 0
2019/10/25 14:29:00 BASE 25.09 354 29.94 353 0.8 100 0.8 217 0 987.9 NA 0.0000 9999 750 0 0 0
2019/10/25 14:30:00 BASE 23.80 352 30.71 344 0.8 100 0.8 223 0 987.9 NA 0.0000 9999 750 2590 0 0
2019/10/25 14:31:00 BASE 23.75 352 30.71 344 0.8 100 0.8 224 0 987.9 NA 0.0000 9999 460 2400 0 0
2019/10/25 14:32:00 BASE 22.64 356 30.71 344 0.7 100 0.7 216 0 988.0 NA 0.0000 9999 460 0 0 0
2019/10/25 14:33:00 BASE 22.83 356 30.71 344 0.7 100 0.7 197 0 988.0 NA 0.0000 9999 2950 0 0 0
2019/10/25 14:34:00 BASE 24.46 351 30.71 344 0.7 100 0.7 173 0 987.9 NA 0.0000 9999 390 1900 0 0
2019/10/25 14:35:00 BASE 26.21 353 31.48 340 0.6 100 0.6 146 0 987.6 NA 0.0000 9999 560 1770 0 0
2019/10/25 14:36:00 BASE 25.59 355 31.48 340 0.6 100 0.6 136 0 988.0 NA 0.0000 9999 360 0 0 0
2019/10/25 14:37:00 BASE 24.14 355 31.48 340 0.6 100 0.6 135 0 987.9 NA 0.0000 9999 330 0 0 0
2019/10/25 14:38:00 BASE 23.37 354 31.48 340 0.6 100 0.6 137 0 988.1 NA 0.0000 9999 430 0 0 0
2019/10/25 14:39:00 BASE 23.90 352 31.48 340 0.6 100 0.6 132 0 987.9 NA 0.0000 9999 430 0 0 0
2019/10/25 14:40:00 BASE 25.12 354 31.48 340 0.6 100 0.6 143 0 988.0 NA 0.0000 9999 430 0 0 0
2019/10/25 14:41:00 BASE 23.49 352 31.48 340 0.6 100 0.6 178 0 988.2 NA 0.0000 9999 790 0 0 0
2019/10/25 14:42:00 BASE 23.20 351 31.48 340 0.7 100 0.7 195 0 988.1 NA 0.0000 9999 820 0 0 0
2019/10/25 14:43:00 BASE 23.99 350 31.48 340 0.7 100 0.7 183 0 988.2 NA 0.0000 9999 890 3510 0 0
2019/10/25 14:44:00 BASE 24.45 350 31.48 340 0.7 100 0.7 201 0 988.1 NA 0.0000 9999 850 0 0 0
2019/10/25 14:45:00 BASE 25.37 351 30.04 354 0.7 100 0.7 216 0 988.1 NA 0.0000 9999 1050 3180 0 0
2019/10/25 14:46:00 BASE 26.47 349 30.04 354 0.7 100 0.7 225 0 988.0 NA 0.0000 9999 890 4270 0 0
2019/10/25 14:47:00 BASE 26.37 350 30.04 354 0.7 100 0.7 230 0 988.1 NA 0.0000 9999 920 0 0 0
2019/10/25 14:48:00 BASE 24.94 356 30.04 354 0.7 100 0.7 272 0 988.2 NA 0.0000 9999 890 0 0 0
2019/10/25 14:49:00 BASE 25.58 353 30.56 284 0.7 100 0.7 291 0 988.1 NA 0.0000 9999 980 0 0 0
2019/10/25 14:50:00 BASE 26.17 350 30.56 284 0.7 100 0.7 303 0 988.1 NA 0.0000 9999 1080 4890 0 0
2019/10/25 14:51:00 BASE 25.80 355 30.56 284 0.6 100 0.6 299 0 988.2 NA 0.0000 9999 1020 4920 0 0
2019/10/25 14:52:00 BASE 25.72 354 30.56 284 0.6 100 0.6 295 0 988.2 NA 0.0000 9999 3840 4820 0 0
2019/10/25 14:53:00 BASE 24.95 357 30.56 284 0.6 100 0.6 271 0 988.3 NA 0.0000 9999 3640 0 0 0
2019/10/25 14:54:00 BASE 23.90 358 30.56 284 0.6 100 0.6 264 0 988.4 NA 0.0000 9999 1180 0 0 0
2019/10/25 14:55:00 BASE 25.36 354 30.56 284 0.7 100 0.7 248 0 988.2 NA 0.0000 9999 1180 0 0 0
2019/10/25 14:56:00 BASE 26.92 350 30.56 284 0.7 100 0.7 276 0 988.2 NA 0.0000 9999 1150 0 0 0
2019/10/25 14:57:00 BASE 27.02 350 30.56 284 0.7 100 0.7 348 0 988.2 NA 0.0000 9999 950 2660 0 0
2019/10/25 14:58:00 BASE 25.36 352 30.56 284 0.7 100 0.7 336 0 988.5 NA 0.0000 9999 2790 3380 0 0
2019/10/25 14:59:00 BASE 22.64 350 30.46 352 0.7 100 0.7 325 0 988.6 NA 0.0000 9999 980 2950 0 0
2019/10/25 15:00:00 BASE 21.61 351 30.46 352 0.8 100 0.8 349 0 988.7 NA 0.0000 9999 920 2760 0 0
2019/10/25 15:01:00 BASE 21.44 354 30.46 352 0.8 100 0.8 369 0 988.7 NA 0.0000 9999 2590 22310 0 0
2019/10/25 15:02:00 BASE 23.33 353 30.46 352 0.8 100 0.8 369 0 988.6 NA 0.0000 9999 2790 0 0 0
2019/10/25 15:03:00 BASE 25.09 351 30.46 352 0.8 100 0.8 366 0 988.5 NA 0.0000 9999 2890 0 0 0
2019/10/25 15:04:00 BASE 23.26 350 30.46 352 0.8 100 0.8 460 0 988.8 NA 0.0000 9999 3080 0 0 0
2019/10/25 15:05:00 BASE 22.40 351 29.89 351 0.8 100 0.8 521 0 988.7 NA 0.0000 9999 12630 0 0 0
2019/10/25 15:06:00 BASE 23.05 348 29.32 351 0.9 100 0.9 512 0 988.7 NA 0.0000 9999 1250 3310 0 0
2019/10/25 15:07:00 BASE 23.50 347 29.17 360 0.9 100 0.9 663 0 988.6 NA 0.0000 9999 3220 0 0 0
2019/10/25 15:08:00 BASE 22.68 351 29.17 360 0.9 100 0.9 466 0 988.9 NA 0.0000 9999 3510 4920 0 0
2019/10/25 15:09:00 BASE 21.39 354 29.17 360 1.0 100 1.0 411 0 988.8 NA 0.0000 9999 920 0 0 0
2019/10/25 15:10:00 BASE 22.09 359 29.17 360 1.0 100 1.0 509 0 988.8 NA 0.0000 9999 0 0 0 1210
2019/10/25 15:11:00 BASE 22.16 4 29.17 360 1.0 100 1.0 532 0 988.8 NA 0.0000 9999 0 0 0 1180
2019/10/25 15:12:00 BASE 21.69 1 27.16 349 0.9 100 0.9 393 0 988.9 NA 0.0000 9999 0 0 0 1250
2019/10/25 15:13:00 BASE 21.43 350 26.70 355 0.9 100 0.9 322 0 988.9 NA 0.0000 9999 1180 3020 0 0
2019/10/25 15:14:00 BASE 22.87 347 27.88 340 0.9 100 0.9 581 0 988.8 NA 0.0000 9999 1210 3080 0 0
2019/10/25 15:15:00 BASE 24.05 349 27.88 340 0.9 100 0.9 420 0 988.9 NA 0.0000 9999 2850 21750 0 0
2019/10/25 15:16:00 BASE 23.95 350 27.88 340 0.9 100 0.9 462 0 988.9 NA 0.0000 9999 3250 0 0 0
2019/10/25 15:17:00 BASE 23.33 355 27.88 340 1.0 100 1.0 359 0 989.0 NA 0.0000 9999 1180 0 0 0
2019/10/25 15:18:00 BASE 22.91 353 27.88 340 1.0 100 1.0 385 0 989.0 NA 0.0000 9999 1180 4100 0 0
2019/10/25 15:19:00 BASE 23.25 350 27.88 340 1.0 100 1.0 461 0 989.0 NA 0.0000 9999 3480 4590 0 0
2019/10/25 15:20:00 BASE 23.21 353 27.88 340 1.1 100 1.1 472 0 989.0 NA 0.0000 9999 1250 3220 0 0
2019/10/25 15:21:00 BASE 22.65 357 27.88 340 1.1 100 1.1 334 0 989.2 NA 0.0000 9999 1050 23950 0 0
2019/10/25 15:22:00 BASE 23.65 0 29.22 1 1.1 100 1.1 310 0 989.0 NA 0.0000 9999 1150 0 0 0
2019/10/25 15:23:00 BASE 24.22 358 29.22 1 1.1 100 1.1 357 0 989.2 NA 0.0000 9999 1080 2660 0 0
2019/10/25 15:24:00 BASE 22.52 353 29.22 1 1.1 100 1.1 334 0 989.2 NA 0.0000 9999 980 0 0 0
2019/10/25 15:25:00 BASE 23.04 352 29.22 1 1.0 100 1.0 298 0 989.1 NA 0.0000 9999 1020 0 0 0
2019/10/25 15:26:00 BASE 23.02 351 29.22 1 1.0 100 1.0 362 0 989.3 NA 0.0000 9999 950 0 0 0
2019/10/25 15:27:00 BASE 22.31 355 29.22 1 1.0 100 1.0 350 0 989.3 NA 0.0000 9999 920 0 0 0
2019/10/25 15:28:00 BASE 23.24 354 29.22 1 1.0 100 1.0 360 0 989.2 NA 0.0000 9999 1020 0 0 0
2019/10/25 15:29:00 BASE 23.97 350 29.22 1 1.0 100 1.0 367 0 989.2 NA 0.0000 9999 980 0 0 0
2019/10/25 15:30:00 BASE 23.37 350 29.22 1 1.0 100 1.0 329 0 989.4 NA 0.0000 9999 1120 0 0 0
2019/10/25 15:31:00 BASE 22.78 348 29.22 1 1.0 100 1.0 308 0 989.3 NA 0.0000 9999 1050 4760 0 0
2019/10/25 15:32:00 BASE 23.97 349 30.15 344 1.0 100 1.0 310 0 989.2 NA 0.0000 9999 1080 0 0 0
2019/10/25 15:33:00 BASE 24.85 351 30.15 344 1.0 100 1.0 309 0 989.3 NA 0.0000 9999 1150 0 0 0
2019/10/25 15:34:00 BASE 23.31 353 30.15 344 1.0 100 1.0 315 0 989.4 NA 0.0000 9999 2590 3480 0 0
2019/10/25 15:35:00 BASE 22.11 359 30.15 344 1.0 100 1.0 318 0 989.4 NA 0.0000 9999 2690 3710 0 0
2019/10/25 15:36:00 BASE 21.78 4 30.15 344 1.0 100 1.0 330 0 989.5 NA 0.0000 9999 3810 0 0 0
2019/10/25 15:37:00 BASE 21.35 357 30.15 344 1.0 100 1.0 395 0 989.6 NA 0.0000 9999 1310 3810 0 0
2019/10/25 15:38:00 BASE 21.10 351 30.15 344 1.0 100 1.0 428 0 989.6 NA 0.0000 9999 4070 4530 0 0
2019/10/25 15:39:00 BASE 20.18 354 30.15 344 1.0 100 1.0 377 0 989.7 NA 0.0000 9999 1280 4200 0 0
2019/10/25 15:40:00 BASE 19.51 351 30.15 344 1.1 100 1.1 317 0 989.7 NA 0.0000 9999 3350 4230 0 0
2019/10/25 15:41:00 BASE 20.68 354 30.15 344 1.1 100 1.1 342 0 989.6 NA 0.0000 9999 4230 0 0 0
2019/10/25 15:42:00 BASE 23.26 359 28.96 344 1.1 100 1.1 367 0 989.5 NA 0.0000 9999 1120 3770 0 0
2019/10/25 15:43:00 BASE 23.86 359 27.99 347 1.1 100 1.1 264 0 989.6 NA 0.0000 9999 1150 0 0 0
2019/10/25 15:44:00 BASE 24.46 358 30.46 8 1.2 100 1.2 263 0 989.5 NA 0.0000 9999 1050 0 0 0
2019/10/25 15:45:00 BASE 25.57 357 30.46 8 1.2 100 1.2 332 0 989.5 NA 0.0000 9999 1050 0 0 0
2019/10/25 15:46:00 BASE 25.21 353 30.46 8 1.2 100 1.2 710 0 989.5 NA 0.0000 9999 1150 3610 0 0
2019/10/25 15:47:00 BASE 24.63 355 30.46 8 1.2 100 1.2 465 0 989.5 NA 0.0000 9999 1210 3480 0 0
2019/10/25 15:48:00 BASE 24.26 359 30.46 8 1.2 100 1.2 521 0 989.5 NA 0.0000 9999 1280 3940 0 0
2019/10/25 15:49:00 BASE 26.13 360 30.46 8 1.2 100 1.2 354 0 989.4 NA 0.0000 9999 1020 3940 0 0
2019/10/25 15:50:00 BASE 27.06 1 30.46 8 1.2 100 1.2 336 0 989.5 NA 0.0000 9999 4130 4760 0 0
2019/10/25 15:51:00 BASE 25.51 358 30.46 8 1.2 100 1.2 398 0 989.5 NA 0.0000 9999 4270 0 0 0
2019/10/25 15:52:00 BASE 25.28 357 30.46 8 1.3 100 1.3 768 0 989.5 NA 0.0000 9999 4070 0 0 0
2019/10/25 15:53:00 BASE 25.66 355 30.46 8 1.3 100 1.3 653 0 989.5 NA 0.0000 9999 3080 4360 0 0
2019/10/25 15:54:00 BASE 26.72 352 29.99 360 1.3 100 1.3 408 0 989.4 NA 0.0000 9999 3740 0 0 0
2019/10/25 15:55:00 BASE 26.49 350 29.99 360 1.4 100 1.4 632 0 989.5 NA 0.0000 9999 1180 3640 0 0
2019/10/25 15:56:00 BASE 25.41 352 29.99 360 1.4 100 1.4 934 0 989.6 NA 0.0000 9999 3450 0 0 0
2019/10/25 15:57:00 BASE 24.51 356 29.99 360 1.5 100 1.5 771 0 989.7 NA 0.0000 9999 1280 3410 0 0
2019/10/25 15:58:00 BASE 24.71 2 29.99 360 1.5 100 1.5 291 0 989.7 NA 0.0000 9999 1280 3510 0 0
2019/10/25 15:59:00 BASE 27.16 8 31.12 6 1.5 100 1.5 822 0 989.5 NA 0.0000 9999 1150 3740 0 0
2019/10/25 16:00:00 BASE 27.18 1 31.12 6 1.5 100 1.5 501 0 989.6 NA 0.0000 9999 1380 3610 0 0
2019/10/25 16:01:00 BASE 25.37 357 31.12 6 1.5 100 1.5 642 0 989.7 NA 0.0000 9999 3580 0 0 0
2019/10/25 16:02:00 BASE 25.77 356 31.12 6 1.5 100 1.5 496 0 989.7 NA 0.0000 9999 0 0 0 1250
2019/10/25 16:03:00 BASE 26.37 358 31.12 6 1.5 100 1.5 564 0 989.7 NA 0.0000 9999 3710 0 0 0
2019/10/25 16:04:00 BASE 26.40 2 31.12 6 1.5 100 1.5 323 0 989.7 NA 0.0000 9999 3450 0 0 0
2019/10/25 16:05:00 BASE 26.63 2 31.12 6 1.4 100 1.4 714 0 989.7 NA 0.0000 9999 1080 3480 0 0
2019/10/25 16:06:00 BASE 27.51 5 32.92 360 1.5 100 1.5 754 0 989.6 NA 0.0000 9999 3380 0 0 0
2019/10/25 16:07:00 BASE 26.22 2 32.92 360 1.5 100 1.5 717 0 989.8 NA 0.0000 9999 1570 0 0 0
2019/10/25 16:08:00 BASE 24.02 357 32.92 360 1.5 100 1.5 711 0 989.9 NA 0.0000 9999 0 0 0 950
2019/10/25 16:09:00 BASE 24.22 1 32.92 360 1.5 100 1.5 696 0 989.8 NA 0.0000 9999 0 0 0 1050
2019/10/25 16:10:00 BASE 24.87 0 32.92 360 1.5 100 1.5 694 0 989.9 NA 0.0000 9999 22470 0 0 0
2019/10/25 16:11:00 BASE 24.58 358 32.92 360 1.5 100 1.5 680 0 989.9 NA 0.0000 9999 0 0 0 1350
2019/10/25 16:12:00 BASE 23.80 0 32.92 360 1.5 100 1.5 702 0 990.0 NA 0.0000 9999 0 0 0 1280
2019/10/25 16:13:00 BASE 23.50 358 32.92 360 1.6 100 1.6 690 0 990.0 NA 0.0000 9999 1380 0 0 0
2019/10/25 16:14:00 BASE 23.70 353 32.92 360 1.6 100 1.6 702 0 990.0 NA 0.0000 9999 0 0 0 1050
2019/10/25 16:15:00 BASE 24.37 348 32.92 360 1.6 100 1.6 703 0 990.0 NA 0.0000 9999 0 0 0 1250
2019/10/25 16:16:00 BASE 24.33 348 27.68 1 1.6 100 1.6 559 0 990.0 NA 0.0000 9999 0 0 0 1210
2019/10/25 16:17:00 BASE 24.32 355 28.71 352 1.6 100 1.6 490 0 990.0 NA 0.0000 9999 0 0 0 1050
2019/10/25 16:18:00 BASE 24.64 357 28.71 352 1.6 100 1.6 641 0 989.9 NA 0.0000 9999 0 0 0 790
2019/10/25 16:19:00 BASE 24.62 354 28.71 352 1.6 100 1.6 611 0 990.0 NA 0.0000 9999 0 0 0 720
2019/10/25 16:20:00 BASE 24.28 351 28.71 352 1.6 100 1.6 584 0 990.1 NA 0.0000 9999 0 0 0 820
2019/10/25 16:21:00 BASE 25.22 352 28.71 352 1.6 100 1.6 261 0 990.0 NA 0.0000 9999 0 0 0 920
2019/10/25 16:22:00 BASE 25.50 355 28.71 352 1.6 100 1.6 188 0 990.1 NA 0.0000 9999 0 0 0 1080
2019/10/25 16:23:00 BASE 24.19 358 28.71 352 1.6 100 1.6 852 0 990.2 NA 0.0000 9999 0 0 0 950
2019/10/25 16:24:00 BASE 24.13 357 28.81 349 1.5 100 1.5 835 0 990.2 NA 0.0000 9999 4230 4760 0 0
2019/10/25 16:25:00 BASE 24.32 357 28.81 349 1.5 100 1.5 770 0 990.1 NA 0.0000 9999 4430 22080 0 0
2019/10/25 16:26:00 BASE 24.22 358 28.81 349 1.6 100 1.6 736 0 990.2 NA 0.0000 9999 0 0 0 1150
2019/10/25 16:27:00 BASE 25.30 359 28.81 349 1.6 100 1.6 729 0 990.1 NA 0.0000 9999 0 0 0 1440
2019/10/25 16:28:00 BASE 26.74 355 31.28 350 1.7 100 1.7 766 0 990.1 NA 0.0000 9999 0 0 0 1770
2019/10/25 16:29:00 BASE 26.73 353 31.28 350 1.7 100 1.7 428 0 990.2 NA 0.0000 9999 0 0 0 720
2019/10/25 16:30:00 BASE 25.26 352 31.28 350 1.8 100 1.8 878 0 990.2 NA 0.0000 9999 3580 0 0 0
2019/10/25 16:31:00 BASE 22.94 352 31.28 350 1.8 100 1.8 712 0 990.4 NA 0.0000 9999 3670 0 0 0
2019/10/25 16:32:00 BASE 21.61 358 31.28 350 1.8 100 1.8 409 0 990.4 NA 0.0000 9999 3740 0 0 0
2019/10/25 16:33:00 BASE 21.92 354 31.28 350 1.8 100 1.8 806 0 990.4 NA 0.0000 9999 3770 0 0 0
2019/10/25 16:34:00 BASE 21.58 354 31.28 350 1.8 100 1.8 254 0 990.5 NA 0.0000 9999 3900 0 0 0
2019/10/25 16:35:00 BASE 22.47 355 31.28 350 1.8 100 1.8 242 0 990.3 NA 0.0000 9999 0 0 0 1610
2019/10/25 16:36:00 BASE 23.08 351 31.28 350 1.7 100 1.7 723 0 990.4 NA 0.0000 9999 0 0 0 0
2019/10/25 16:37:00 BASE 22.01 352 31.28 350 1.7 100 1.7 756 0 990.4 NA 0.0000 9999 4660 6070 0 0
2019/10/25 16:38:00 BASE 22.99 358 28.19 8 1.7 100 1.7 771 0 990.3 NA 0.0000 9999 4270 0 0 0
2019/10/25 16:39:00 BASE 24.70 359 28.19 360 1.7 100 1.7 343 0 990.3 NA 0.0000 9999 0 0 0 0
2019/10/25 16:40:00 BASE 23.76 354 28.19 360 1.7 100 1.7 252 0 990.4 NA 0.0000 9999 0 0 0 0
2019/10/25 16:41:00 BASE 22.49 358 28.19 360 1.8 100 1.7 330 0 990.4 NA 0.0000 9999 0 0 0 0
2019/10/25 16:42:00 BASE 23.56 358 29.73 347 1.8 99 1.7 307 0 990.3 NA 0.0000 9999 11060 0 0 0
2019/10/25 16:43:00 BASE 24.73 354 29.73 347 1.8 99 1.6 337 0 990.3 NA 0.0000 9999 11060 0 0 0
2019/10/25 16:44:00 BASE 25.52 352 31.12 351 1.8 98 1.6 331 0 990.2 NA 0.0000 9999 0 0 0 0
2019/10/25 16:45:00 BASE 27.34 353 32.31 338 1.8 98 1.5 327 0 990.1 NA 0.0000 9999 10830 0 0 0
2019/10/25 16:46:00 BASE 26.32 352 32.31 338 1.8 98 1.5 313 0 990.3 NA 0.0000 9999 11710 0 0 0
2019/10/25 16:47:00 BASE 24.03 352 32.31 338 1.9 97 1.5 337 0 990.4 NA 0.0000 9999 11320 0 0 0
2019/10/25 16:48:00 BASE 25.00 351 32.31 338 1.9 97 1.4 586 0 990.3 NA 0.0000 9999 9840 0 0 0
2019/10/25 16:49:00 BASE 23.99 352 32.31 338 1.9 97 1.4 510 0 990.4 NA 0.0000 9999 9290 22870 0 0
2019/10/25 16:50:00 BASE 23.22 355 32.31 338 1.9 96 1.4 526 0 990.2 NA 0.0000 9999 9020 0 0 0
2019/10/25 16:51:00 BASE 23.98 356 32.31 338 1.9 96 1.4 619 0 990.2 NA 0.0000 9999 8890 0 0 0
2019/10/25 16:52:00 BASE 22.88 356 32.31 338 1.9 96 1.3 652 0 990.5 NA 0.0000 9999 8960 18500 20310 0
2019/10/25 16:53:00 BASE 20.95 349 32.31 338 1.9 96 1.4 403 0 990.6 NA 0.0000 9999 9320 0 0 0
2019/10/25 16:54:00 BASE 21.37 346 32.31 338 1.9 96 1.4 382 0 990.5 NA 0.0000 9999 9190 0 0 0
2019/10/25 16:55:00 BASE 23.69 357 29.63 347 1.9 97 1.4 364 0 990.4 NA 0.0000 9999 9840 0 0 0
2019/10/25 16:56:00 BASE 23.17 0 29.63 347 1.9 97 1.4 595 0 990.5 NA 0.0000 9999 9190 0 0 0
2019/10/25 16:57:00 BASE 23.05 0 29.63 347 1.9 97 1.4 668 0 990.4 NA 0.0000 9999 8790 0 0 0
2019/10/25 16:58:00 BASE 23.97 3 29.22 130 1.8 97 1.4 805 0 990.4 NA 0.0000 9999 8630 0 0 0
2019/10/25 16:59:00 BASE 23.40 0 29.22 130 1.9 97 1.4 879 0 990.5 NA 0.0000 9999 8400 8990 0 0
2019/10/25 17:00:00 BASE 23.90 355 29.22 130 1.9 97 1.5 511 0 990.4 NA 0.0000 9999 23030 0 0 0
2019/10/25 17:01:00 BASE 24.74 354 29.22 130 2.0 97 1.5 807 0 990.4 NA 0.0000 9999 9780 21980 0 0
2019/10/25 17:02:00 BASE 24.63 358 29.22 130 2.0 97 1.6 803 0 990.5 NA 0.0000 9999 1570 0 0 0
2019/10/25 17:03:00 BASE 23.76 358 29.22 130 2.0 97 1.6 529 0 990.5 NA 0.0000 9999 0 0 0 1050
2019/10/25 17:04:00 BASE 23.34 358 29.22 130 2.1 97 1.6 534 0 990.5 NA 0.0000 9999 0 0 0 750
2019/10/25 17:05:00 BASE 22.00 358 29.22 130 2.1 97 1.7 675 0 990.6 NA 0.0000 9999 0 0 0 620
2019/10/25 17:06:00 BASE 20.93 356 29.22 130 2.1 97 1.7 615 0 990.5 NA 0.0000 9999 0 0 0 560
2019/10/25 17:07:00 BASE 23.09 354 27.93 9 2.1 97 1.7 506 0 990.4 NA 0.0000 9999 0 0 0 560
2019/10/25 17:08:00 BASE 23.38 353 27.93 9 2.1 97 1.7 604 0 990.6 NA 0.0000 9999 0 0 0 0
2019/10/25 17:09:00 BASE 22.43 354 27.93 9 2.1 97 1.6 436 0 990.6 NA 0.0000 9999 0 0 0 850
2019/10/25 17:10:00 BASE 23.13 356 27.93 9 2.1 97 1.6 539 0 990.6 NA 0.0000 9999 10340 0 0 0
2019/10/25 17:11:00 BASE 22.16 359 27.93 9 2.1 96 1.6 364 0 990.7 NA 0.0000 9999 10340 0 0 0
2019/10/25 17:12:00 BASE 22.69 359 27.37 1 2.1 96 1.5 329 0 990.6 NA 0.0000 9999 8890 10660 0 0
2019/10/25 17:13:00 BASE 23.95 357 27.16 302 2.1 96 1.5 306 0 990.6 NA 0.0000 9999 10530 0 0 0
2019/10/25 17:14:00 BASE 24.02 1 27.83 5 2.0 96 1.5 291 0 990.7 NA 0.0000 9999 8460 0 0 0
2019/10/25 17:15:00 BASE 24.32 2 27.83 5 2.0 96 1.4 284 0 990.6 NA 0.0000 9999 8140 0 0 0
2019/10/25 17:16:00 BASE 24.18 3 27.83 5 2.0 96 1.4 280 0 990.7 NA 0.0000 9999 9910 22440 0 0
2019/10/25 17:17:00 BASE 24.90 3 27.83 5 1.9 96 1.4 277 0 990.6 NA 0.0000 9999 7840 0 0 0
2019/10/25 17:18:00 BASE 26.41 0 30.71 360 1.8 96 1.3 291 0 990.6 NA 0.0000 9999 7580 0 0 0
2019/10/25 17:19:00 BASE 27.32 359 30.71 360 1.8 97 1.3 275 0 990.5 NA 0.0000 9999 2990 7780 0 0
2019/10/25 17:20:00 BASE 27.00 356 30.71 360 1.7 97 1.4 247 0 990.6 NA 0.0000 9999 2890 7680 0 0
2019/10/25 17:21:00 BASE 26.59 359 30.71 360 1.7 98 1.4 239 0 990.6 NA 0.0000 9999 2660 5180 0 0
2019/10/25 17:22:00 BASE 27.67 2 31.38 5 1.7 98 1.5 221 0 990.5 NA 0.0000 9999 7610 0 0 0
2019/10/25 17:23:00 BASE 28.00 3 31.38 5 1.7 99 1.5 214 0 990.5 NA 0.0000 9999 4130 7450 0 0
2019/10/25 17:24:00 BASE 27.20 1 31.38 5 1.7 99 1.6 212 0 990.6 NA 0.0000 9999 3180 5710 0 0
2019/10/25 17:25:00 BASE 27.08 2 31.38 5 1.6 100 1.6 205 0 990.6 NA 0.0000 9999 6790 0 0 0
2019/10/25 17:26:00 BASE 27.72 4 31.48 360 1.6 100 1.6 204 0 990.5 NA 0.0000 9999 5120 0 0 0
2019/10/25 17:27:00 BASE 28.00 3 31.48 360 1.6 100 1.6 191 0 990.6 NA 0.0000 9999 1900 2950 0 0
2019/10/25 17:28:00 BASE 27.40 3 31.48 360 1.6 100 1.6 181 0 990.6 NA 0.0000 9999 4100 6200 0 0
2019/10/25 17:29:00 BASE 27.48 4 31.48 360 1.7 100 1.7 187 0 990.6 NA 0.0000 9999 3280 4300 0 0
2019/10/25 17:30:00 BASE 27.64 3 31.48 360 1.7 100 1.7 191 0 990.7 NA 0.0000 9999 0 0 0 2330
2019/10/25 17:31:00 BASE 28.04 4 31.84 360 1.7 100 1.7 189 0 990.6 NA 0.0000 9999 3510 0 0 0
2019/10/25 17:32:00 BASE 27.50 2 31.84 360 1.7 100 1.7 180 0 990.2 NA 0.0000 9999 0 0 0 1510
2019/10/25 17:33:00 BASE 26.33 2 31.84 360 1.7 100 1.7 162 0 990.8 NA 0.0000 9999 3810 0 0 0
2019/10/25 17:34:00 BASE 25.71 7 31.84 360 1.7 100 1.7 145 0 990.8 NA 0.0000 9999 0 0 0 5840
2019/10/25 17:35:00 BASE 25.27 6 31.84 360 1.7 100 1.7 136 0 990.8 NA 0.0000 9999 2530 0 0 0
2019/10/25 17:36:00 BASE 25.85 5 31.84 360 1.7 100 1.7 139 0 990.8 NA 0.0000 9999 3510 0 0 0
2019/10/25 17:37:00 BASE 25.57 4 31.84 360 1.7 100 1.7 140 0 990.8 NA 0.0000 UP 9999 2400 3250 0 0
2019/10/25 17:38:00 BASE 23.95 1 31.84 360 1.6 100 1.6 147 0 990.9 NA 0.0000 UP 9999 2530 3220 0 0
2019/10/25 17:39:00 BASE 24.00 1 31.84 360 1.6 100 1.6 155 0 990.8 NA 0.0000 UP 9999 2560 3480 0 0
2019/10/25 17:40:00 BASE 25.92 4 31.84 360 1.6 100 1.6 161 0 990.7 NA 0.0000 UP 9999 1740 6140 0 0
2019/10/25 17:41:00 BASE 25.54 5 29.48 2 1.6 100 1.6 165 0 990.8 NA 0.0000 UP 9999 1800 6070 0 0
2019/10/25 17:42:00 BASE 24.67 5 28.50 6 1.6 100 1.6 167 0 990.7 NA 0.0000 UP 9999 2760 6370 0 0
2019/10/25 17:43:00 BASE 25.09 5 28.35 2 1.6 100 1.6 169 0 990.8 NA 0.0000 UP 9999 2850 6200 0 0
2019/10/25 17:44:00 BASE 24.70 4 28.35 2 1.6 100 1.6 172 0 990.7 NA 0.0000 UP 9999 6530 0 0 0
2019/10/25 17:45:00 BASE 25.33 5 28.35 2 1.6 100 1.6 184 0 990.6 NA 0.0000 UP 9999 0 0 0 1540
2019/10/25 17:46:00 BASE 27.14 4 30.35 349 1.6 100 1.6 195 0 990.5 NA 0.0000 9999 6140 0 0 0
2019/10/25 17:47:00 BASE 27.61 6 30.35 349 1.6 100 1.6 201 0 990.6 NA 0.0000 9999 8370 0 0 0
2019/10/25 17:48:00 BASE 27.16 9 30.35 349 1.6 100 1.6 209 0 990.5 NA 0.0000 9999 5710 0 0 0
2019/10/25 17:49:00 BASE 27.64 9 30.35 349 1.6 100 1.6 222 0 990.4 NA 0.0000 9999 5870 0 0 0
2019/10/25 17:50:00 BASE 28.00 10 30.35 349 1.6 100 1.6 244 0 990.4 NA 0.0000 9999 5870 0 0 0
2019/10/25 17:51:00 BASE 27.87 11 30.35 349 1.6 100 1.6 269 0 990.4 NA 0.0000 9999 5970 0 0 0
2019/10/25 17:52:00 BASE 28.67 11 31.74 8 1.6 100 1.6 287 0 990.3 NA 0.0000 9999 5940 0 0 0
2019/10/25 17:53:00 BASE 29.17 10 31.74 8 1.6 100 1.6 298 0 990.4 NA 0.0000 9999 6100 0 0 0
2019/10/25 17:54:00 BASE 28.50 10 31.74 8 1.6 100 1.6 305 0 990.4 NA 0.0000 9999 6070 0 0 0
2019/10/25 17:55:00 BASE 28.40 11 31.74 8 1.6 100 1.6 322 0 990.4 NA 0.0000 9999 5940 0 0 0
2019/10/25 17:56:00 BASE 28.18 11 31.74 8 1.6 100 1.6 304 0 990.5 NA 0.0000 9999 5870 0 0 0
2019/10/25 17:57:00 BASE 26.88 13 31.74 8 1.7 100 1.7 306 0 990.5 NA 0.0000 9999 5640 0 0 0
2019/10/25 17:58:00 BASE 26.08 14 31.74 8 1.7 100 1.7 285 0 990.5 NA 0.0000 9999 5680 0 0 0
2019/10/25 17:59:00 BASE 25.78 15 31.74 8 1.6 100 1.6 268 0 990.5 NA 0.0000 9999 5870 0 0 0
2019/10/25 18:00:00 BASE 25.77 16 31.74 8 1.6 100 1.6 259 0 990.6 NA 0.0000 9999 0 0 0 1610
2019/10/25 18:01:00 BASE 25.22 14 31.74 8 1.6 100 1.6 254 0 990.6 NA 0.0000 9999 5840 23660 0 0
2019/10/25 18:02:00 BASE 25.39 13 31.33 8 1.6 100 1.6 248 0 990.5 NA 0.0000 9999 5280 5940 0 0
2019/10/25 18:03:00 BASE 26.49 12 31.33 8 1.6 100 1.6 241 0 990.6 NA 0.0000 9999 3640 4790 0 0
2019/10/25 18:04:00 BASE 26.37 12 31.33 8 1.6 100 1.6 237 0 990.6 NA 0.0000 9999 3510 4630 0 0
2019/10/25 18:05:00 BASE 26.57 13 30.76 14 1.6 100 1.6 243 0 990.6 NA 0.0000 9999 4490 5090 0 0
2019/10/25 18:06:00 BASE 26.52 13 29.27 15 1.6 100 1.6 252 0 990.6 NA 0.0000 9999 3120 0 0 0
2019/10/25 18:07:00 BASE 26.38 15 29.48 14 1.6 100 1.6 250 0 990.6 NA 0.0000 9999 5610 6790 0 0
2019/10/25 18:08:00 BASE 27.32 16 32.10 14 1.5 100 1.5 242 0 990.5 NA 0.0000 9999 0 0 0 2000
2019/10/25 18:09:00 BASE 27.17 15 32.10 14 1.5 100 1.5 231 0 990.6 NA 0.0000 9999 0 0 0 1540
2019/10/25 18:10:00 BASE 25.83 15 32.10 14 1.5 100 1.5 224 0 990.7 NA 0.0000 9999 0 0 0 1250
2019/10/25 18:11:00 BASE 25.88 14 32.10 14 1.5 100 1.5 220 0 990.6 NA 0.0000 9999 0 0 0 1210
2019/10/25 18:12:00 BASE 26.88 11 32.10 14 1.5 100 1.5 217 0 990.5 NA 0.0000 9999 0 0 0 1310
2019/10/25 18:13:00 BASE 26.17 12 32.10 14 1.5 100 1.5 212 0 990.7 NA 0.0000 9999 0 0 0 1150
2019/10/25 18:14:00 BASE 25.75 13 32.10 14 1.5 100 1.5 201 0 990.6 NA 0.0000 9999 0 0 0 1280
2019/10/25 18:15:00 BASE 27.08 13 32.10 14 1.4 100 1.4 183 0 990.6 NA 0.0000 9999 0 0 0 1250
2019/10/25 18:16:00 BASE 26.56 12 32.10 14 1.4 100 1.4 167 0 990.7 NA 0.0000 9999 0 0 0 1250
2019/10/25 18:17:00 BASE 26.00 13 32.10 14 1.4 100 1.4 163 0 990.6 NA 0.0000 9999 0 0 0 1310
2019/10/25 18:18:00 BASE 26.46 14 30.25 3 1.4 100 1.4 181 0 990.7 NA 0.0000 9999 0 0 0 1180
2019/10/25 18:19:00 BASE 26.36 13 30.25 3 1.4 100 1.4 218 0 990.6 NA 0.0000 9999 0 0 0 4070
2019/10/25 18:20:00 BASE 26.76 14 30.25 3 1.4 100 1.4 261 0 990.6 NA 0.0000 9999 22700 0 0 0
2019/10/25 18:21:00 BASE 27.04 13 30.25 3 1.4 100 1.4 280 0 990.6 NA 0.0000 9999 0 0 0 3970
2019/10/25 18:22:00 BASE 26.92 10 29.84 10 1.4 100 1.4 284 0 990.6 NA 0.0000 9999 0 0 0 4950
2019/10/25 18:23:00 BASE 26.48 9 29.84 10 1.4 100 1.4 295 0 990.7 NA 0.0000 9999 1740 0 0 0
2019/10/25 18:24:00 BASE 26.00 9 29.84 10 1.5 100 1.5 301 0 990.7 NA 0.0000 9999 0 0 0 4460
2019/10/25 18:25:00 BASE 26.09 10 29.58 8 1.5 100 1.5 309 0 990.7 NA 0.0000 9999 0 0 0 2850
2019/10/25 18:26:00 BASE 26.08 9 29.58 8 1.6 100 1.6 385 0 990.8 NA 0.0000 9999 0 0 0 1610
2019/10/25 18:27:00 BASE 25.95 10 29.58 8 1.6 100 1.6 504 0 990.8 NA 0.0000 9999 3940 6630 0 0
2019/10/25 18:28:00 BASE 26.57 12 29.58 8 1.6 100 1.6 390 0 990.7 NA 0.0000 9999 4040 0 0 0
2019/10/25 18:29:00 BASE 27.83 13 31.95 13 1.6 100 1.6 364 0 990.6 NA 0.0000 9999 20600 0 0 0
2019/10/25 18:30:00 BASE 28.23 12 31.95 13 1.6 100 1.6 343 0 990.7 NA 0.0000 9999 0 0 0 1380
2019/10/25 18:31:00 BASE 28.37 12 33.18 14 1.6 100 1.6 315 0 990.6 NA 0.0000 9999 2850 23390 0 0
2019/10/25 18:32:00 BASE 28.72 13 33.18 14 1.6 100 1.6 295 0 990.6 NA 0.0000 9999 1870 3670 0 0
2019/10/25 18:33:00 BASE 28.24 15 33.18 14 1.6 100 1.6 260 0 990.7 NA 0.0000 9999 1770 2620 0 0
2019/10/25 18:34:00 BASE 28.22 13 33.18 14 1.6 100 1.6 225 0 990.7 NA 0.0000 9999 1740 2990 0 0
2019/10/25 18:35:00 BASE 28.64 9 33.18 14 1.5 100 1.5 199 0 990.7 NA 0.0000 9999 2890 0 0 0
2019/10/25 18:36:00 BASE 27.73 10 33.18 14 1.5 100 1.5 206 0 990.8 NA 0.0000 9999 1800 3120 0 0
2019/10/25 18:37:00 BASE 26.67 9 33.18 14 1.5 100 1.5 187 0 990.8 NA 0.0000 9999 0 0 0 2330
2019/10/25 18:38:00 BASE 26.74 8 33.18 14 1.5 100 1.5 162 0 990.8 NA 0.0000 9999 2990 0 0 0
2019/10/25 18:39:00 BASE 27.08 9 33.18 14 1.5 100 1.5 150 0 990.8 NA 0.0000 9999 2920 0 0 0
2019/10/25 18:40:00 BASE 27.05 9 33.18 14 1.5 100 1.5 155 0 990.8 NA 0.0000 9999 3220 3770 0 0
2019/10/25 18:41:00 BASE 27.11 10 31.74 17 1.4 100 1.4 163 0 990.7 NA 0.0000 9999 3670 5150 0 0
2019/10/25 18:42:00 BASE 27.50 12 31.54 3 1.4 100 1.4 178 0 990.7 NA 0.0000 9999 5180 7350 0 0
2019/10/25 18:43:00 BASE 27.37 12 31.54 3 1.4 100 1.4 202 0 990.7 NA 0.0000 9999 7320 0 0 0
2019/10/25 18:44:00 BASE 27.02 13 31.54 3 1.4 100 1.4 226 0 990.7 NA 0.0000 9999 4200 5580 0 0
2019/10/25 18:45:00 BASE 27.74 13 31.07 4 1.4 100 1.4 247 0 990.6 NA 0.0000 9999 7380 0 0 0
2019/10/25 18:46:00 BASE 28.42 13 31.18 11 1.4 100 1.4 264 0 990.6 NA 0.0000 9999 0 0 0 1640
2019/10/25 18:47:00 BASE 28.09 12 31.18 11 1.4 100 1.4 271 0 990.7 NA 0.0000 9999 5640 0 0 0
2019/10/25 18:48:00 BASE 28.21 12 31.18 11 1.4 100 1.4 270 0 990.6 NA 0.0000 9999 7550 0 0 0
2019/10/25 18:49:00 BASE 27.67 12 31.18 11 1.4 100 1.4 255 0 990.7 NA 0.0000 9999 5180 0 0 0
2019/10/25 18:50:00 BASE 28.16 13 31.79 12 1.5 100 1.5 241 0 990.6 NA 0.0000 9999 0 0 0 1870
2019/10/25 18:51:00 BASE 29.13 11 32.15 360 1.5 100 1.5 224 0 990.5 NA 0.0000 9999 0 0 0 2990
2019/10/25 18:52:01 BASE 29.21 9 32.15 360 1.5 100 1.5 195 0 990.5 NA 0.0000 9999 1740 2920 0 0
2019/10/25 18:53:00 BASE 29.28 10 32.15 360 1.5 100 1.5 182 0 990.6 NA 0.0000 9999 1640 0 0 0
2019/10/25 18:54:00 BASE 28.82 9 32.15 360 1.5 100 1.5 170 0 990.6 NA 0.0000 9999 1670 2820 0 0
2019/10/25 18:55:00 BASE 27.61 8 32.15 360 1.5 100 1.5 161 0 990.8 NA 0.0000 9999 2360 0 0 0
2019/10/25 18:56:00 BASE 25.39 9 32.15 360 1.5 100 1.5 170 0 990.9 NA 0.0000 9999 1770 3150 0 0
2019/10/25 18:57:00 BASE 24.78 6 32.15 360 1.5 100 1.5 184 0 990.8 NA 0.0000 9999 2920 0 0 0
2019/10/25 18:58:00 BASE 26.76 3 32.15 360 1.5 100 1.5 195 0 990.7 NA 0.0000 9999 2950 4070 0 0
2019/10/25 18:59:00 BASE 28.26 4 32.15 360 1.5 100 1.5 202 0 990.7 NA 0.0000 9999 1510 3120 0 0
2019/10/25 19:00:00 BASE 27.70 5 32.15 360 1.5 100 1.5 194 0 990.8 NA 0.0000 9999 3280 0 0 0
2019/10/25 19:01:00 BASE 26.91 4 32.10 8 1.5 100 1.5 198 0 990.8 NA 0.0000 9999 3350 0 0 0
2019/10/25 19:02:00 BASE 26.66 3 32.10 8 1.5 100 1.5 179 0 990.8 NA 0.0000 9999 3050 0 0 0
2019/10/25 19:03:00 BASE 26.59 3 32.10 8 1.5 100 1.5 162 0 990.8 NA 0.0000 9999 1900 4630 0 0
2019/10/25 19:04:00 BASE 27.73 5 31.28 9 1.5 100 1.5 185 0 990.7 NA 0.0000 9999 1800 2920 0 0
2019/10/25 19:05:00 BASE 28.53 5 31.28 9 1.6 100 1.6 188 0 990.7 NA 0.0000 9999 2920 0 0 0
2019/10/25 19:06:00 BASE 27.18 4 31.28 9 1.6 100 1.6 175 0 990.9 NA 0.0000 9999 1610 0 0 0
2019/10/25 19:07:00 BASE 26.40 4 31.28 9 1.6 100 1.6 171 0 990.9 NA 0.0000 9999 2330 0 0 0
2019/10/25 19:08:00 BASE 26.01 2 30.46 3 1.6 100 1.6 174 0 990.9 NA 0.0000 9999 1900 4070 0 0
2019/10/25 19:09:00 BASE 27.17 3 31.43 9 1.6 100 1.6 164 0 990.7 NA 0.0000 9999 1840 21160 0 0
2019/10/25 19:10:00 BASE 28.52 6 31.43 9 1.6 100 1.6 160 0 990.7 NA 0.0000 9999 1670 2790 0 0
2019/10/25 19:11:00 BASE 28.63 7 32.10 9 1.6 100 1.6 150 0 990.7 NA 0.0000 9999 3580 0 0 0
2019/10/25 19:12:00 BASE 29.57 7 32.98 5 1.6 100 1.6 165 0 990.6 NA 0.0000 9999 1640 0 0 0
2019/10/25 19:13:01 BASE 30.11 5 32.98 5 1.6 100 1.6 204 0 990.6 NA 0.0000 9999 1770 3670 0 0
2019/10/25 19:14:00 BASE 28.48 3 32.98 5 1.6 100 1.6 230 0 990.8 NA 0.0000 9999 3640 0 0 0
2019/10/25 19:15:00 BASE 25.96 2 32.98 5 1.6 100 1.6 245 0 990.9 NA 0.0000 9999 1540 3770 0 0
2019/10/25 19:16:00 BASE 26.93 4 32.98 5 1.6 100 1.6 238 0 990.7 NA 0.0000 9999 3540 0 0 0
2019/10/25 19:17:00 BASE 28.75 7 32.98 5 1.6 100 1.6 231 0 990.7 NA 0.0000 9999 0 0 0 1480
2019/10/25 19:18:00 BASE 28.61 9 32.98 5 1.6 100 1.6 228 0 990.8 NA 0.0000 9999 0 0 0 1740
2019/10/25 19:19:01 BASE 27.31 12 32.98 5 1.6 100 1.6 225 0 990.8 NA 0.0000 9999 1740 4890 0 0
2019/10/25 19:20:01 BASE 27.54 12 32.98 5 1.6 100 1.6 214 0 990.7 NA 0.0000 9999 3410 4490 0 0
2019/10/25 19:21:00 BASE 29.30 11 32.98 5 1.6 100 1.6 194 0 990.7 NA 0.0000 9999 3480 5450 0 0
2019/10/25 19:22:00 BASE 29.59 10 32.77 1 1.6 100 1.6 172 0 990.7 NA 0.0000 9999 5320 23260 0 0
2019/10/25 19:23:00 BASE 28.47 10 31.43 7 1.5 100 1.5 151 0 990.8 NA 0.0000 9999 4990 5450 0 0
2019/10/25 19:24:00 BASE 27.91 11 31.43 7 1.5 100 1.5 125 0 990.7 NA 0.0000 9999 3840 4400 0 0
2019/10/25 19:25:00 BASE 28.93 11 31.43 7 1.4 100 1.4 106 0 990.7 NA 0.0000 9999 3870 4560 0 0
2019/10/25 19:26:00 BASE 29.44 11 32.20 11 1.4 100 1.4 95 0 990.7 NA 0.0000 9999 3350 0 0 0
2019/10/25 19:27:00 BASE 29.71 10 32.41 6 1.4 100 1.4 88 0 990.7 NA 0.0000 9999 1900 3770 0 0
2019/10/25 19:28:01 BASE 29.64 10 32.41 6 1.4 100 1.4 84 0 990.7 NA 0.0000 9999 3280 0 0 0
2019/10/25 19:29:00 BASE 27.91 11 32.41 6 1.5 100 1.5 87 0 990.9 NA 0.0000 9999 3840 0 0 0
2019/10/25 19:30:00 BASE 27.83 11 32.41 6 1.5 100 1.5 98 0 990.7 NA 0.0000 9999 1770 3640 0 0
2019/10/25 19:31:00 BASE 27.41 12 32.41 6 1.5 100 1.5 113 0 990.9 NA 0.0000 9999 3640 0 0 0
2019/10/25 19:32:00 BASE 25.20 10 32.41 6 1.5 100 1.5 116 0 990.9 NA 0.0000 9999 3940 22150 0 0
2019/10/25 19:33:00 BASE 24.83 12 32.41 6 1.5 100 1.5 114 0 991.0 NA 0.0000 9999 4530 0 0 0
2019/10/25 19:34:00 BASE 25.70 14 32.41 6 1.5 100 1.5 107 0 990.9 NA 0.0000 9999 2200 4170 0 0
2019/10/25 19:35:00 BASE 26.57 13 32.41 6 1.4 100 1.4 97 0 990.9 NA 0.0000 9999 4000 0 0 0
2019/10/25 19:36:00 BASE 26.61 13 32.41 6 1.4 100 1.4 90 0 990.9 NA 0.0000 9999 4130 0 0 0
2019/10/25 19:37:00 BASE 27.39 13 31.07 14 1.4 100 1.4 71 0 990.9 NA 0.0000 9999 3970 4630 0 0
2019/10/25 19:38:00 BASE 27.49 11 31.07 14 1.4 100 1.4 80 0 991.0 NA 0.0000 9999 1800 0 0 0
2019/10/25 19:39:00 BASE 27.81 10 32.56 7 1.4 100 1.4 98 0 990.8 NA 0.0000 9999 1840 2760 0 0
2019/10/25 19:40:01 BASE 29.04 7 32.56 7 1.4 100 1.4 114 0 990.8 NA 0.0000 9999 2530 3840 0 0
2019/10/25 19:41:01 BASE 28.61 7 32.56 7 1.4 100 1.4 122 0 990.9 NA 0.0000 9999 1540 4070 0 0
2019/10/25 19:42:00 BASE 27.50 8 32.56 7 1.5 100 1.5 134 0 990.9 NA 0.0000 9999 2620 4200 0 0
2019/10/25 19:43:01 BASE 25.71 8 32.56 7 1.5 100 1.5 136 0 991.0 NA 0.0000 9999 2620 0 0 0
2019/10/25 19:44:00 BASE 25.86 9 32.56 7 1.5 100 1.5 135 0 990.8 NA 0.0000 9999 2660 0 0 0
2019/10/25 19:45:00 BASE 27.08 13 32.56 7 1.5 100 1.5 139 0 990.8 NA 0.0000 9999 2720 3450 0 0
2019/10/25 19:46:00 BASE 27.03 15 32.56 7 1.4 100 1.4 133 0 990.8 NA 0.0000 UP 9999 0 0 0 6690
2019/10/25 19:47:00 BASE 27.72 16 32.56 7 1.4 100 1.4 131 0 990.8 NA 0.0000 UP 9999 4690 0 0 0
2019/10/25 19:48:00 BASE 28.96 17 32.56 7 1.4 100 1.4 122 0 990.7 NA 0.0000 UP 9000 0 0 0 5840
2019/10/25 19:49:00 BASE 28.96 18 32.05 10 1.3 100 1.3 106 0 990.8 NA 0.0000 -SN 9999 0 0 0 5320
2019/10/25 19:50:00 BASE 28.74 19 32.05 10 1.3 100 1.3 99 0 990.7 NA 0.0000 -SN 9999 0 0 0 4460
2019/10/25 19:51:00 BASE 29.55 20 32.26 15 1.3 100 1.3 96 0 990.7 NA 0.0000 -SN 9999 0 0 0 4270
2019/10/25 19:52:00 BASE 29.00 19 32.26 15 1.2 100 1.2 92 0 990.8 NA 0.0000 -SN 9000 0 0 0 4920
2019/10/25 19:53:00 BASE 28.08 15 32.26 15 1.2 100 1.2 100 0 990.8 NA 0.0000 -SN 9000 360 0 0 0
2019/10/25 19:54:00 BASE 27.94 14 32.26 15 1.2 100 1.2 109 0 990.8 NA 0.0000 -SN BR 6000 300 0 0 0
2019/10/25 19:55:00 BASE 27.33 15 32.26 15 1.2 100 1.2 123 0 990.8 NA 0.0000 -SN BR 9999 1900 2850 0 0
2019/10/25 19:56:00 BASE 27.40 14 32.26 15 1.2 100 1.2 114 0 990.8 NA 0.0000 -SN 9999 3410 21490 0 0
2019/10/25 19:57:00 BASE 27.95 16 32.26 15 1.2 100 1.2 103 0 990.8 NA 0.0000 -SN 9999 1970 0 0 0
2019/10/25 19:58:00 BASE 28.09 16 32.26 15 1.3 100 1.3 118 0 990.7 NA 0.0000 -SN 9999 2920 3610 0 0
2019/10/25 19:59:00 BASE 27.84 16 32.26 15 1.3 100 1.3 139 0 990.9 NA 0.0000 -SN 9999 3450 0 0 0
2019/10/25 20:00:00 BASE 27.99 16 32.26 15 1.3 100 1.3 133 0 990.8 NA 0.0000 -SN 9999 6140 0 0 0
2019/10/25 20:01:00 BASE 27.82 14 31.69 9 1.3 100 1.3 118 0 990.9 NA 0.0000 -SN 9999 1710 0 0 0
2019/10/25 20:02:00 BASE 28.63 16 32.31 16 1.3 100 1.3 99 0 990.8 NA 0.0000 -SN 9999 1440 0 0 0
2019/10/25 20:03:00 BASE 29.06 17 32.31 16 1.3 100 1.3 84 0 990.9 NA 0.0000 -SN 9999 1480 0 0 0
2019/10/25 20:04:00 BASE 28.11 16 32.31 16 1.3 100 1.3 61 0 990.9 NA 0.0000 9999 1610 3770 0 0
2019/10/25 20:05:00 BASE 27.85 11 32.31 16 1.3 100 1.3 59 0 991.0 NA 0.0000 9999 1380 0 0 0
2019/10/25 20:06:00 BASE 26.45 8 32.31 16 1.2 100 1.2 71 0 991.1 NA 0.0000 9999 1250 0 0 0
2019/10/25 20:07:00 BASE 25.93 8 32.31 16 1.2 100 1.2 94 0 991.0 NA 0.0000 9000 330 1710 0 0
2019/10/25 20:08:00 BASE 26.25 10 32.31 16 1.2 100 1.2 108 0 991.0 NA 0.0000 -SN 9999 360 0 0 0
2019/10/25 20:09:00 BASE 27.58 11 32.56 10 1.1 100 1.1 114 0 990.9 NA 0.0000 -SN 9999 1570 0 0 0
2019/10/25 20:10:00 BASE 28.58 9 32.56 10 1.1 100 1.1 117 0 990.9 NA 0.0000 -SN 9999 3380 24440 0 0
2019/10/25 20:11:00 BASE 28.23 8 32.56 10 1.1 100 1.1 112 0 990.9 NA 0.0000 -SN 9999 2760 5220 0 0
2019/10/25 20:12:00 BASE 26.82 6 32.56 10 1.1 100 1.1 102 0 991.1 NA 0.0000 -SN 9999 4200 0 0 0
2019/10/25 20:13:00 BASE 25.71 5 32.56 10 1.1 100 1.1 106 0 991.1 NA 0.0000 -SN 9999 1770 3220 0 0
2019/10/25 20:14:00 BASE 26.84 7 32.56 10 1.1 100 1.1 127 0 990.9 NA 0.0000 -SN 9999 3250 0 0 0
2019/10/25 20:15:00 BASE 28.74 7 32.56 10 1.1 100 1.1 137 0 990.8 NA 0.0000 -SN 9999 1440 0 0 0
2019/10/25 20:16:00 BASE 29.21 6 32.56 10 1.1 100 1.1 134 0 991.0 NA 0.0000 -SN 9999 5120 0 0 0
2019/10/25 20:17:00 BASE 28.27 7 32.56 10 1.1 100 1.1 130 0 991.0 NA 0.0000 -SN 9999 4860 0 0 0
2019/10/25 20:18:00 BASE 29.27 9 32.56 10 1.1 100 1.1 130 0 990.8 NA 0.0000 -SN 9999 4460 22080 0 0
2019/10/25 20:19:00 BASE 29.26 10 32.41 10 1.2 100 1.2 132 0 990.9 NA 0.0000 9999 5220 0 0 0
2019/10/25 20:20:01 BASE 29.05 10 32.46 11 1.2 100 1.2 135 0 990.9 NA 0.0000 9999 5120 0 0 0
2019/10/25 20:21:00 BASE 30.25 9 32.46 11 1.2 100 1.2 127 0 990.9 NA 0.0000 9999 1640 0 0 0
2019/10/25 20:22:00 BASE 29.57 6 32.46 11 1.2 100 1.2 115 0 991.0 NA 0.0000 9999 0 0 0 1610
2019/10/25 20:23:00 BASE 27.66 1 32.46 11 1.2 100 1.2 116 0 991.1 NA 0.0000 9999 1310 0 0 0
2019/10/25 20:24:00 BASE 26.35 359 32.46 11 1.2 100 1.2 125 0 991.1 NA 0.0000 9999 5350 0 0 0
2019/10/25 20:25:00 BASE 28.46 5 33.64 9 1.2 100 1.2 134 0 990.8 NA 0.0000 9999 750 4170 0 0
2019/10/25 20:26:00 BASE 30.73 8 34.83 354 1.2 100 1.2 132 0 990.8 NA 0.0000 9999 0 0 0 1840
2019/10/25 20:27:00 BASE 29.52 7 34.83 354 1.2 100 1.2 121 0 990.9 NA 0.0000 9999 1350 0 0 0
2019/10/25 20:28:00 BASE 28.46 4 34.83 354 1.2 100 1.2 118 0 990.9 NA 0.0000 9999 1310 0 0 0
2019/10/25 20:29:00 BASE 27.73 6 34.83 354 1.2 100 1.2 117 0 991.0 NA 0.0000 9999 1350 0 0 0
2019/10/25 20:30:00 BASE 28.42 11 34.83 354 1.3 100 1.3 115 0 990.9 NA 0.0000 9999 1180 0 0 0
2019/10/25 20:31:00 BASE 29.47 6 34.83 354 1.3 100 1.3 115 0 990.9 NA 0.0000 9999 890 0 0 0
2019/10/25 20:32:00 BASE 28.41 1 34.83 354 1.3 100 1.3 119 0 990.9 NA 0.0000 9999 1210 3250 0 0
2019/10/25 20:33:00 BASE 29.56 3 34.83 354 1.3 100 1.3 122 0 990.8 NA 0.0000 9999 1570 4490 0 0
2019/10/25 20:34:00 BASE 31.50 4 34.83 354 1.3 100 1.3 124 0 990.7 NA 0.0000 9999 1250 0 0 0
2019/10/25 20:35:00 BASE 31.38 4 34.83 354 1.3 100 1.3 140 0 990.7 NA 0.0000 9999 1120 0 0 0
2019/10/25 20:36:00 BASE 30.96 5 34.67 360 1.3 100 1.3 131 0 990.8 NA 0.0000 9999 1510 0 0 0
2019/10/25 20:37:00 BASE 31.58 4 36.32 4 1.4 100 1.4 128 0 990.7 NA 0.0000 9999 0 0 0 1840
2019/10/25 20:38:00 BASE 32.22 6 36.32 4 1.4 100 1.4 140 0 990.7 NA 0.0000 9999 1410 0 0 0
2019/10/25 20:39:00 BASE 33.19 8 37.61 8 1.4 100 1.4 166 0 990.5 NA 0.0000 9999 1150 0 0 0
2019/10/25 20:40:00 BASE 32.56 8 37.61 8 1.4 100 1.4 184 0 990.7 NA 0.0000 9999 1510 0 0 0
2019/10/25 20:41:00 BASE 31.56 6 37.61 8 1.5 100 1.5 202 0 990.7 NA 0.0000 9999 0 0 0 4720
2019/10/25 20:42:00 BASE 31.22 8 37.61 8 1.5 100 1.5 218 0 990.8 NA 0.0000 9999 0 0 0 4000
2019/10/25 20:43:00 BASE 30.26 12 37.61 8 1.5 100 1.5 233 0 990.8 NA 0.0000 9999 0 0 0 4270
2019/10/25 20:44:00 BASE 31.29 12 37.61 8 1.5 100 1.5 230 0 990.7 NA 0.0000 UP 9999 0 0 0 3410
2019/10/25 20:45:00 BASE 30.90 11 37.61 8 1.4 100 1.4 210 0 990.9 NA 0.0000 UP 9999 0 0 0 3250
2019/10/25 20:46:00 BASE 29.59 13 37.61 8 1.3 100 1.3 186 0 990.9 NA 0.0000 UP 9999 1180 0 0 0
2019/10/25 20:47:00 BASE 28.78 14 37.61 8 1.2 100 1.2 161 0 990.9 NA 0.0000 UP 9999 0 0 0 6140
2019/10/25 20:48:00 BASE 28.59 13 37.61 8 1.2 100 1.2 144 0 990.9 NA 0.0000 UP 9999 0 0 0 4590
2019/10/25 20:49:00 BASE 28.37 13 35.70 5 1.1 100 1.1 140 0 991.1 NA 0.0000 UP 9999 0 0 0 4950
2019/10/25 20:50:00 BASE 27.92 13 35.70 5 1.1 100 1.1 145 0 991.0 NA 0.0000 UP 9999 0 0 0 4490
2019/10/25 20:51:00 BASE 28.92 11 34.78 12 1.1 100 1.1 174 0 990.9 NA 0.0000 UP 9999 0 0 0 6630
2019/10/25 20:52:00 BASE 29.42 10 34.78 12 1.0 100 1.0 229 0 990.9 NA 0.0000 UP 9999 0 0 0 6330
2019/10/25 20:53:00 BASE 29.24 11 34.78 12 1.0 100 1.0 248 0 990.9 NA 0.0000 UP 9999 0 0 0 2920
2019/10/25 20:54:00 BASE 29.39 9 32.87 14 1.0 100 1.0 182 0 991.0 NA 0.0000 UP 9999 0 0 0 4200
2019/10/25 20:55:00 BASE 28.53 8 32.87 14 1.1 100 1.1 150 0 991.1 NA 0.0000 UP 9999 0 0 0 3970
2019/10/25 20:56:00 BASE 27.79 8 32.87 14 1.1 100 1.1 135 0 991.1 NA 0.0000 UP 9999 390 0 0 0
2019/10/25 20:57:00 BASE 28.40 8 32.87 14 1.1 100 1.1 145 0 991.0 NA 0.0000 UP 9999 2430 0 0 0
2019/10/25 20:58:00 BASE 29.22 9 32.87 14 1.1 100 1.1 118 0 990.9 NA 0.0000 UP 9999 0 0 0 2950
2019/10/25 20:59:00 BASE 29.54 9 32.87 14 1.1 100 1.1 100 0 991.0 NA 0.0000 UP 9999 0 0 0 1610
2019/10/25 21:00:00 BASE 29.78 9 32.56 8 1.1 100 1.1 104 0 990.9 NA 0.0000 UP 9999 2400 0 0 0
2019/10/25 21:01:00 BASE 29.78 12 32.56 8 1.1 100 1.1 109 0 990.9 NA 0.0000 UP 9999 2260 3220 0 0
2019/10/25 21:02:01 BASE 29.00 12 32.56 8 1.1 100 1.1 98 0 991.0 NA 0.0000 UP 9999 2200 3410 0 0
2019/10/25 21:03:00 BASE 29.36 12 32.56 8 1.1 100 1.1 89 0 990.9 NA 0.0000 UP 9999 1710 6500 0 0
2019/10/25 21:04:01 BASE 29.38 14 32.56 8 1.1 100 1.1 85 0 991.0 NA 0.0000 UP 9999 2690 0 0 0
2019/10/25 21:05:00 BASE 29.69 14 33.08 16 1.1 100 1.1 78 0 990.9 NA 0.0000 UP 9999 2070 3150 0 0
2019/10/25 21:06:00 BASE 30.12 13 33.08 16 1.1 100 1.1 76 0 990.9 NA 0.0000 UP 9999 2030 2690 0 0
2019/10/25 21:07:00 BASE 30.13 15 33.08 16 1.1 100 1.1 78 0 990.9 NA 0.0000 9999 1540 2760 0 0
2019/10/25 21:08:00 BASE 30.42 13 36.01 5 1.1 100 1.1 89 0 991.0 NA 0.0000 9999 1250 0 0 0
2019/10/25 21:09:00 BASE 28.59 11 36.01 5 1.2 100 1.2 107 0 991.2 NA 0.0000 9999 1210 0 0 0
2019/10/25 21:10:00 BASE 28.89 11 36.01 5 1.2 100 1.2 108 0 991.0 NA 0.0000 9999 1250 0 0 0
2019/10/25 21:11:00 BASE 30.57 9 36.17 10 1.3 100 1.3 104 0 991.1 NA 0.0000 9999 1280 0 0 0
2019/10/25 21:12:00 BASE 29.27 8 36.17 10 1.3 100 1.3 100 0 991.2 NA 0.0000 9999 690 0 0 0
2019/10/25 21:13:00 BASE 27.68 10 36.17 10 1.4 100 1.4 103 0 991.3 NA 0.0000 9999 790 0 0 0
2019/10/25 21:14:00 BASE 28.04 12 36.17 10 1.4 100 1.4 102 0 991.2 NA 0.0000 9999 1610 2890 0 0
2019/10/25 21:15:00 BASE 28.03 13 36.17 10 1.3 100 1.3 93 0 991.3 NA 0.0000 9999 1440 0 0 0
2019/10/25 21:16:00 BASE 27.36 13 36.17 10 1.3 100 1.3 91 0 991.3 NA 0.0000 9999 1080 0 0 0
2019/10/25 21:17:00 BASE 28.41 12 36.17 10 1.2 100 1.2 101 0 991.1 NA 0.0000 9999 2790 0 0 0
2019/10/25 21:18:00 BASE 29.41 13 36.17 10 1.2 100 1.2 100 0 991.1 NA 0.0000 9999 2790 0 0 0
2019/10/25 21:19:00 BASE 28.77 13 36.17 10 1.1 100 1.1 104 0 991.1 NA 0.0000 9999 3080 0 0 0
2019/10/25 21:20:00 BASE 28.40 12 36.17 10 1.1 100 1.1 104 0 991.1 NA 0.0000 9999 3020 10240 0 0
2019/10/25 21:21:00 BASE 29.27 11 32.46 10 1.1 100 1.1 91 0 991.1 NA 0.0000 9999 10240 0 0 0
2019/10/25 21:22:00 BASE 29.30 12 32.46 10 1.1 100 1.1 94 0 991.1 NA 0.0000 9999 10070 0 0 0
2019/10/25 21:23:00 BASE 28.55 8 32.46 10 1.1 100 1.1 92 0 991.1 NA 0.0000 9999 0 0 0 720
2019/10/25 21:24:00 BASE 27.44 5 32.46 10 1.1 100 1.1 85 0 991.3 NA 0.0000 9999 0 0 0 1020
2019/10/25 21:25:00 BASE 26.72 9 32.46 10 1.1 100 1.1 79 0 991.3 NA 0.0000 9999 0 0 0 1310
2019/10/25 21:26:00 BASE 26.06 10 32.46 10 1.0 100 1.0 69 0 991.4 NA 0.0000 9999 1180 0 0 0
2019/10/25 21:27:00 BASE 26.92 11 33.23 7 1.0 100 1.0 62 0 991.2 NA 0.0000 9999 1080 0 0 0
2019/10/25 21:28:00 BASE 29.08 14 33.23 7 1.0 100 1.0 64 0 991.2 NA 0.0000 9999 1180 3350 0 0
2019/10/25 21:29:00 BASE 29.28 16 33.23 7 1.0 100 1.0 76 0 991.2 NA 0.0000 9999 1120 0 0 0
2019/10/25 21:30:00 BASE 29.02 17 33.23 7 1.0 100 1.0 80 0 991.2 NA 0.0000 9999 1440 0 0 0
2019/10/25 21:31:00 BASE 29.36 16 33.23 7 1.0 100 1.0 80 0 991.1 NA 0.0000 9999 2660 4230 0 0
2019/10/25 21:32:01 BASE 29.57 15 33.23 7 1.0 100 1.0 85 0 991.2 NA 0.0000 9999 3840 0 0 0
2019/10/25 21:33:01 BASE 29.52 16 33.23 7 1.0 100 1.0 98 0 991.2 NA 0.0000 9999 2890 0 0 0
2019/10/25 21:34:01 BASE 29.37 15 33.23 7 1.0 100 1.0 111 0 991.2 NA 0.0000 9999 3710 0 0 0
2019/10/25 21:35:01 BASE 28.34 13 33.23 7 1.0 100 1.0 120 0 991.3 NA 0.0000 9999 2690 3380 0 0
2019/10/25 21:36:01 BASE 28.72 12 33.23 7 1.1 100 1.1 123 0 991.2 NA 0.0000 9999 3050 0 0 0
2019/10/25 21:37:01 BASE 28.86 15 33.13 17 1.1 100 1.1 117 0 991.3 NA 0.0000 9999 2850 3640 0 0
2019/10/25 21:38:01 BASE 28.45 15 33.13 17 1.1 100 1.1 104 0 991.2 NA 0.0000 9999 2950 3710 0 0
2019/10/25 21:39:01 BASE 29.69 12 33.13 17 1.1 100 1.1 99 0 991.1 NA 0.0000 9999 2920 0 0 0
2019/10/25 21:40:01 BASE 29.60 11 33.13 17 1.1 100 1.1 90 0 991.3 NA 0.0000 9999 3120 0 0 0
2019/10/25 21:41:01 BASE 27.77 11 33.13 17 1.2 100 1.2 71 0 991.4 NA 0.0000 9999 2990 0 0 0
2019/10/25 21:42:01 BASE 28.22 11 32.72 20 1.2 100 1.2 62 0 991.3 NA 0.0000 9999 2950 0 0 0
2019/10/25 21:43:00 BASE 29.65 12 32.56 9 1.2 100 1.2 59 0 991.2 NA 0.0000 9999 2990 0 0 0
2019/10/25 21:44:01 BASE 28.16 13 32.56 9 1.2 100 1.2 54 0 991.4 NA 0.0000 9999 3020 0 0 0
2019/10/25 21:45:01 BASE 28.19 14 32.56 9 1.2 100 1.2 55 0 991.2 NA 0.0000 9999 2850 0 0 0
2019/10/25 21:46:01 BASE 29.29 15 32.56 9 1.1 100 1.1 57 0 991.2 NA 0.0000 9999 2400 3150 0 0
2019/10/25 21:47:01 BASE 28.57 14 32.56 9 1.1 100 1.1 56 0 991.3 NA 0.0000 9999 2790 0 0 0
2019/10/25 21:48:00 BASE 27.84 13 32.56 9 1.1 100 1.1 60 0 991.3 NA 0.0000 9999 2950 0 0 0
2019/10/25 21:49:00 BASE 28.55 13 32.72 11 1.1 100 1.1 60 0 991.2 NA 0.0000 9999 3120 0 0 0
2019/10/25 21:50:00 BASE 29.39 15 32.72 11 1.0 100 1.0 54 0 991.3 NA 0.0000 9999 3580 0 0 0
2019/10/25 21:51:00 BASE 29.46 16 32.72 11 1.0 100 1.0 43 0 991.2 NA 0.0000 9999 4430 0 0 0
2019/10/25 21:52:00 BASE 30.11 15 32.87 18 1.0 100 1.0 38 0 991.2 NA 0.0000 9999 2460 4660 0 0
2019/10/25 21:53:00 BASE 29.18 15 32.87 18 1.0 100 1.0 39 0 991.2 NA 0.0000 9999 3610 0 0 0
2019/10/25 21:54:00 BASE 28.38 15 32.87 18 1.0 100 1.0 45 0 991.2 NA 0.0000 9999 3840 0 0 0
2019/10/25 21:55:00 BASE 28.86 14 32.87 18 1.0 100 1.0 47 0 991.2 NA 0.0000 9999 3450 0 0 0
2019/10/25 21:56:00 BASE 29.95 13 32.87 18 1.0 100 1.0 54 0 991.1 NA 0.0000 9999 3840 0 0 0
2019/10/25 21:57:00 BASE 30.62 12 33.34 19 1.1 100 1.1 66 0 991.1 NA 0.0000 9999 2790 3450 0 0
2019/10/25 21:58:00 BASE 30.66 12 33.70 24 1.1 100 1.1 68 0 991.0 NA 0.0000 UP 9999 2560 3900 0 0
2019/10/25 21:59:00 BASE 30.55 12 33.70 24 1.1 100 1.1 60 0 991.1 NA 0.0000 UP 9999 2660 3540 0 0
2019/10/25 22:00:00 BASE 28.18 12 33.70 24 1.2 100 1.2 60 0 991.4 NA 0.0000 UP 9999 2590 0 0 0
2019/10/25 22:01:00 BASE 26.89 12 33.70 24 1.2 100 1.2 71 0 991.3 NA 0.0000 UP 9999 2690 3510 0 0
2019/10/25 22:02:00 BASE 27.43 13 33.70 24 1.2 100 1.2 89 0 991.4 NA 0.0000 UP 9999 3310 3770 0 0
2019/10/25 22:03:01 BASE 26.55 14 33.70 24 1.1 100 1.1 102 0 991.4 NA 0.0000 UP 9999 3450 0 0 0
2019/10/25 22:04:01 BASE 27.75 17 33.70 24 1.1 100 1.1 105 0 991.2 NA 0.0000 UP 9999 3900 0 0 0
2019/10/25 22:05:01 BASE 30.02 16 33.70 24 1.1 100 1.1 104 0 991.2 NA 0.0000 UP 9999 3740 0 0 0
2019/10/25 22:06:01 BASE 29.61 13 33.70 24 1.1 100 1.1 96 0 991.3 NA 0.0000 UP 9999 2790 0 0 0
2019/10/25 22:07:01 BASE 28.45 11 33.70 24 1.1 100 1.1 81 0 991.4 NA 0.0000 UP 9999 2660 0 0 0
2019/10/25 22:08:01 BASE 28.26 13 33.44 12 1.1 100 1.1 52 0 991.4 NA 0.0000 9999 2790 5580 0 0
2019/10/25 22:09:01 BASE 29.03 15 33.44 12 1.1 100 1.1 43 0 991.3 NA 0.0000 9999 2360 0 0 0
2019/10/25 22:10:01 BASE 28.26 13 33.44 12 1.1 100 1.1 42 0 991.4 NA 0.0000 9999 2460 0 0 0
2019/10/25 22:11:01 BASE 27.66 11 33.44 12 1.1 100 1.1 45 0 991.4 NA 0.0000 9999 2590 0 0 0
2019/10/25 22:12:01 BASE 27.86 13 33.44 12 1.1 100 1.1 49 0 991.4 NA 0.0000 9999 1900 2850 0 0
2019/10/25 22:13:01 BASE 27.31 11 33.44 12 1.1 100 1.1 54 0 991.4 NA 0.0000 9999 2430 3380 0 0
2019/10/25 22:14:01 BASE 27.69 10 33.44 12 1.1 100 1.1 61 0 991.4 NA 0.0000 9999 2430 3080 0 0
2019/10/25 22:15:01 BASE 27.77 13 31.59 15 1.1 100 1.1 64 0 991.4 NA 0.0000 9999 2760 0 0 0
2019/10/25 22:16:01 BASE 28.09 13 31.59 15 1.1 100 1.1 61 0 991.4 NA 0.0000 9999 2820 0 0 0
2019/10/25 22:17:01 BASE 28.87 10 31.59 15 1.2 100 1.2 57 0 991.3 NA 0.0000 9999 2430 0 0 0
2019/10/25 22:18:01 BASE 28.25 10 31.59 15 1.2 100 1.2 57 0 991.4 NA 0.0000 9999 2460 0 0 0
2019/10/25 22:19:01 BASE 28.18 10 31.59 15 1.2 100 1.2 61 0 991.4 NA 0.0000 9999 2460 0 0 0
2019/10/25 22:20:01 BASE 29.13 10 31.59 15 1.2 100 1.2 59 0 991.3 NA 0.0000 9999 2820 3410 0 0
2019/10/25 22:21:01 BASE 28.92 10 31.54 8 1.2 100 1.2 62 0 991.4 NA 0.0000 9999 2620 0 0 0
2019/10/25 22:22:01 BASE 29.12 9 31.54 8 1.2 100 1.2 64 0 991.3 NA 0.0000 9999 2760 0 0 0
2019/10/25 22:23:00 BASE 29.72 10 32.36 9 1.2 100 1.2 74 0 991.3 NA 0.0000 9999 2300 3080 0 0
2019/10/25 22:24:01 BASE 29.43 11 32.36 9 1.2 100 1.2 71 0 991.4 NA 0.0000 9999 2660 0 0 0
2019/10/25 22:25:00 BASE 29.07 9 32.36 9 1.3 100 1.3 72 0 991.3 NA 0.0000 9999 2660 0 0 0
2019/10/25 22:26:00 BASE 28.16 9 32.36 9 1.3 100 1.3 77 0 991.4 NA 0.0000 9999 2590 3450 0 0
2019/10/25 22:27:00 BASE 27.78 10 32.36 9 1.3 100 1.3 82 0 991.3 NA 0.0000 9999 2760 0 0 0
2019/10/25 22:28:00 BASE 28.15 11 32.36 9 1.3 100 1.3 90 0 991.4 NA 0.0000 9999 2560 0 0 0
2019/10/25 22:29:00 BASE 28.17 10 32.36 9 1.3 100 1.3 93 0 991.3 NA 0.0000 9999 2950 0 0 0
2019/10/25 22:30:00 BASE 27.75 11 32.36 9 1.4 100 1.4 87 0 991.4 NA 0.0000 9999 2760 0 0 0
2019/10/25 22:31:00 BASE 27.62 13 32.36 9 1.4 100 1.4 79 0 991.3 NA 0.0000 9999 3050 0 0 0
2019/10/25 22:32:00 BASE 28.86 12 32.36 9 1.4 100 1.4 73 0 991.2 NA 0.0000 9999 2920 0 0 0
2019/10/25 22:33:00 BASE 29.41 11 31.43 16 1.4 100 1.4 63 0 991.3 NA 0.0000 9999 3020 0 0 0
2019/10/25 22:34:00 BASE 28.41 13 31.43 16 1.4 100 1.4 52 0 991.3 NA 0.0000 9999 2560 0 0 0
2019/10/25 22:35:00 BASE 27.81 14 31.43 16 1.4 100 1.4 46 0 991.4 NA 0.0000 9999 2490 3450 0 0
2019/10/25 22:36:01 BASE 28.07 12 31.43 16 1.4 100 1.4 48 0 991.3 NA 0.0000 9999 2400 0 0 0
2019/10/25 22:37:01 BASE 27.98 11 31.43 16 1.4 100 1.4 49 0 991.4 NA 0.0000 9999 2300 3020 0 0
2019/10/25 22:38:01 BASE 27.55 11 31.43 16 1.4 100 1.4 44 0 991.4 NA 0.0000 9999 3350 0 0 0
2019/10/25 22:39:00 BASE 27.18 12 31.43 16 1.4 100 1.4 39 0 991.5 NA 0.0000 9999 1840 2790 0 0
2019/10/25 22:40:00 BASE 27.28 11 31.43 16 1.4 100 1.4 41 0 991.4 NA 0.0000 9999 1940 2760 0 0
2019/10/25 22:41:00 BASE 27.65 10 32.05 16 1.4 100 1.4 36 0 991.4 NA 0.0000 9999 2920 0 0 0
2019/10/25 22:42:00 BASE 28.23 13 32.05 16 1.4 100 1.4 34 0 991.4 NA 0.0000 9999 2590 0 0 0
2019/10/25 22:43:00 BASE 29.19 15 32.15 17 1.4 100 1.4 33 0 991.3 NA 0.0000 9999 1710 0 0 0
2019/10/25 22:44:00 BASE 29.71 16 32.15 17 1.4 100 1.4 38 0 991.3 NA 0.0000 9999 2560 0 0 0
2019/10/25 22:45:00 BASE 30.27 16 32.15 17 1.4 100 1.4 38 0 991.2 NA 0.0000 9999 2620 0 0 0
2019/10/25 22:46:00 BASE 29.57 17 35.14 20 1.4 100 1.4 31 0 991.3 NA 0.0000 9999 2530 0 0 0
2019/10/25 22:47:00 BASE 29.65 18 35.14 20 1.4 100 1.4 30 0 991.2 NA 0.0000 9999 2660 0 0 0
2019/10/25 22:48:00 BASE 31.56 17 35.14 20 1.4 100 1.4 32 0 991.1 NA 0.0000 9999 2490 0 0 0
2019/10/25 22:49:00 BASE 32.04 18 35.14 19 1.3 100 1.3 36 0 991.2 NA 0.0000 9999 0 0 0 690
2019/10/25 22:50:00 BASE 31.16 19 35.14 19 1.3 100 1.3 37 0 991.2 NA 0.0000 9999 2690 0 0 0
2019/10/25 22:51:00 BASE 30.59 19 35.14 19 1.3 100 1.3 36 0 991.2 NA 0.0000 9999 2760 0 0 0
2019/10/25 22:52:00 BASE 30.18 19 35.14 19 1.2 100 1.2 34 0 991.3 NA 0.0000 9999 2950 0 0 0
2019/10/25 22:53:00 BASE 29.37 17 35.14 19 1.2 100 1.2 34 0 991.3 NA 0.0000 9999 3050 0 0 0
2019/10/25 22:54:01 BASE 29.29 15 35.14 19 1.2 100 1.2 30 0 991.3 NA 0.0000 9999 3150 0 0 0
2019/10/25 22:55:01 BASE 28.62 14 35.14 19 1.2 100 1.2 28 0 991.4 NA 0.0000 9999 3540 0 0 0
2019/10/25 22:56:01 BASE 28.16 16 35.14 19 1.2 100 1.2 27 0 991.4 NA 0.0000 9999 2760 0 0 0
2019/10/25 22:57:01 BASE 29.16 14 35.14 19 1.2 100 1.2 30 0 991.3 NA 0.0000 9999 3080 0 0 0
2019/10/25 22:58:01 BASE 29.36 12 35.14 19 1.2 100 1.2 29 0 991.3 NA 0.0000 9999 2300 3150 0 0
2019/10/25 22:59:01 BASE 29.98 15 34.16 19 1.2 100 1.2 31 0 991.3 NA 0.0000 9999 2990 3580 0 0
2019/10/25 23:00:01 BASE 30.72 16 34.16 19 1.2 100 1.2 31 0 991.4 NA 0.0000 9999 3250 0 0 0
2019/10/25 23:01:01 BASE 30.20 15 34.16 19 1.3 100 1.3 28 0 991.4 NA 0.0000 9999 2530 3410 0 0
2019/10/25 23:02:01 BASE 30.03 14 34.16 19 1.3 100 1.3 27 0 991.4 NA 0.0000 9999 2560 0 0 0
2019/10/25 23:03:01 BASE 30.69 15 34.16 19 1.3 100 1.3 29 0 991.4 NA 0.0000 9999 2790 0 0 0
2019/10/25 23:04:01 BASE 30.03 17 34.16 19 1.2 100 1.2 28 0 991.5 NA 0.0000 9999 3080 0 0 0
2019/10/25 23:05:01 BASE 29.12 17 34.16 19 1.2 100 1.2 24 0 991.5 NA 0.0000 9999 1840 0 0 0
2019/10/25 23:06:01 BASE 29.48 15 34.16 19 1.2 100 1.2 25 0 991.5 NA 0.0000 9999 0 0 0 1740
2019/10/25 23:07:00 BASE 28.42 15 34.16 19 1.2 100 1.2 25 0 991.6 NA 0.0000 9999 2760 0 0 0
2019/10/25 23:08:01 BASE 27.35 16 33.34 20 1.2 100 1.2 23 0 991.6 NA 0.0000 9999 2890 0 0 0
2019/10/25 23:09:01 BASE 28.02 16 33.34 20 1.3 100 1.3 23 0 991.6 NA 0.0000 9999 0 0 0 1380
2019/10/25 23:10:01 BASE 28.88 16 33.34 20 1.3 100 1.3 21 0 991.5 NA 0.0000 9999 0 0 0 1280
2019/10/25 23:11:01 BASE 29.37 16 33.13 21 1.3 100 1.3 19 0 991.5 NA 0.0000 9999 0 0 0 890
2019/10/25 23:12:00 BASE 28.55 16 33.13 21 1.3 100 1.3 18 0 991.6 NA 0.0000 9999 0 0 0 820
2019/10/25 23:13:00 BASE 28.09 17 32.46 21 1.3 100 1.3 18 0 991.6 NA 0.0000 9999 2850 0 0 0
2019/10/25 23:14:00 BASE 28.41 16 32.46 21 1.3 100 1.3 17 0 991.6 NA 0.0000 9999 0 0 0 1180
2019/10/25 23:15:00 BASE 28.49 14 32.46 21 1.3 100 1.3 17 0 991.6 NA 0.0000 9999 0 0 0 1310
2019/10/25 23:16:00 BASE 28.65 14 32.46 21 1.2 100 1.2 17 0 991.6 NA 0.0000 9999 0 0 0 1510
2019/10/25 23:17:00 BASE 28.89 15 32.46 21 1.2 100 1.2 17 0 991.5 NA 0.0000 9999 0 0 0 1710
2019/10/25 23:18:00 BASE 28.85 16 32.46 21 1.2 100 1.2 17 0 991.5 NA 0.0000 9999 0 0 0 1310
2019/10/25 23:19:00 BASE 28.70 14 32.46 21 1.2 100 1.2 18 0 991.5 NA 0.0000 9999 0 0 0 820
2019/10/25 23:20:00 BASE 28.51 12 32.46 21 1.2 100 1.2 20 0 991.5 NA 0.0000 9999 0 0 0 490
2019/10/25 23:21:00 BASE 27.63 11 32.46 21 1.2 100 1.2 21 0 991.6 NA 0.0000 9999 0 0 0 590
2019/10/25 23:22:00 BASE 27.66 11 32.46 21 1.2 100 1.2 22 0 991.5 NA 0.0000 9999 0 0 0 620
2019/10/25 23:23:00 BASE 28.40 14 32.26 20 1.2 100 1.2 21 0 991.5 NA 0.0000 9999 0 0 0 690
2019/10/25 23:24:00 BASE 27.93 15 32.26 20 1.2 100 1.2 20 0 991.5 NA 0.0000 9999 3020 0 0 0
2019/10/25 23:25:00 BASE 26.59 13 32.26 20 1.2 100 1.2 20 0 991.6 NA 0.0000 9999 0 0 0 0
2019/10/25 23:26:00 BASE 26.27 12 32.26 20 1.2 100 1.2 19 0 991.5 NA 0.0000 9999 0 0 0 0
2019/10/25 23:27:00 BASE 26.58 14 31.90 13 1.2 100 1.2 19 0 991.6 NA 0.0000 9999 0 0 0 0
2019/10/25 23:28:00 BASE 26.81 14 31.90 13 1.2 100 1.2 19 0 991.6 NA 0.0000 9999 0 0 0 360
2019/10/25 23:29:00 BASE 27.38 13 31.90 13 1.2 100 1.2 20 0 991.5 NA 0.0000 9999 0 0 0 620
2019/10/25 23:30:00 BASE 27.36 13 31.28 14 1.2 100 1.2 21 0 991.5 NA 0.0000 9999 0 0 0 660
2019/10/25 23:31:01 BASE 27.59 15 31.28 14 1.2 100 1.2 22 0 991.4 NA 0.0000 9999 0 0 0 620
2019/10/25 23:32:01 BASE 28.44 15 31.28 14 1.2 100 1.2 23 0 991.5 NA 0.0000 9999 0 0 0 520
2019/10/25 23:33:01 BASE 27.74 16 31.02 15 1.2 100 1.2 24 0 991.5 NA 0.0000 9999 0 0 0 590
2019/10/25 23:34:01 BASE 27.39 16 31.02 15 1.2 100 1.2 24 0 991.5 NA 0.0000 9999 0 0 0 620
2019/10/25 23:35:01 BASE 27.96 16 31.02 15 1.2 100 1.2 24 0 991.5 NA 0.0000 9999 0 0 0 590
2019/10/25 23:36:01 BASE 28.33 18 32.05 19 1.2 100 1.2 26 0 991.5 NA 0.0000 9999 0 0 0 720
2019/10/25 23:37:01 BASE 29.12 19 32.62 13 1.2 100 1.2 28 0 991.4 NA 0.0000 9999 0 0 0 660
2019/10/25 23:38:01 BASE 29.12 18 32.62 13 1.2 100 1.2 29 0 991.4 NA 0.0000 9999 0 0 0 590
2019/10/25 23:39:01 BASE 28.57 17 32.62 13 1.2 100 1.2 31 0 991.4 NA 0.0000 9999 17450 0 0 0
2019/10/25 23:40:01 BASE 28.75 17 32.62 13 1.3 100 1.3 31 0 991.4 NA 0.0000 9999 0 0 0 590
2019/10/25 23:41:01 BASE 29.62 17 34.06 12 1.3 100 1.3 33 0 991.3 NA 0.0000 9999 0 0 0 850
2019/10/25 23:42:01 BASE 30.12 17 34.06 12 1.3 100 1.3 34 0 991.4 NA 0.0000 9999 7910 0 0 0
2019/10/25 23:43:01 BASE 29.01 17 34.06 12 1.3 100 1.3 35 0 991.5 NA 0.0000 9999 0 0 0 1050
2019/10/25 23:44:00 BASE 28.81 18 34.06 12 1.3 100 1.3 34 0 991.4 NA 0.0000 9999 7090 0 0 0
2019/10/25 23:45:00 BASE 28.77 18 34.06 12 1.3 100 1.3 32 0 991.5 NA 0.0000 9999 0 0 0 890
2019/10/25 23:46:00 BASE 28.41 18 34.06 12 1.3 100 1.3 29 0 991.4 NA 0.0000 9999 0 0 0 1120
2019/10/25 23:47:00 BASE 27.86 18 34.06 12 1.3 100 1.3 26 0 991.6 NA 0.0000 9999 6730 0 0 0
2019/10/25 23:48:00 BASE 26.46 17 34.06 12 1.2 100 1.2 24 0 991.6 NA 0.0000 9999 0 0 0 720
2019/10/25 23:49:00 BASE 26.80 16 34.06 12 1.2 100 1.2 23 0 991.6 NA 0.0000 9999 0 0 0 1080
2019/10/25 23:50:00 BASE 27.21 17 34.06 12 1.2 100 1.2 21 0 991.6 NA 0.0000 9999 0 0 0 1080
2019/10/25 23:51:00 BASE 27.45 16 32.15 15 1.2 100 1.2 21 0 991.5 NA 0.0000 9999 0 0 0 1120
2019/10/25 23:52:00 BASE 27.15 15 32.15 15 1.2 100 1.2 20 0 991.6 NA 0.0000 9999 3710 0 0 0
2019/10/25 23:53:00 BASE 25.76 15 32.15 15 1.3 100 1.3 18 0 991.8 NA 0.0000 9999 0 0 0 1120
2019/10/25 23:54:00 BASE 26.38 17 30.56 13 1.3 100 1.3 14 0 991.7 NA 0.0000 9999 1150 0 0 0
2019/10/25 23:55:00 BASE 27.06 15 30.56 13 1.3 100 1.3 9 0 991.8 NA 0.0000 9999 1280 6430 0 0
2019/10/25 23:56:00 BASE 25.63 14 30.46 17 1.3 100 1.3 6 0 991.8 NA 0.0000 9999 1180 0 0 0
2019/10/25 23:57:00 BASE 25.75 18 30.46 17 1.3 100 1.3 4 0 991.8 NA 0.0000 9999 1540 6070 0 0
2019/10/25 23:58:00 BASE 27.57 18 31.74 25 1.3 100 1.3 3 0 991.7 NA 0.0000 9999 1350 2130 0 0
2019/10/25 23:59:00 BASE 27.27 16 31.74 25 1.3 100 1.3 2 0 991.8 NA 0.0000 9999 4100 0 0 0